<?xml version="1.0" encoding="UTF-8" standalone="no" ?>
<gpx xmlns="http://www.topografix.com/GPX/1/1" xmlns:xsi="http://www.w3.org/2001/XMLSchema-instance" xsi:schemaLocation="http://www.topografix.com/GPX/1/1 http://www.topografix.com/GPX/1/1/gpx.xsd" version="1.1" creator="VisuGPX - https://www.visugpx.com">
  <metadata>
    <name>64 &amp;amp; 65 - VTT - Chemin Henri IV - Du château de Bizanos au lac de Lourdes - Un aller retour.</name>
    <desc><![CDATA[Temps frais et beau]]></desc>
  </metadata>
  <wpt lat="43.1058" lon="-0.07822">
    <ele>437</ele>
    <name><![CDATA[Lac de Lourdes]]></name>
    <desc><![CDATA[07-OCT-13 12:50:28]]></desc>
    <cmt><![CDATA[07-OCT-13 12:50:28]]></cmt>
  </wpt>
  <trk>
    <name><![CDATA[ACTIVE LOG]]></name>
    <trkseg>
      <trkpt lat="43.28667" lon="-0.3443">
        <ele>239.024902</ele>
        <time>2013-10-07T08:13:50Z</time>
      </trkpt>
      <trkpt lat="43.28666" lon="-0.34429">
        <ele>239.024902</ele>
        <time>2013-10-07T08:13:51Z</time>
      </trkpt>
      <trkpt lat="43.28665" lon="-0.34428">
        <ele>238.544312</ele>
        <time>2013-10-07T08:13:52Z</time>
      </trkpt>
      <trkpt lat="43.2867" lon="-0.34423">
        <ele>239.024902</ele>
        <time>2013-10-07T08:14:23Z</time>
      </trkpt>
      <trkpt lat="43.28671" lon="-0.34418">
        <ele>238.544312</ele>
        <time>2013-10-07T08:14:41Z</time>
      </trkpt>
      <trkpt lat="43.28669" lon="-0.34416">
        <ele>239.024902</ele>
        <time>2013-10-07T08:15:09Z</time>
      </trkpt>
      <trkpt lat="43.28671" lon="-0.34414">
        <ele>238.544312</ele>
        <time>2013-10-07T08:15:22Z</time>
      </trkpt>
      <trkpt lat="43.2867" lon="-0.34378">
        <ele>238.544312</ele>
        <time>2013-10-07T08:15:32Z</time>
      </trkpt>
      <trkpt lat="43.28674" lon="-0.34372">
        <ele>238.063599</ele>
        <time>2013-10-07T08:15:41Z</time>
      </trkpt>
      <trkpt lat="43.28671" lon="-0.34341">
        <ele>238.063599</ele>
        <time>2013-10-07T08:15:54Z</time>
      </trkpt>
      <trkpt lat="43.28663" lon="-0.34281">
        <ele>238.544312</ele>
        <time>2013-10-07T08:16:06Z</time>
      </trkpt>
      <trkpt lat="43.28664" lon="-0.34239">
        <ele>238.544312</ele>
        <time>2013-10-07T08:16:15Z</time>
      </trkpt>
      <trkpt lat="43.28657" lon="-0.34191">
        <ele>238.544312</ele>
        <time>2013-10-07T08:16:23Z</time>
      </trkpt>
      <trkpt lat="43.28655" lon="-0.34163">
        <ele>239.024902</ele>
        <time>2013-10-07T08:16:28Z</time>
      </trkpt>
      <trkpt lat="43.28652" lon="-0.34152">
        <ele>238.544312</ele>
        <time>2013-10-07T08:16:30Z</time>
      </trkpt>
      <trkpt lat="43.28646" lon="-0.34104">
        <ele>239.505493</ele>
        <time>2013-10-07T08:16:38Z</time>
      </trkpt>
      <trkpt lat="43.28652" lon="-0.34061">
        <ele>240.467041</ele>
        <time>2013-10-07T08:16:45Z</time>
      </trkpt>
      <trkpt lat="43.28681" lon="-0.33971">
        <ele>241.428223</ele>
        <time>2013-10-07T08:17:01Z</time>
      </trkpt>
      <trkpt lat="43.28679" lon="-0.33935">
        <ele>241.428223</ele>
        <time>2013-10-07T08:17:07Z</time>
      </trkpt>
      <trkpt lat="43.28677" lon="-0.33917">
        <ele>241.908936</ele>
        <time>2013-10-07T08:17:10Z</time>
      </trkpt>
      <trkpt lat="43.28673" lon="-0.33882">
        <ele>241.428223</ele>
        <time>2013-10-07T08:17:16Z</time>
      </trkpt>
      <trkpt lat="43.28672" lon="-0.33855">
        <ele>242.870239</ele>
        <time>2013-10-07T08:17:21Z</time>
      </trkpt>
      <trkpt lat="43.2867" lon="-0.33807">
        <ele>242.870239</ele>
        <time>2013-10-07T08:17:30Z</time>
      </trkpt>
      <trkpt lat="43.28668" lon="-0.33776">
        <ele>242.870239</ele>
        <time>2013-10-07T08:17:35Z</time>
      </trkpt>
      <trkpt lat="43.28667" lon="-0.33733">
        <ele>242.389648</ele>
        <time>2013-10-07T08:17:42Z</time>
      </trkpt>
      <trkpt lat="43.28668" lon="-0.33715">
        <ele>242.870239</ele>
        <time>2013-10-07T08:17:45Z</time>
      </trkpt>
      <trkpt lat="43.28668" lon="-0.33687">
        <ele>242.870239</ele>
        <time>2013-10-07T08:17:50Z</time>
      </trkpt>
      <trkpt lat="43.28658" lon="-0.3362">
        <ele>243.831543</ele>
        <time>2013-10-07T08:18:03Z</time>
      </trkpt>
      <trkpt lat="43.28648" lon="-0.33553">
        <ele>245.273438</ele>
        <time>2013-10-07T08:18:16Z</time>
      </trkpt>
      <trkpt lat="43.28644" lon="-0.33534">
        <ele>245.273438</ele>
        <time>2013-10-07T08:18:20Z</time>
      </trkpt>
      <trkpt lat="43.28634" lon="-0.33473">
        <ele>246.234863</ele>
        <time>2013-10-07T08:18:32Z</time>
      </trkpt>
      <trkpt lat="43.28633" lon="-0.33464">
        <ele>245.75415</ele>
        <time>2013-10-07T08:18:34Z</time>
      </trkpt>
      <trkpt lat="43.28629" lon="-0.33446">
        <ele>246.234863</ele>
        <time>2013-10-07T08:18:37Z</time>
      </trkpt>
      <trkpt lat="43.28623" lon="-0.33411">
        <ele>246.234863</ele>
        <time>2013-10-07T08:18:43Z</time>
      </trkpt>
      <trkpt lat="43.28618" lon="-0.3337">
        <ele>246.234863</ele>
        <time>2013-10-07T08:18:50Z</time>
      </trkpt>
      <trkpt lat="43.28611" lon="-0.33305">
        <ele>246.234863</ele>
        <time>2013-10-07T08:19:02Z</time>
      </trkpt>
      <trkpt lat="43.28608" lon="-0.3328">
        <ele>246.715454</ele>
        <time>2013-10-07T08:19:06Z</time>
      </trkpt>
      <trkpt lat="43.28609" lon="-0.33245">
        <ele>245.75415</ele>
        <time>2013-10-07T08:19:12Z</time>
      </trkpt>
      <trkpt lat="43.28606" lon="-0.33149">
        <ele>246.234863</ele>
        <time>2013-10-07T08:19:25Z</time>
      </trkpt>
      <trkpt lat="43.28606" lon="-0.33141">
        <ele>245.75415</ele>
        <time>2013-10-07T08:19:26Z</time>
      </trkpt>
      <trkpt lat="43.28585" lon="-0.33005">
        <ele>245.273438</ele>
        <time>2013-10-07T08:19:44Z</time>
      </trkpt>
      <trkpt lat="43.28573" lon="-0.32918">
        <ele>245.273438</ele>
        <time>2013-10-07T08:19:56Z</time>
      </trkpt>
      <trkpt lat="43.28556" lon="-0.3283">
        <ele>245.75415</ele>
        <time>2013-10-07T08:20:09Z</time>
      </trkpt>
      <trkpt lat="43.28546" lon="-0.32782">
        <ele>245.75415</ele>
        <time>2013-10-07T08:20:16Z</time>
      </trkpt>
      <trkpt lat="43.2853" lon="-0.3268">
        <ele>245.75415</ele>
        <time>2013-10-07T08:20:30Z</time>
      </trkpt>
      <trkpt lat="43.28522" lon="-0.32595">
        <ele>246.715454</ele>
        <time>2013-10-07T08:20:42Z</time>
      </trkpt>
      <trkpt lat="43.28517" lon="-0.32522">
        <ele>247.676758</ele>
        <time>2013-10-07T08:20:53Z</time>
      </trkpt>
      <trkpt lat="43.28514" lon="-0.32487">
        <ele>247.676758</ele>
        <time>2013-10-07T08:20:59Z</time>
      </trkpt>
      <trkpt lat="43.28497" lon="-0.32456">
        <ele>248.638184</ele>
        <time>2013-10-07T08:21:06Z</time>
      </trkpt>
      <trkpt lat="43.28453" lon="-0.32377">
        <ele>250.0802</ele>
        <time>2013-10-07T08:21:22Z</time>
      </trkpt>
      <trkpt lat="43.28438" lon="-0.32287">
        <ele>250.560791</ele>
        <time>2013-10-07T08:21:37Z</time>
      </trkpt>
      <trkpt lat="43.284" lon="-0.32191">
        <ele>251.041382</ele>
        <time>2013-10-07T08:21:55Z</time>
      </trkpt>
      <trkpt lat="43.28368" lon="-0.32099">
        <ele>252.483398</ele>
        <time>2013-10-07T08:22:13Z</time>
      </trkpt>
      <trkpt lat="43.28365" lon="-0.32082">
        <ele>252.483398</ele>
        <time>2013-10-07T08:22:16Z</time>
      </trkpt>
      <trkpt lat="43.28375" lon="-0.32056">
        <ele>251.522095</ele>
        <time>2013-10-07T08:22:22Z</time>
      </trkpt>
      <trkpt lat="43.28427" lon="-0.32034">
        <ele>250.0802</ele>
        <time>2013-10-07T08:22:33Z</time>
      </trkpt>
      <trkpt lat="43.28451" lon="-0.32056">
        <ele>250.560791</ele>
        <time>2013-10-07T08:22:40Z</time>
      </trkpt>
      <trkpt lat="43.28456" lon="-0.32076">
        <ele>251.522095</ele>
        <time>2013-10-07T08:22:44Z</time>
      </trkpt>
      <trkpt lat="43.28466" lon="-0.32077">
        <ele>253.444702</ele>
        <time>2013-10-07T08:22:48Z</time>
      </trkpt>
      <trkpt lat="43.28487" lon="-0.32061">
        <ele>252.483398</ele>
        <time>2013-10-07T08:22:56Z</time>
      </trkpt>
      <trkpt lat="43.2848" lon="-0.32036">
        <ele>252.483398</ele>
        <time>2013-10-07T08:23:01Z</time>
      </trkpt>
      <trkpt lat="43.28478" lon="-0.32012">
        <ele>251.041382</ele>
        <time>2013-10-07T08:23:05Z</time>
      </trkpt>
      <trkpt lat="43.28486" lon="-0.31996">
        <ele>251.041382</ele>
        <time>2013-10-07T08:23:09Z</time>
      </trkpt>
      <trkpt lat="43.28489" lon="-0.31945">
        <ele>251.041382</ele>
        <time>2013-10-07T08:23:19Z</time>
      </trkpt>
      <trkpt lat="43.28488" lon="-0.31929">
        <ele>250.560791</ele>
        <time>2013-10-07T08:23:22Z</time>
      </trkpt>
      <trkpt lat="43.28481" lon="-0.31891">
        <ele>250.560791</ele>
        <time>2013-10-07T08:23:28Z</time>
      </trkpt>
      <trkpt lat="43.28464" lon="-0.31817">
        <ele>251.522095</ele>
        <time>2013-10-07T08:23:40Z</time>
      </trkpt>
      <trkpt lat="43.28442" lon="-0.31749">
        <ele>252.483398</ele>
        <time>2013-10-07T08:23:52Z</time>
      </trkpt>
      <trkpt lat="43.28434" lon="-0.31728">
        <ele>252.483398</ele>
        <time>2013-10-07T08:23:56Z</time>
      </trkpt>
      <trkpt lat="43.28422" lon="-0.31703">
        <ele>252.963989</ele>
        <time>2013-10-07T08:24:01Z</time>
      </trkpt>
      <trkpt lat="43.28388" lon="-0.31613">
        <ele>252.963989</ele>
        <time>2013-10-07T08:24:16Z</time>
      </trkpt>
      <trkpt lat="43.28379" lon="-0.31583">
        <ele>252.963989</ele>
        <time>2013-10-07T08:24:21Z</time>
      </trkpt>
      <trkpt lat="43.28366" lon="-0.31563">
        <ele>252.963989</ele>
        <time>2013-10-07T08:24:25Z</time>
      </trkpt>
      <trkpt lat="43.28356" lon="-0.31537">
        <ele>252.963989</ele>
        <time>2013-10-07T08:24:30Z</time>
      </trkpt>
      <trkpt lat="43.28355" lon="-0.31442">
        <ele>254.406006</ele>
        <time>2013-10-07T08:24:45Z</time>
      </trkpt>
      <trkpt lat="43.28348" lon="-0.31373">
        <ele>253.925415</ele>
        <time>2013-10-07T08:24:56Z</time>
      </trkpt>
      <trkpt lat="43.28344" lon="-0.3134">
        <ele>254.886597</ele>
        <time>2013-10-07T08:25:01Z</time>
      </trkpt>
      <trkpt lat="43.28334" lon="-0.31256">
        <ele>255.848022</ele>
        <time>2013-10-07T08:25:15Z</time>
      </trkpt>
      <trkpt lat="43.28333" lon="-0.31213">
        <ele>256.328735</ele>
        <time>2013-10-07T08:25:23Z</time>
      </trkpt>
      <trkpt lat="43.28327" lon="-0.31171">
        <ele>256.328735</ele>
        <time>2013-10-07T08:25:29Z</time>
      </trkpt>
      <trkpt lat="43.28321" lon="-0.31112">
        <ele>256.809326</ele>
        <time>2013-10-07T08:25:39Z</time>
      </trkpt>
      <trkpt lat="43.28309" lon="-0.31065">
        <ele>256.809326</ele>
        <time>2013-10-07T08:25:47Z</time>
      </trkpt>
      <trkpt lat="43.28303" lon="-0.31029">
        <ele>257.290039</ele>
        <time>2013-10-07T08:25:53Z</time>
      </trkpt>
      <trkpt lat="43.28302" lon="-0.31017">
        <ele>257.290039</ele>
        <time>2013-10-07T08:25:55Z</time>
      </trkpt>
      <trkpt lat="43.28299" lon="-0.30991">
        <ele>257.770752</ele>
        <time>2013-10-07T08:25:59Z</time>
      </trkpt>
      <trkpt lat="43.28292" lon="-0.30913">
        <ele>257.290039</ele>
        <time>2013-10-07T08:26:11Z</time>
      </trkpt>
      <trkpt lat="43.28289" lon="-0.309">
        <ele>257.290039</ele>
        <time>2013-10-07T08:26:13Z</time>
      </trkpt>
      <trkpt lat="43.28285" lon="-0.3088">
        <ele>257.290039</ele>
        <time>2013-10-07T08:26:16Z</time>
      </trkpt>
      <trkpt lat="43.28281" lon="-0.30842">
        <ele>257.770752</ele>
        <time>2013-10-07T08:26:22Z</time>
      </trkpt>
      <trkpt lat="43.28281" lon="-0.30825">
        <ele>258.251343</ele>
        <time>2013-10-07T08:26:25Z</time>
      </trkpt>
      <trkpt lat="43.28283" lon="-0.30782">
        <ele>258.251343</ele>
        <time>2013-10-07T08:26:32Z</time>
      </trkpt>
      <trkpt lat="43.28286" lon="-0.30769">
        <ele>257.770752</ele>
        <time>2013-10-07T08:26:34Z</time>
      </trkpt>
      <trkpt lat="43.28287" lon="-0.30741">
        <ele>258.251343</ele>
        <time>2013-10-07T08:26:39Z</time>
      </trkpt>
      <trkpt lat="43.28266" lon="-0.30704">
        <ele>258.251343</ele>
        <time>2013-10-07T08:26:47Z</time>
      </trkpt>
      <trkpt lat="43.2824" lon="-0.30595">
        <ele>258.251343</ele>
        <time>2013-10-07T08:27:05Z</time>
      </trkpt>
      <trkpt lat="43.28226" lon="-0.30531">
        <ele>258.731934</ele>
        <time>2013-10-07T08:27:16Z</time>
      </trkpt>
      <trkpt lat="43.28199" lon="-0.30456">
        <ele>257.770752</ele>
        <time>2013-10-07T08:27:29Z</time>
      </trkpt>
      <trkpt lat="43.28187" lon="-0.30409">
        <ele>258.251343</ele>
        <time>2013-10-07T08:27:38Z</time>
      </trkpt>
      <trkpt lat="43.28162" lon="-0.3035">
        <ele>257.770752</ele>
        <time>2013-10-07T08:27:49Z</time>
      </trkpt>
      <trkpt lat="43.28154" lon="-0.30318">
        <ele>257.290039</ele>
        <time>2013-10-07T08:27:54Z</time>
      </trkpt>
      <trkpt lat="43.2815" lon="-0.30304">
        <ele>256.809326</ele>
        <time>2013-10-07T08:27:56Z</time>
      </trkpt>
      <trkpt lat="43.2812" lon="-0.3023">
        <ele>257.290039</ele>
        <time>2013-10-07T08:28:09Z</time>
      </trkpt>
      <trkpt lat="43.28113" lon="-0.30204">
        <ele>257.770752</ele>
        <time>2013-10-07T08:28:14Z</time>
      </trkpt>
      <trkpt lat="43.28075" lon="-0.30132">
        <ele>259.693359</ele>
        <time>2013-10-07T08:28:28Z</time>
      </trkpt>
      <trkpt lat="43.28051" lon="-0.30071">
        <ele>261.135254</ele>
        <time>2013-10-07T08:28:41Z</time>
      </trkpt>
      <trkpt lat="43.28051" lon="-0.30029">
        <ele>261.615967</ele>
        <time>2013-10-07T08:28:49Z</time>
      </trkpt>
      <trkpt lat="43.28048" lon="-0.30004">
        <ele>262.577148</ele>
        <time>2013-10-07T08:28:53Z</time>
      </trkpt>
      <trkpt lat="43.28017" lon="-0.29907">
        <ele>263.538574</ele>
        <time>2013-10-07T08:29:11Z</time>
      </trkpt>
      <trkpt lat="43.27997" lon="-0.29838">
        <ele>264.019287</ele>
        <time>2013-10-07T08:29:24Z</time>
      </trkpt>
      <trkpt lat="43.27986" lon="-0.29799">
        <ele>264.019287</ele>
        <time>2013-10-07T08:29:31Z</time>
      </trkpt>
      <trkpt lat="43.27955" lon="-0.29684">
        <ele>264.499878</ele>
        <time>2013-10-07T08:29:51Z</time>
      </trkpt>
      <trkpt lat="43.27928" lon="-0.29584">
        <ele>265.461304</ele>
        <time>2013-10-07T08:30:08Z</time>
      </trkpt>
      <trkpt lat="43.27899" lon="-0.29481">
        <ele>265.461304</ele>
        <time>2013-10-07T08:30:26Z</time>
      </trkpt>
      <trkpt lat="43.27869" lon="-0.29377">
        <ele>266.422485</ele>
        <time>2013-10-07T08:30:43Z</time>
      </trkpt>
      <trkpt lat="43.2783" lon="-0.29239">
        <ele>267.864502</ele>
        <time>2013-10-07T08:31:06Z</time>
      </trkpt>
      <trkpt lat="43.27803" lon="-0.29133">
        <ele>267.864502</ele>
        <time>2013-10-07T08:31:24Z</time>
      </trkpt>
      <trkpt lat="43.27788" lon="-0.29081">
        <ele>268.345093</ele>
        <time>2013-10-07T08:31:33Z</time>
      </trkpt>
      <trkpt lat="43.27785" lon="-0.29069">
        <ele>268.345093</ele>
        <time>2013-10-07T08:31:35Z</time>
      </trkpt>
      <trkpt lat="43.27751" lon="-0.2896">
        <ele>268.345093</ele>
        <time>2013-10-07T08:31:54Z</time>
      </trkpt>
      <trkpt lat="43.27745" lon="-0.28943">
        <ele>268.825806</ele>
        <time>2013-10-07T08:31:57Z</time>
      </trkpt>
      <trkpt lat="43.27728" lon="-0.28884">
        <ele>268.825806</ele>
        <time>2013-10-07T08:32:07Z</time>
      </trkpt>
      <trkpt lat="43.27724" lon="-0.28873">
        <ele>268.345093</ele>
        <time>2013-10-07T08:32:09Z</time>
      </trkpt>
      <trkpt lat="43.27717" lon="-0.2885">
        <ele>268.825806</ele>
        <time>2013-10-07T08:32:13Z</time>
      </trkpt>
      <trkpt lat="43.27678" lon="-0.28721">
        <ele>269.787109</ele>
        <time>2013-10-07T08:32:36Z</time>
      </trkpt>
      <trkpt lat="43.27643" lon="-0.28602">
        <ele>270.748413</ele>
        <time>2013-10-07T08:32:56Z</time>
      </trkpt>
      <trkpt lat="43.27637" lon="-0.28577">
        <ele>270.748413</ele>
        <time>2013-10-07T08:33:00Z</time>
      </trkpt>
      <trkpt lat="43.27619" lon="-0.28484">
        <ele>270.748413</ele>
        <time>2013-10-07T08:33:15Z</time>
      </trkpt>
      <trkpt lat="43.27596" lon="-0.28378">
        <ele>271.229126</ele>
        <time>2013-10-07T08:33:33Z</time>
      </trkpt>
      <trkpt lat="43.27573" lon="-0.28303">
        <ele>272.19043</ele>
        <time>2013-10-07T08:33:47Z</time>
      </trkpt>
      <trkpt lat="43.27542" lon="-0.28191">
        <ele>272.19043</ele>
        <time>2013-10-07T08:34:05Z</time>
      </trkpt>
      <trkpt lat="43.27538" lon="-0.28178">
        <ele>272.671143</ele>
        <time>2013-10-07T08:34:07Z</time>
      </trkpt>
      <trkpt lat="43.27535" lon="-0.28166">
        <ele>272.671143</ele>
        <time>2013-10-07T08:34:09Z</time>
      </trkpt>
      <trkpt lat="43.2753" lon="-0.28147">
        <ele>271.709717</ele>
        <time>2013-10-07T08:34:12Z</time>
      </trkpt>
      <trkpt lat="43.27505" lon="-0.28042">
        <ele>272.671143</ele>
        <time>2013-10-07T08:34:29Z</time>
      </trkpt>
      <trkpt lat="43.27495" lon="-0.27999">
        <ele>273.632446</ele>
        <time>2013-10-07T08:34:36Z</time>
      </trkpt>
      <trkpt lat="43.2749" lon="-0.27988">
        <ele>273.151855</ele>
        <time>2013-10-07T08:34:38Z</time>
      </trkpt>
      <trkpt lat="43.2747" lon="-0.27974">
        <ele>273.632446</ele>
        <time>2013-10-07T08:34:43Z</time>
      </trkpt>
      <trkpt lat="43.27449" lon="-0.27944">
        <ele>273.151855</ele>
        <time>2013-10-07T08:34:50Z</time>
      </trkpt>
      <trkpt lat="43.2744" lon="-0.27908">
        <ele>273.632446</ele>
        <time>2013-10-07T08:34:56Z</time>
      </trkpt>
      <trkpt lat="43.27437" lon="-0.27897">
        <ele>273.632446</ele>
        <time>2013-10-07T08:34:58Z</time>
      </trkpt>
      <trkpt lat="43.27415" lon="-0.27802">
        <ele>273.632446</ele>
        <time>2013-10-07T08:35:16Z</time>
      </trkpt>
      <trkpt lat="43.2737" lon="-0.27728">
        <ele>274.59375</ele>
        <time>2013-10-07T08:35:33Z</time>
      </trkpt>
      <trkpt lat="43.27358" lon="-0.27716">
        <ele>274.59375</ele>
        <time>2013-10-07T08:35:38Z</time>
      </trkpt>
      <trkpt lat="43.27345" lon="-0.27732">
        <ele>275.555054</ele>
        <time>2013-10-07T08:35:45Z</time>
      </trkpt>
      <trkpt lat="43.27297" lon="-0.2772">
        <ele>276.99707</ele>
        <time>2013-10-07T08:36:00Z</time>
      </trkpt>
      <trkpt lat="43.27286" lon="-0.27694">
        <ele>279.400269</ele>
        <time>2013-10-07T08:36:10Z</time>
      </trkpt>
      <trkpt lat="43.27267" lon="-0.27654">
        <ele>281.322998</ele>
        <time>2013-10-07T08:36:20Z</time>
      </trkpt>
      <trkpt lat="43.27243" lon="-0.27589">
        <ele>282.284302</ele>
        <time>2013-10-07T08:36:35Z</time>
      </trkpt>
      <trkpt lat="43.27228" lon="-0.27548">
        <ele>282.284302</ele>
        <time>2013-10-07T08:36:43Z</time>
      </trkpt>
      <trkpt lat="43.27222" lon="-0.27522">
        <ele>281.803589</ele>
        <time>2013-10-07T08:36:47Z</time>
      </trkpt>
      <trkpt lat="43.27221" lon="-0.27502">
        <ele>281.803589</ele>
        <time>2013-10-07T08:36:50Z</time>
      </trkpt>
      <trkpt lat="43.27221" lon="-0.2749">
        <ele>281.803589</ele>
        <time>2013-10-07T08:36:52Z</time>
      </trkpt>
      <trkpt lat="43.27219" lon="-0.2746">
        <ele>282.765015</ele>
        <time>2013-10-07T08:36:57Z</time>
      </trkpt>
      <trkpt lat="43.27196" lon="-0.27374">
        <ele>283.726196</ele>
        <time>2013-10-07T08:37:14Z</time>
      </trkpt>
      <trkpt lat="43.27172" lon="-0.27313">
        <ele>284.687622</ele>
        <time>2013-10-07T08:37:27Z</time>
      </trkpt>
      <trkpt lat="43.27146" lon="-0.27263">
        <ele>286.129517</ele>
        <time>2013-10-07T08:37:39Z</time>
      </trkpt>
      <trkpt lat="43.27131" lon="-0.2722">
        <ele>288.052246</ele>
        <time>2013-10-07T08:37:49Z</time>
      </trkpt>
      <trkpt lat="43.2711" lon="-0.27195">
        <ele>291.416748</ele>
        <time>2013-10-07T08:38:00Z</time>
      </trkpt>
      <trkpt lat="43.27079" lon="-0.27166">
        <ele>294.781372</ele>
        <time>2013-10-07T08:38:16Z</time>
      </trkpt>
      <trkpt lat="43.27055" lon="-0.27144">
        <ele>298.146118</ele>
        <time>2013-10-07T08:38:29Z</time>
      </trkpt>
      <trkpt lat="43.27043" lon="-0.27132">
        <ele>301.51062</ele>
        <time>2013-10-07T08:38:36Z</time>
      </trkpt>
      <trkpt lat="43.27015" lon="-0.27097">
        <ele>303.91394</ele>
        <time>2013-10-07T08:38:54Z</time>
      </trkpt>
      <trkpt lat="43.26997" lon="-0.27059">
        <ele>306.797852</ele>
        <time>2013-10-07T08:39:08Z</time>
      </trkpt>
      <trkpt lat="43.26972" lon="-0.27026">
        <ele>308.720459</ele>
        <time>2013-10-07T08:39:19Z</time>
      </trkpt>
      <trkpt lat="43.26943" lon="-0.26962">
        <ele>311.123779</ele>
        <time>2013-10-07T08:39:35Z</time>
      </trkpt>
      <trkpt lat="43.26921" lon="-0.26913">
        <ele>312.085205</ele>
        <time>2013-10-07T08:39:47Z</time>
      </trkpt>
      <trkpt lat="43.26919" lon="-0.26909">
        <ele>312.565796</ele>
        <time>2013-10-07T08:39:48Z</time>
      </trkpt>
      <trkpt lat="43.26892" lon="-0.2685">
        <ele>314.007813</ele>
        <time>2013-10-07T08:40:03Z</time>
      </trkpt>
      <trkpt lat="43.26873" lon="-0.26813">
        <ele>314.007813</ele>
        <time>2013-10-07T08:40:12Z</time>
      </trkpt>
      <trkpt lat="43.26849" lon="-0.26748">
        <ele>310.643066</ele>
        <time>2013-10-07T08:40:21Z</time>
      </trkpt>
      <trkpt lat="43.26843" lon="-0.26729">
        <ele>309.201172</ele>
        <time>2013-10-07T08:40:23Z</time>
      </trkpt>
      <trkpt lat="43.26835" lon="-0.2671">
        <ele>308.239868</ele>
        <time>2013-10-07T08:40:25Z</time>
      </trkpt>
      <trkpt lat="43.26821" lon="-0.26674">
        <ele>304.875244</ele>
        <time>2013-10-07T08:40:29Z</time>
      </trkpt>
      <trkpt lat="43.26811" lon="-0.26643">
        <ele>301.991333</ele>
        <time>2013-10-07T08:40:33Z</time>
      </trkpt>
      <trkpt lat="43.268" lon="-0.26617">
        <ele>299.1073</ele>
        <time>2013-10-07T08:40:38Z</time>
      </trkpt>
      <trkpt lat="43.26796" lon="-0.26611">
        <ele>298.146118</ele>
        <time>2013-10-07T08:40:40Z</time>
      </trkpt>
      <trkpt lat="43.26794" lon="-0.2661">
        <ele>298.146118</ele>
        <time>2013-10-07T08:40:41Z</time>
      </trkpt>
      <trkpt lat="43.2679" lon="-0.26592">
        <ele>295.742676</ele>
        <time>2013-10-07T08:40:45Z</time>
      </trkpt>
      <trkpt lat="43.26771" lon="-0.26547">
        <ele>292.378174</ele>
        <time>2013-10-07T08:40:54Z</time>
      </trkpt>
      <trkpt lat="43.26773" lon="-0.26514">
        <ele>292.858765</ele>
        <time>2013-10-07T08:41:05Z</time>
      </trkpt>
      <trkpt lat="43.2676" lon="-0.2649">
        <ele>293.339355</ele>
        <time>2013-10-07T08:41:12Z</time>
      </trkpt>
      <trkpt lat="43.26749" lon="-0.26434">
        <ele>296.704102</ele>
        <time>2013-10-07T08:41:27Z</time>
      </trkpt>
      <trkpt lat="43.26737" lon="-0.26403">
        <ele>300.068726</ele>
        <time>2013-10-07T08:41:37Z</time>
      </trkpt>
      <trkpt lat="43.2671" lon="-0.26358">
        <ele>302.952515</ele>
        <time>2013-10-07T08:41:54Z</time>
      </trkpt>
      <trkpt lat="43.26698" lon="-0.26335">
        <ele>306.317261</ele>
        <time>2013-10-07T08:42:04Z</time>
      </trkpt>
      <trkpt lat="43.26697" lon="-0.26332">
        <ele>306.317261</ele>
        <time>2013-10-07T08:42:05Z</time>
      </trkpt>
      <trkpt lat="43.2668" lon="-0.26298">
        <ele>309.681885</ele>
        <time>2013-10-07T08:42:20Z</time>
      </trkpt>
      <trkpt lat="43.26677" lon="-0.26294">
        <ele>310.162476</ele>
        <time>2013-10-07T08:42:22Z</time>
      </trkpt>
      <trkpt lat="43.26668" lon="-0.26273">
        <ele>313.046509</ele>
        <time>2013-10-07T08:42:30Z</time>
      </trkpt>
      <trkpt lat="43.26653" lon="-0.26243">
        <ele>315.93042</ele>
        <time>2013-10-07T08:42:45Z</time>
      </trkpt>
      <trkpt lat="43.26643" lon="-0.26222">
        <ele>318.814331</ele>
        <time>2013-10-07T08:42:56Z</time>
      </trkpt>
      <trkpt lat="43.26622" lon="-0.26185">
        <ele>321.698364</ele>
        <time>2013-10-07T08:43:16Z</time>
      </trkpt>
      <trkpt lat="43.26608" lon="-0.26168">
        <ele>324.101563</ele>
        <time>2013-10-07T08:43:27Z</time>
      </trkpt>
      <trkpt lat="43.26601" lon="-0.26152">
        <ele>325.543579</ele>
        <time>2013-10-07T08:43:39Z</time>
      </trkpt>
      <trkpt lat="43.26596" lon="-0.26145">
        <ele>326.985596</ele>
        <time>2013-10-07T08:43:43Z</time>
      </trkpt>
      <trkpt lat="43.26577" lon="-0.26123">
        <ele>328.908325</ele>
        <time>2013-10-07T08:43:58Z</time>
      </trkpt>
      <trkpt lat="43.26558" lon="-0.26107">
        <ele>332.272827</ele>
        <time>2013-10-07T08:44:12Z</time>
      </trkpt>
      <trkpt lat="43.26549" lon="-0.26099">
        <ele>334.676147</ele>
        <time>2013-10-07T08:44:25Z</time>
      </trkpt>
      <trkpt lat="43.26535" lon="-0.26095">
        <ele>335.637329</ele>
        <time>2013-10-07T08:44:42Z</time>
      </trkpt>
      <trkpt lat="43.26518" lon="-0.26091">
        <ele>336.118164</ele>
        <time>2013-10-07T08:44:54Z</time>
      </trkpt>
      <trkpt lat="43.26482" lon="-0.26078">
        <ele>338.040771</ele>
        <time>2013-10-07T08:45:09Z</time>
      </trkpt>
      <trkpt lat="43.26452" lon="-0.2606">
        <ele>340.924683</ele>
        <time>2013-10-07T08:45:23Z</time>
      </trkpt>
      <trkpt lat="43.26417" lon="-0.26038">
        <ele>342.84729</ele>
        <time>2013-10-07T08:45:40Z</time>
      </trkpt>
      <trkpt lat="43.26384" lon="-0.26023">
        <ele>343.327881</ele>
        <time>2013-10-07T08:45:56Z</time>
      </trkpt>
      <trkpt lat="43.26342" lon="-0.25991">
        <ele>344.289429</ele>
        <time>2013-10-07T08:46:14Z</time>
      </trkpt>
      <trkpt lat="43.26323" lon="-0.25956">
        <ele>345.731323</ele>
        <time>2013-10-07T08:46:28Z</time>
      </trkpt>
      <trkpt lat="43.26307" lon="-0.25914">
        <ele>346.212036</ele>
        <time>2013-10-07T08:46:41Z</time>
      </trkpt>
      <trkpt lat="43.263" lon="-0.25863">
        <ele>347.653931</ele>
        <time>2013-10-07T08:46:53Z</time>
      </trkpt>
      <trkpt lat="43.263" lon="-0.25823">
        <ele>348.615234</ele>
        <time>2013-10-07T08:47:03Z</time>
      </trkpt>
      <trkpt lat="43.26311" lon="-0.25779">
        <ele>347.173218</ele>
        <time>2013-10-07T08:47:14Z</time>
      </trkpt>
      <trkpt lat="43.26317" lon="-0.25727">
        <ele>346.212036</ele>
        <time>2013-10-07T08:47:25Z</time>
      </trkpt>
      <trkpt lat="43.26317" lon="-0.25666">
        <ele>343.808594</ele>
        <time>2013-10-07T08:47:35Z</time>
      </trkpt>
      <trkpt lat="43.26317" lon="-0.25659">
        <ele>343.327881</ele>
        <time>2013-10-07T08:47:36Z</time>
      </trkpt>
      <trkpt lat="43.26316" lon="-0.25639">
        <ele>343.327881</ele>
        <time>2013-10-07T08:47:39Z</time>
      </trkpt>
      <trkpt lat="43.2631" lon="-0.2562">
        <ele>341.405273</ele>
        <time>2013-10-07T08:47:42Z</time>
      </trkpt>
      <trkpt lat="43.26298" lon="-0.25577">
        <ele>339.482666</ele>
        <time>2013-10-07T08:47:47Z</time>
      </trkpt>
      <trkpt lat="43.26292" lon="-0.2556">
        <ele>338.040771</ele>
        <time>2013-10-07T08:47:49Z</time>
      </trkpt>
      <trkpt lat="43.26266" lon="-0.255">
        <ele>335.156738</ele>
        <time>2013-10-07T08:47:56Z</time>
      </trkpt>
      <trkpt lat="43.26262" lon="-0.25493">
        <ele>334.676147</ele>
        <time>2013-10-07T08:47:57Z</time>
      </trkpt>
      <trkpt lat="43.26221" lon="-0.2546">
        <ele>330.830933</ele>
        <time>2013-10-07T08:48:04Z</time>
      </trkpt>
      <trkpt lat="43.26204" lon="-0.25451">
        <ele>329.869507</ele>
        <time>2013-10-07T08:48:09Z</time>
      </trkpt>
      <trkpt lat="43.26169" lon="-0.25421">
        <ele>330.35022</ele>
        <time>2013-10-07T08:48:20Z</time>
      </trkpt>
      <trkpt lat="43.26116" lon="-0.25385">
        <ele>331.792114</ele>
        <time>2013-10-07T08:48:35Z</time>
      </trkpt>
      <trkpt lat="43.26067" lon="-0.25346">
        <ele>333.234131</ele>
        <time>2013-10-07T08:48:50Z</time>
      </trkpt>
      <trkpt lat="43.26034" lon="-0.25319">
        <ele>334.195435</ele>
        <time>2013-10-07T08:49:02Z</time>
      </trkpt>
      <trkpt lat="43.25997" lon="-0.25295">
        <ele>336.598877</ele>
        <time>2013-10-07T08:49:17Z</time>
      </trkpt>
      <trkpt lat="43.25981" lon="-0.25285">
        <ele>338.521484</ele>
        <time>2013-10-07T08:49:25Z</time>
      </trkpt>
      <trkpt lat="43.25954" lon="-0.25268">
        <ele>340.924683</ele>
        <time>2013-10-07T08:49:40Z</time>
      </trkpt>
      <trkpt lat="43.25929" lon="-0.25253">
        <ele>343.808594</ele>
        <time>2013-10-07T08:49:56Z</time>
      </trkpt>
      <trkpt lat="43.25907" lon="-0.25243">
        <ele>346.212036</ele>
        <time>2013-10-07T08:50:11Z</time>
      </trkpt>
      <trkpt lat="43.25881" lon="-0.25229">
        <ele>349.095825</ele>
        <time>2013-10-07T08:50:29Z</time>
      </trkpt>
      <trkpt lat="43.25863" lon="-0.25219">
        <ele>352.460571</ele>
        <time>2013-10-07T08:50:41Z</time>
      </trkpt>
      <trkpt lat="43.25839" lon="-0.25205">
        <ele>356.305786</ele>
        <time>2013-10-07T08:50:57Z</time>
      </trkpt>
      <trkpt lat="43.25829" lon="-0.25176">
        <ele>358.228394</ele>
        <time>2013-10-07T08:51:10Z</time>
      </trkpt>
      <trkpt lat="43.25813" lon="-0.25122">
        <ele>359.189697</ele>
        <time>2013-10-07T08:51:30Z</time>
      </trkpt>
      <trkpt lat="43.25798" lon="-0.25081">
        <ele>359.67041</ele>
        <time>2013-10-07T08:51:44Z</time>
      </trkpt>
      <trkpt lat="43.25775" lon="-0.25033">
        <ele>358.708984</ele>
        <time>2013-10-07T08:51:56Z</time>
      </trkpt>
      <trkpt lat="43.25747" lon="-0.24986">
        <ele>357.747803</ele>
        <time>2013-10-07T08:52:09Z</time>
      </trkpt>
      <trkpt lat="43.2572" lon="-0.24966">
        <ele>357.26709</ele>
        <time>2013-10-07T08:52:22Z</time>
      </trkpt>
      <trkpt lat="43.2567" lon="-0.24941">
        <ele>358.228394</ele>
        <time>2013-10-07T08:52:40Z</time>
      </trkpt>
      <trkpt lat="43.25612" lon="-0.24916">
        <ele>361.59314</ele>
        <time>2013-10-07T08:53:01Z</time>
      </trkpt>
      <trkpt lat="43.25574" lon="-0.24885">
        <ele>364.957642</ele>
        <time>2013-10-07T08:53:19Z</time>
      </trkpt>
      <trkpt lat="43.25534" lon="-0.2485">
        <ele>365.918945</ele>
        <time>2013-10-07T08:53:37Z</time>
      </trkpt>
      <trkpt lat="43.25489" lon="-0.24812">
        <ele>368.802979</ele>
        <time>2013-10-07T08:53:56Z</time>
      </trkpt>
      <trkpt lat="43.25459" lon="-0.2477">
        <ele>371.68689</ele>
        <time>2013-10-07T08:54:13Z</time>
      </trkpt>
      <trkpt lat="43.25424" lon="-0.24715">
        <ele>373.128906</ele>
        <time>2013-10-07T08:54:32Z</time>
      </trkpt>
      <trkpt lat="43.25398" lon="-0.2466">
        <ele>372.16748</ele>
        <time>2013-10-07T08:54:47Z</time>
      </trkpt>
      <trkpt lat="43.25363" lon="-0.24592">
        <ele>371.206299</ele>
        <time>2013-10-07T08:55:03Z</time>
      </trkpt>
      <trkpt lat="43.25335" lon="-0.24535">
        <ele>370.725586</ele>
        <time>2013-10-07T08:55:17Z</time>
      </trkpt>
      <trkpt lat="43.25331" lon="-0.24531">
        <ele>370.244873</ele>
        <time>2013-10-07T08:55:19Z</time>
      </trkpt>
      <trkpt lat="43.25325" lon="-0.24518">
        <ele>370.244873</ele>
        <time>2013-10-07T08:55:23Z</time>
      </trkpt>
      <trkpt lat="43.25278" lon="-0.24456">
        <ele>371.68689</ele>
        <time>2013-10-07T08:55:42Z</time>
      </trkpt>
      <trkpt lat="43.25229" lon="-0.24395">
        <ele>369.283691</ele>
        <time>2013-10-07T08:55:57Z</time>
      </trkpt>
      <trkpt lat="43.25201" lon="-0.24345">
        <ele>367.841553</ele>
        <time>2013-10-07T08:56:08Z</time>
      </trkpt>
      <trkpt lat="43.25169" lon="-0.24289">
        <ele>367.841553</ele>
        <time>2013-10-07T08:56:22Z</time>
      </trkpt>
      <trkpt lat="43.25143" lon="-0.24245">
        <ele>370.725586</ele>
        <time>2013-10-07T08:56:36Z</time>
      </trkpt>
      <trkpt lat="43.25125" lon="-0.24211">
        <ele>374.090088</ele>
        <time>2013-10-07T08:56:48Z</time>
      </trkpt>
      <trkpt lat="43.25097" lon="-0.24154">
        <ele>377.454834</ele>
        <time>2013-10-07T08:57:09Z</time>
      </trkpt>
      <trkpt lat="43.25075" lon="-0.24105">
        <ele>378.416138</ele>
        <time>2013-10-07T08:57:24Z</time>
      </trkpt>
      <trkpt lat="43.25044" lon="-0.24063">
        <ele>378.416138</ele>
        <time>2013-10-07T08:57:39Z</time>
      </trkpt>
      <trkpt lat="43.25008" lon="-0.24011">
        <ele>380.819458</ele>
        <time>2013-10-07T08:58:00Z</time>
      </trkpt>
      <trkpt lat="43.24985" lon="-0.23973">
        <ele>383.703247</ele>
        <time>2013-10-07T08:58:15Z</time>
      </trkpt>
      <trkpt lat="43.24947" lon="-0.2392">
        <ele>386.587402</ele>
        <time>2013-10-07T08:58:36Z</time>
      </trkpt>
      <trkpt lat="43.24927" lon="-0.23891">
        <ele>387.067993</ele>
        <time>2013-10-07T08:58:49Z</time>
      </trkpt>
      <trkpt lat="43.24905" lon="-0.2387">
        <ele>389.471191</ele>
        <time>2013-10-07T08:59:01Z</time>
      </trkpt>
      <trkpt lat="43.24875" lon="-0.23832">
        <ele>392.835938</ele>
        <time>2013-10-07T08:59:17Z</time>
      </trkpt>
      <trkpt lat="43.24866" lon="-0.2382">
        <ele>393.797241</ele>
        <time>2013-10-07T08:59:23Z</time>
      </trkpt>
      <trkpt lat="43.24838" lon="-0.23791">
        <ele>396.681152</ele>
        <time>2013-10-07T08:59:38Z</time>
      </trkpt>
      <trkpt lat="43.24815" lon="-0.23766">
        <ele>398.60376</ele>
        <time>2013-10-07T08:59:52Z</time>
      </trkpt>
      <trkpt lat="43.24789" lon="-0.23743">
        <ele>400.045898</ele>
        <time>2013-10-07T09:00:05Z</time>
      </trkpt>
      <trkpt lat="43.24762" lon="-0.23725">
        <ele>402.929688</ele>
        <time>2013-10-07T09:00:18Z</time>
      </trkpt>
      <trkpt lat="43.24729" lon="-0.23707">
        <ele>405.333008</ele>
        <time>2013-10-07T09:00:35Z</time>
      </trkpt>
      <trkpt lat="43.24727" lon="-0.23705">
        <ele>405.333008</ele>
        <time>2013-10-07T09:00:37Z</time>
      </trkpt>
      <trkpt lat="43.24722" lon="-0.23689">
        <ele>406.774902</ele>
        <time>2013-10-07T09:00:45Z</time>
      </trkpt>
      <trkpt lat="43.24716" lon="-0.23676">
        <ele>408.217041</ele>
        <time>2013-10-07T09:00:51Z</time>
      </trkpt>
      <trkpt lat="43.24698" lon="-0.23626">
        <ele>409.178345</ele>
        <time>2013-10-07T09:01:06Z</time>
      </trkpt>
      <trkpt lat="43.24688" lon="-0.23581">
        <ele>409.178345</ele>
        <time>2013-10-07T09:01:18Z</time>
      </trkpt>
      <trkpt lat="43.24659" lon="-0.23553">
        <ele>407.255615</ele>
        <time>2013-10-07T09:01:29Z</time>
      </trkpt>
      <trkpt lat="43.24641" lon="-0.23537">
        <ele>406.294312</ele>
        <time>2013-10-07T09:01:34Z</time>
      </trkpt>
      <trkpt lat="43.24615" lon="-0.23501">
        <ele>403.4104</ele>
        <time>2013-10-07T09:01:41Z</time>
      </trkpt>
      <trkpt lat="43.24605" lon="-0.2348">
        <ele>401.487793</ele>
        <time>2013-10-07T09:01:44Z</time>
      </trkpt>
      <trkpt lat="43.24602" lon="-0.23473">
        <ele>400.526489</ele>
        <time>2013-10-07T09:01:45Z</time>
      </trkpt>
      <trkpt lat="43.24595" lon="-0.23453">
        <ele>400.045898</ele>
        <time>2013-10-07T09:01:49Z</time>
      </trkpt>
      <trkpt lat="43.24586" lon="-0.23442">
        <ele>399.565063</ele>
        <time>2013-10-07T09:01:53Z</time>
      </trkpt>
      <trkpt lat="43.24571" lon="-0.23423">
        <ele>398.60376</ele>
        <time>2013-10-07T09:01:58Z</time>
      </trkpt>
      <trkpt lat="43.24554" lon="-0.23397">
        <ele>396.681152</ele>
        <time>2013-10-07T09:02:03Z</time>
      </trkpt>
      <trkpt lat="43.24541" lon="-0.23375">
        <ele>395.719849</ele>
        <time>2013-10-07T09:02:07Z</time>
      </trkpt>
      <trkpt lat="43.24522" lon="-0.23336">
        <ele>398.123169</ele>
        <time>2013-10-07T09:02:18Z</time>
      </trkpt>
      <trkpt lat="43.2452" lon="-0.23334">
        <ele>398.123169</ele>
        <time>2013-10-07T09:02:19Z</time>
      </trkpt>
      <trkpt lat="43.2449" lon="-0.23306">
        <ele>400.045898</ele>
        <time>2013-10-07T09:02:34Z</time>
      </trkpt>
      <trkpt lat="43.24474" lon="-0.23261">
        <ele>402.449097</ele>
        <time>2013-10-07T09:02:49Z</time>
      </trkpt>
      <trkpt lat="43.24468" lon="-0.23205">
        <ele>405.333008</ele>
        <time>2013-10-07T09:03:04Z</time>
      </trkpt>
      <trkpt lat="43.24438" lon="-0.23155">
        <ele>407.255615</ele>
        <time>2013-10-07T09:03:21Z</time>
      </trkpt>
      <trkpt lat="43.24403" lon="-0.23104">
        <ele>409.178345</ele>
        <time>2013-10-07T09:03:38Z</time>
      </trkpt>
      <trkpt lat="43.24353" lon="-0.23049">
        <ele>412.062256</ele>
        <time>2013-10-07T09:03:59Z</time>
      </trkpt>
      <trkpt lat="43.24325" lon="-0.23015">
        <ele>411.100952</ele>
        <time>2013-10-07T09:04:11Z</time>
      </trkpt>
      <trkpt lat="43.24302" lon="-0.22992">
        <ele>408.217041</ele>
        <time>2013-10-07T09:04:18Z</time>
      </trkpt>
      <trkpt lat="43.24297" lon="-0.22988">
        <ele>407.736328</ele>
        <time>2013-10-07T09:04:19Z</time>
      </trkpt>
      <trkpt lat="43.24286" lon="-0.22982">
        <ele>406.774902</ele>
        <time>2013-10-07T09:04:21Z</time>
      </trkpt>
      <trkpt lat="43.24275" lon="-0.22976">
        <ele>406.294312</ele>
        <time>2013-10-07T09:04:23Z</time>
      </trkpt>
      <trkpt lat="43.24233" lon="-0.22951">
        <ele>407.255615</ele>
        <time>2013-10-07T09:04:34Z</time>
      </trkpt>
      <trkpt lat="43.24222" lon="-0.22949">
        <ele>408.697632</ele>
        <time>2013-10-07T09:04:39Z</time>
      </trkpt>
      <trkpt lat="43.24209" lon="-0.22949">
        <ele>409.178345</ele>
        <time>2013-10-07T09:04:45Z</time>
      </trkpt>
      <trkpt lat="43.24202" lon="-0.22946">
        <ele>409.659058</ele>
        <time>2013-10-07T09:04:48Z</time>
      </trkpt>
      <trkpt lat="43.24181" lon="-0.22919">
        <ele>412.062256</ele>
        <time>2013-10-07T09:05:02Z</time>
      </trkpt>
      <trkpt lat="43.24167" lon="-0.22895">
        <ele>413.02356</ele>
        <time>2013-10-07T09:05:11Z</time>
      </trkpt>
      <trkpt lat="43.2414" lon="-0.22865">
        <ele>413.984863</ele>
        <time>2013-10-07T09:05:24Z</time>
      </trkpt>
      <trkpt lat="43.24105" lon="-0.22834">
        <ele>415.907471</ele>
        <time>2013-10-07T09:05:40Z</time>
      </trkpt>
      <trkpt lat="43.24104" lon="-0.22832">
        <ele>416.388184</ele>
        <time>2013-10-07T09:05:41Z</time>
      </trkpt>
      <trkpt lat="43.2409" lon="-0.22804">
        <ele>417.349609</ele>
        <time>2013-10-07T09:05:50Z</time>
      </trkpt>
      <trkpt lat="43.24067" lon="-0.2277">
        <ele>419.272217</ele>
        <time>2013-10-07T09:06:02Z</time>
      </trkpt>
      <trkpt lat="43.24041" lon="-0.22737">
        <ele>421.194824</ele>
        <time>2013-10-07T09:06:14Z</time>
      </trkpt>
      <trkpt lat="43.24024" lon="-0.22705">
        <ele>421.194824</ele>
        <time>2013-10-07T09:06:25Z</time>
      </trkpt>
      <trkpt lat="43.24005" lon="-0.22653">
        <ele>417.349609</ele>
        <time>2013-10-07T09:06:37Z</time>
      </trkpt>
      <trkpt lat="43.24001" lon="-0.22643">
        <ele>415.907471</ele>
        <time>2013-10-07T09:06:41Z</time>
      </trkpt>
      <trkpt lat="43.23991" lon="-0.22617">
        <ele>413.02356</ele>
        <time>2013-10-07T09:06:50Z</time>
      </trkpt>
      <trkpt lat="43.23988" lon="-0.22602">
        <ele>411.581665</ele>
        <time>2013-10-07T09:06:54Z</time>
      </trkpt>
      <trkpt lat="43.23973" lon="-0.22548">
        <ele>408.217041</ele>
        <time>2013-10-07T09:07:05Z</time>
      </trkpt>
      <trkpt lat="43.2396" lon="-0.22497">
        <ele>406.774902</ele>
        <time>2013-10-07T09:07:15Z</time>
      </trkpt>
      <trkpt lat="43.23953" lon="-0.2245">
        <ele>406.774902</ele>
        <time>2013-10-07T09:07:25Z</time>
      </trkpt>
      <trkpt lat="43.2394" lon="-0.22386">
        <ele>407.255615</ele>
        <time>2013-10-07T09:07:37Z</time>
      </trkpt>
      <trkpt lat="43.23933" lon="-0.22328">
        <ele>407.255615</ele>
        <time>2013-10-07T09:07:49Z</time>
      </trkpt>
      <trkpt lat="43.2393" lon="-0.22281">
        <ele>407.255615</ele>
        <time>2013-10-07T09:07:59Z</time>
      </trkpt>
      <trkpt lat="43.23928" lon="-0.22265">
        <ele>406.774902</ele>
        <time>2013-10-07T09:08:02Z</time>
      </trkpt>
      <trkpt lat="43.23924" lon="-0.22241">
        <ele>406.774902</ele>
        <time>2013-10-07T09:08:06Z</time>
      </trkpt>
      <trkpt lat="43.23902" lon="-0.22176">
        <ele>406.774902</ele>
        <time>2013-10-07T09:08:20Z</time>
      </trkpt>
      <trkpt lat="43.23882" lon="-0.22114">
        <ele>406.294312</ele>
        <time>2013-10-07T09:08:33Z</time>
      </trkpt>
      <trkpt lat="43.23856" lon="-0.22069">
        <ele>407.255615</ele>
        <time>2013-10-07T09:08:45Z</time>
      </trkpt>
      <trkpt lat="43.23832" lon="-0.22044">
        <ele>407.255615</ele>
        <time>2013-10-07T09:08:57Z</time>
      </trkpt>
      <trkpt lat="43.23809" lon="-0.22021">
        <ele>407.736328</ele>
        <time>2013-10-07T09:09:07Z</time>
      </trkpt>
      <trkpt lat="43.23784" lon="-0.21987">
        <ele>407.736328</ele>
        <time>2013-10-07T09:09:18Z</time>
      </trkpt>
      <trkpt lat="43.23759" lon="-0.21942">
        <ele>408.217041</ele>
        <time>2013-10-07T09:09:29Z</time>
      </trkpt>
      <trkpt lat="43.2373" lon="-0.21895">
        <ele>408.217041</ele>
        <time>2013-10-07T09:09:39Z</time>
      </trkpt>
      <trkpt lat="43.23716" lon="-0.21867">
        <ele>407.736328</ele>
        <time>2013-10-07T09:09:44Z</time>
      </trkpt>
      <trkpt lat="43.23712" lon="-0.21855">
        <ele>408.217041</ele>
        <time>2013-10-07T09:09:46Z</time>
      </trkpt>
      <trkpt lat="43.23704" lon="-0.21835">
        <ele>407.255615</ele>
        <time>2013-10-07T09:09:49Z</time>
      </trkpt>
      <trkpt lat="43.23685" lon="-0.21791">
        <ele>404.371704</ele>
        <time>2013-10-07T09:09:57Z</time>
      </trkpt>
      <trkpt lat="43.23679" lon="-0.21771">
        <ele>402.449097</ele>
        <time>2013-10-07T09:10:02Z</time>
      </trkpt>
      <trkpt lat="43.23674" lon="-0.2176">
        <ele>400.526489</ele>
        <time>2013-10-07T09:10:06Z</time>
      </trkpt>
      <trkpt lat="43.23666" lon="-0.21743">
        <ele>397.161743</ele>
        <time>2013-10-07T09:10:11Z</time>
      </trkpt>
      <trkpt lat="43.23651" lon="-0.21714">
        <ele>392.355347</ele>
        <time>2013-10-07T09:10:16Z</time>
      </trkpt>
      <trkpt lat="43.23648" lon="-0.2171">
        <ele>391.874512</ele>
        <time>2013-10-07T09:10:17Z</time>
      </trkpt>
      <trkpt lat="43.23641" lon="-0.21699">
        <ele>391.393799</ele>
        <time>2013-10-07T09:10:19Z</time>
      </trkpt>
      <trkpt lat="43.23625" lon="-0.21665">
        <ele>387.548584</ele>
        <time>2013-10-07T09:10:25Z</time>
      </trkpt>
      <trkpt lat="43.23614" lon="-0.21649">
        <ele>386.106689</ele>
        <time>2013-10-07T09:10:28Z</time>
      </trkpt>
      <trkpt lat="43.23604" lon="-0.21634">
        <ele>384.664795</ele>
        <time>2013-10-07T09:10:30Z</time>
      </trkpt>
      <trkpt lat="43.23596" lon="-0.21619">
        <ele>383.222656</ele>
        <time>2013-10-07T09:10:32Z</time>
      </trkpt>
      <trkpt lat="43.23579" lon="-0.21592">
        <ele>381.78064</ele>
        <time>2013-10-07T09:10:36Z</time>
      </trkpt>
      <trkpt lat="43.23547" lon="-0.21531">
        <ele>378.896851</ele>
        <time>2013-10-07T09:10:47Z</time>
      </trkpt>
      <trkpt lat="43.2354" lon="-0.2152">
        <ele>377.935425</ele>
        <time>2013-10-07T09:10:49Z</time>
      </trkpt>
      <trkpt lat="43.23526" lon="-0.215">
        <ele>376.974243</ele>
        <time>2013-10-07T09:10:53Z</time>
      </trkpt>
      <trkpt lat="43.23517" lon="-0.21492">
        <ele>375.532104</ele>
        <time>2013-10-07T09:10:55Z</time>
      </trkpt>
      <trkpt lat="43.23507" lon="-0.21487">
        <ele>374.570801</ele>
        <time>2013-10-07T09:10:57Z</time>
      </trkpt>
      <trkpt lat="43.2349" lon="-0.21479">
        <ele>373.609497</ele>
        <time>2013-10-07T09:11:01Z</time>
      </trkpt>
      <trkpt lat="43.23466" lon="-0.21455">
        <ele>372.16748</ele>
        <time>2013-10-07T09:11:08Z</time>
      </trkpt>
      <trkpt lat="43.23449" lon="-0.21427">
        <ele>372.16748</ele>
        <time>2013-10-07T09:11:13Z</time>
      </trkpt>
      <trkpt lat="43.23432" lon="-0.21409">
        <ele>371.68689</ele>
        <time>2013-10-07T09:11:17Z</time>
      </trkpt>
      <trkpt lat="43.23395" lon="-0.21334">
        <ele>372.16748</ele>
        <time>2013-10-07T09:11:30Z</time>
      </trkpt>
      <trkpt lat="43.23364" lon="-0.21253">
        <ele>372.16748</ele>
        <time>2013-10-07T09:11:45Z</time>
      </trkpt>
      <trkpt lat="43.23349" lon="-0.21231">
        <ele>371.68689</ele>
        <time>2013-10-07T09:11:50Z</time>
      </trkpt>
      <trkpt lat="43.23321" lon="-0.21189">
        <ele>372.16748</ele>
        <time>2013-10-07T09:12:02Z</time>
      </trkpt>
      <trkpt lat="43.23293" lon="-0.21159">
        <ele>374.570801</ele>
        <time>2013-10-07T09:12:16Z</time>
      </trkpt>
      <trkpt lat="43.23265" lon="-0.21124">
        <ele>377.454834</ele>
        <time>2013-10-07T09:12:31Z</time>
      </trkpt>
      <trkpt lat="43.23239" lon="-0.21098">
        <ele>378.416138</ele>
        <time>2013-10-07T09:12:44Z</time>
      </trkpt>
      <trkpt lat="43.23214" lon="-0.21074">
        <ele>380.338745</ele>
        <time>2013-10-07T09:12:57Z</time>
      </trkpt>
      <trkpt lat="43.23192" lon="-0.21055">
        <ele>382.742065</ele>
        <time>2013-10-07T09:13:11Z</time>
      </trkpt>
      <trkpt lat="43.2319" lon="-0.21053">
        <ele>382.742065</ele>
        <time>2013-10-07T09:13:12Z</time>
      </trkpt>
      <trkpt lat="43.23171" lon="-0.21036">
        <ele>386.106689</ele>
        <time>2013-10-07T09:13:24Z</time>
      </trkpt>
      <trkpt lat="43.23148" lon="-0.21016">
        <ele>387.067993</ele>
        <time>2013-10-07T09:13:38Z</time>
      </trkpt>
      <trkpt lat="43.23114" lon="-0.20988">
        <ele>390.432617</ele>
        <time>2013-10-07T09:13:57Z</time>
      </trkpt>
      <trkpt lat="43.23091" lon="-0.20963">
        <ele>393.797241</ele>
        <time>2013-10-07T09:14:11Z</time>
      </trkpt>
      <trkpt lat="43.23061" lon="-0.20937">
        <ele>396.200562</ele>
        <time>2013-10-07T09:14:28Z</time>
      </trkpt>
      <trkpt lat="43.23059" lon="-0.20936">
        <ele>396.200562</ele>
        <time>2013-10-07T09:14:29Z</time>
      </trkpt>
      <trkpt lat="43.23024" lon="-0.20914">
        <ele>398.123169</ele>
        <time>2013-10-07T09:14:46Z</time>
      </trkpt>
      <trkpt lat="43.22998" lon="-0.20901">
        <ele>399.084351</ele>
        <time>2013-10-07T09:14:57Z</time>
      </trkpt>
      <trkpt lat="43.22955" lon="-0.20884">
        <ele>400.526489</ele>
        <time>2013-10-07T09:15:10Z</time>
      </trkpt>
      <trkpt lat="43.2291" lon="-0.2087">
        <ele>399.084351</ele>
        <time>2013-10-07T09:15:22Z</time>
      </trkpt>
      <trkpt lat="43.22883" lon="-0.20849">
        <ele>398.123169</ele>
        <time>2013-10-07T09:15:32Z</time>
      </trkpt>
      <trkpt lat="43.22852" lon="-0.20836">
        <ele>398.60376</ele>
        <time>2013-10-07T09:15:43Z</time>
      </trkpt>
      <trkpt lat="43.22817" lon="-0.20796">
        <ele>400.045898</ele>
        <time>2013-10-07T09:15:58Z</time>
      </trkpt>
      <trkpt lat="43.22797" lon="-0.20769">
        <ele>401.968506</ele>
        <time>2013-10-07T09:16:10Z</time>
      </trkpt>
      <trkpt lat="43.2278" lon="-0.20754">
        <ele>405.333008</ele>
        <time>2013-10-07T09:16:23Z</time>
      </trkpt>
      <trkpt lat="43.22769" lon="-0.20734">
        <ele>407.255615</ele>
        <time>2013-10-07T09:16:36Z</time>
      </trkpt>
      <trkpt lat="43.22758" lon="-0.20713">
        <ele>409.659058</ele>
        <time>2013-10-07T09:16:48Z</time>
      </trkpt>
      <trkpt lat="43.22756" lon="-0.2071">
        <ele>409.659058</ele>
        <time>2013-10-07T09:16:50Z</time>
      </trkpt>
      <trkpt lat="43.22751" lon="-0.20703">
        <ele>409.659058</ele>
        <time>2013-10-07T09:16:54Z</time>
      </trkpt>
      <trkpt lat="43.22736" lon="-0.20679">
        <ele>413.504272</ele>
        <time>2013-10-07T09:17:08Z</time>
      </trkpt>
      <trkpt lat="43.2273" lon="-0.2067">
        <ele>414.465454</ele>
        <time>2013-10-07T09:17:14Z</time>
      </trkpt>
      <trkpt lat="43.22724" lon="-0.20662">
        <ele>416.388184</ele>
        <time>2013-10-07T09:17:19Z</time>
      </trkpt>
      <trkpt lat="43.22706" lon="-0.20645">
        <ele>418.310791</ele>
        <time>2013-10-07T09:17:33Z</time>
      </trkpt>
      <trkpt lat="43.22698" lon="-0.20633">
        <ele>419.752808</ele>
        <time>2013-10-07T09:17:41Z</time>
      </trkpt>
      <trkpt lat="43.22693" lon="-0.20615">
        <ele>420.233398</ele>
        <time>2013-10-07T09:17:50Z</time>
      </trkpt>
      <trkpt lat="43.22673" lon="-0.20592">
        <ele>422.636719</ele>
        <time>2013-10-07T09:18:06Z</time>
      </trkpt>
      <trkpt lat="43.22665" lon="-0.20578">
        <ele>423.598022</ele>
        <time>2013-10-07T09:18:14Z</time>
      </trkpt>
      <trkpt lat="43.22649" lon="-0.20559">
        <ele>425.040161</ele>
        <time>2013-10-07T09:18:25Z</time>
      </trkpt>
      <trkpt lat="43.22624" lon="-0.20531">
        <ele>426.482056</ele>
        <time>2013-10-07T09:18:40Z</time>
      </trkpt>
      <trkpt lat="43.22593" lon="-0.20494">
        <ele>426.001343</ele>
        <time>2013-10-07T09:18:52Z</time>
      </trkpt>
      <trkpt lat="43.2258" lon="-0.20481">
        <ele>424.078735</ele>
        <time>2013-10-07T09:18:56Z</time>
      </trkpt>
      <trkpt lat="43.2256" lon="-0.20466">
        <ele>422.156006</ele>
        <time>2013-10-07T09:19:00Z</time>
      </trkpt>
      <trkpt lat="43.22499" lon="-0.20437">
        <ele>418.791504</ele>
        <time>2013-10-07T09:19:09Z</time>
      </trkpt>
      <trkpt lat="43.22471" lon="-0.20422">
        <ele>414.946167</ele>
        <time>2013-10-07T09:19:12Z</time>
      </trkpt>
      <trkpt lat="43.22442" lon="-0.20405">
        <ele>409.659058</ele>
        <time>2013-10-07T09:19:14Z</time>
      </trkpt>
      <trkpt lat="43.22414" lon="-0.20391">
        <ele>406.774902</ele>
        <time>2013-10-07T09:19:17Z</time>
      </trkpt>
      <trkpt lat="43.22387" lon="-0.20366">
        <ele>403.4104</ele>
        <time>2013-10-07T09:19:21Z</time>
      </trkpt>
      <trkpt lat="43.22357" lon="-0.20334">
        <ele>401.00708</ele>
        <time>2013-10-07T09:19:25Z</time>
      </trkpt>
      <trkpt lat="43.22332" lon="-0.20307">
        <ele>399.084351</ele>
        <time>2013-10-07T09:19:29Z</time>
      </trkpt>
      <trkpt lat="43.22268" lon="-0.20223">
        <ele>396.681152</ele>
        <time>2013-10-07T09:19:44Z</time>
      </trkpt>
      <trkpt lat="43.22242" lon="-0.20185">
        <ele>396.681152</ele>
        <time>2013-10-07T09:19:52Z</time>
      </trkpt>
      <trkpt lat="43.222" lon="-0.2008">
        <ele>397.161743</ele>
        <time>2013-10-07T09:20:08Z</time>
      </trkpt>
      <trkpt lat="43.22168" lon="-0.19978">
        <ele>393.797241</ele>
        <time>2013-10-07T09:20:22Z</time>
      </trkpt>
      <trkpt lat="43.22131" lon="-0.19923">
        <ele>393.316528</ele>
        <time>2013-10-07T09:20:32Z</time>
      </trkpt>
      <trkpt lat="43.22115" lon="-0.19911">
        <ele>392.835938</ele>
        <time>2013-10-07T09:20:36Z</time>
      </trkpt>
      <trkpt lat="43.22104" lon="-0.19901">
        <ele>392.835938</ele>
        <time>2013-10-07T09:20:39Z</time>
      </trkpt>
      <trkpt lat="43.22047" lon="-0.19839">
        <ele>393.797241</ele>
        <time>2013-10-07T09:20:55Z</time>
      </trkpt>
      <trkpt lat="43.2201" lon="-0.19802">
        <ele>394.277954</ele>
        <time>2013-10-07T09:21:06Z</time>
      </trkpt>
      <trkpt lat="43.21959" lon="-0.19753">
        <ele>394.758545</ele>
        <time>2013-10-07T09:21:20Z</time>
      </trkpt>
      <trkpt lat="43.21894" lon="-0.19693">
        <ele>393.316528</ele>
        <time>2013-10-07T09:21:36Z</time>
      </trkpt>
      <trkpt lat="43.21844" lon="-0.19645">
        <ele>391.393799</ele>
        <time>2013-10-07T09:21:48Z</time>
      </trkpt>
      <trkpt lat="43.21812" lon="-0.1965">
        <ele>388.990601</ele>
        <time>2013-10-07T09:21:57Z</time>
      </trkpt>
      <trkpt lat="43.21802" lon="-0.19657">
        <ele>388.029297</ele>
        <time>2013-10-07T09:22:02Z</time>
      </trkpt>
      <trkpt lat="43.21795" lon="-0.19631">
        <ele>389.471191</ele>
        <time>2013-10-07T09:22:11Z</time>
      </trkpt>
      <trkpt lat="43.21791" lon="-0.19621">
        <ele>390.913208</ele>
        <time>2013-10-07T09:22:14Z</time>
      </trkpt>
      <trkpt lat="43.21783" lon="-0.19592">
        <ele>392.355347</ele>
        <time>2013-10-07T09:22:25Z</time>
      </trkpt>
      <trkpt lat="43.21767" lon="-0.19571">
        <ele>393.797241</ele>
        <time>2013-10-07T09:22:37Z</time>
      </trkpt>
      <trkpt lat="43.21755" lon="-0.19559">
        <ele>396.681152</ele>
        <time>2013-10-07T09:22:46Z</time>
      </trkpt>
      <trkpt lat="43.21738" lon="-0.1955">
        <ele>398.60376</ele>
        <time>2013-10-07T09:23:00Z</time>
      </trkpt>
      <trkpt lat="43.21729" lon="-0.19544">
        <ele>399.565063</ele>
        <time>2013-10-07T09:23:06Z</time>
      </trkpt>
      <trkpt lat="43.21696" lon="-0.19523">
        <ele>402.449097</ele>
        <time>2013-10-07T09:23:23Z</time>
      </trkpt>
      <trkpt lat="43.21679" lon="-0.19513">
        <ele>405.333008</ele>
        <time>2013-10-07T09:23:33Z</time>
      </trkpt>
      <trkpt lat="43.21656" lon="-0.19489">
        <ele>406.774902</ele>
        <time>2013-10-07T09:23:49Z</time>
      </trkpt>
      <trkpt lat="43.21638" lon="-0.1947">
        <ele>408.217041</ele>
        <time>2013-10-07T09:24:00Z</time>
      </trkpt>
      <trkpt lat="43.21618" lon="-0.19451">
        <ele>410.620239</ele>
        <time>2013-10-07T09:24:13Z</time>
      </trkpt>
      <trkpt lat="43.21613" lon="-0.19446">
        <ele>411.100952</ele>
        <time>2013-10-07T09:24:17Z</time>
      </trkpt>
      <trkpt lat="43.21611" lon="-0.19438">
        <ele>411.581665</ele>
        <time>2013-10-07T09:24:21Z</time>
      </trkpt>
      <trkpt lat="43.21594" lon="-0.19387">
        <ele>413.02356</ele>
        <time>2013-10-07T09:24:36Z</time>
      </trkpt>
      <trkpt lat="43.21583" lon="-0.19346">
        <ele>413.504272</ele>
        <time>2013-10-07T09:24:50Z</time>
      </trkpt>
      <trkpt lat="43.21574" lon="-0.19301">
        <ele>412.542847</ele>
        <time>2013-10-07T09:25:01Z</time>
      </trkpt>
      <trkpt lat="43.21569" lon="-0.19275">
        <ele>411.581665</ele>
        <time>2013-10-07T09:25:06Z</time>
      </trkpt>
      <trkpt lat="43.21558" lon="-0.19203">
        <ele>411.581665</ele>
        <time>2013-10-07T09:25:19Z</time>
      </trkpt>
      <trkpt lat="43.21545" lon="-0.19153">
        <ele>411.100952</ele>
        <time>2013-10-07T09:25:30Z</time>
      </trkpt>
      <trkpt lat="43.21526" lon="-0.19099">
        <ele>411.581665</ele>
        <time>2013-10-07T09:25:42Z</time>
      </trkpt>
      <trkpt lat="43.21502" lon="-0.19041">
        <ele>410.620239</ele>
        <time>2013-10-07T09:25:54Z</time>
      </trkpt>
      <trkpt lat="43.21485" lon="-0.19">
        <ele>410.620239</ele>
        <time>2013-10-07T09:26:04Z</time>
      </trkpt>
      <trkpt lat="43.21468" lon="-0.18966">
        <ele>409.178345</ele>
        <time>2013-10-07T09:26:13Z</time>
      </trkpt>
      <trkpt lat="43.21452" lon="-0.18931">
        <ele>408.697632</ele>
        <time>2013-10-07T09:26:23Z</time>
      </trkpt>
      <trkpt lat="43.2144" lon="-0.18924">
        <ele>408.217041</ele>
        <time>2013-10-07T09:26:30Z</time>
      </trkpt>
      <trkpt lat="43.21417" lon="-0.18899">
        <ele>409.178345</ele>
        <time>2013-10-07T09:26:40Z</time>
      </trkpt>
      <trkpt lat="43.21392" lon="-0.18871">
        <ele>410.620239</ele>
        <time>2013-10-07T09:26:51Z</time>
      </trkpt>
      <trkpt lat="43.21378" lon="-0.18852">
        <ele>413.02356</ele>
        <time>2013-10-07T09:26:59Z</time>
      </trkpt>
      <trkpt lat="43.21367" lon="-0.18839">
        <ele>416.388184</ele>
        <time>2013-10-07T09:27:07Z</time>
      </trkpt>
      <trkpt lat="43.21362" lon="-0.18833">
        <ele>417.349609</ele>
        <time>2013-10-07T09:27:11Z</time>
      </trkpt>
      <trkpt lat="43.21359" lon="-0.18828">
        <ele>418.310791</ele>
        <time>2013-10-07T09:27:14Z</time>
      </trkpt>
      <trkpt lat="43.21339" lon="-0.18801">
        <ele>419.752808</ele>
        <time>2013-10-07T09:27:30Z</time>
      </trkpt>
      <trkpt lat="43.21315" lon="-0.18767">
        <ele>419.752808</ele>
        <time>2013-10-07T09:27:43Z</time>
      </trkpt>
      <trkpt lat="43.21293" lon="-0.18731">
        <ele>420.714111</ele>
        <time>2013-10-07T09:27:55Z</time>
      </trkpt>
      <trkpt lat="43.21264" lon="-0.18682">
        <ele>420.714111</ele>
        <time>2013-10-07T09:28:07Z</time>
      </trkpt>
      <trkpt lat="43.21228" lon="-0.18633">
        <ele>421.675415</ele>
        <time>2013-10-07T09:28:20Z</time>
      </trkpt>
      <trkpt lat="43.21202" lon="-0.186">
        <ele>421.194824</ele>
        <time>2013-10-07T09:28:29Z</time>
      </trkpt>
      <trkpt lat="43.21199" lon="-0.18595">
        <ele>420.714111</ele>
        <time>2013-10-07T09:28:30Z</time>
      </trkpt>
      <trkpt lat="43.21163" lon="-0.18546">
        <ele>420.233398</ele>
        <time>2013-10-07T09:28:41Z</time>
      </trkpt>
      <trkpt lat="43.2113" lon="-0.18504">
        <ele>419.272217</ele>
        <time>2013-10-07T09:28:51Z</time>
      </trkpt>
      <trkpt lat="43.2109" lon="-0.18456">
        <ele>418.791504</ele>
        <time>2013-10-07T09:29:02Z</time>
      </trkpt>
      <trkpt lat="43.21086" lon="-0.18452">
        <ele>418.310791</ele>
        <time>2013-10-07T09:29:03Z</time>
      </trkpt>
      <trkpt lat="43.2105" lon="-0.1841">
        <ele>417.349609</ele>
        <time>2013-10-07T09:29:11Z</time>
      </trkpt>
      <trkpt lat="43.21032" lon="-0.18392">
        <ele>417.8302</ele>
        <time>2013-10-07T09:29:16Z</time>
      </trkpt>
      <trkpt lat="43.20997" lon="-0.18353">
        <ele>417.8302</ele>
        <time>2013-10-07T09:29:28Z</time>
      </trkpt>
      <trkpt lat="43.20961" lon="-0.18333">
        <ele>416.868896</ele>
        <time>2013-10-07T09:29:37Z</time>
      </trkpt>
      <trkpt lat="43.20943" lon="-0.18324">
        <ele>416.868896</ele>
        <time>2013-10-07T09:29:41Z</time>
      </trkpt>
      <trkpt lat="43.20888" lon="-0.18303">
        <ele>415.42688</ele>
        <time>2013-10-07T09:29:53Z</time>
      </trkpt>
      <trkpt lat="43.20845" lon="-0.18283">
        <ele>415.907471</ele>
        <time>2013-10-07T09:30:04Z</time>
      </trkpt>
      <trkpt lat="43.20806" lon="-0.18264">
        <ele>414.946167</ele>
        <time>2013-10-07T09:30:14Z</time>
      </trkpt>
      <trkpt lat="43.2076" lon="-0.18247">
        <ele>416.388184</ele>
        <time>2013-10-07T09:30:25Z</time>
      </trkpt>
      <trkpt lat="43.20721" lon="-0.18235">
        <ele>417.8302</ele>
        <time>2013-10-07T09:30:37Z</time>
      </trkpt>
      <trkpt lat="43.20689" lon="-0.18223">
        <ele>418.791504</ele>
        <time>2013-10-07T09:30:47Z</time>
      </trkpt>
      <trkpt lat="43.20657" lon="-0.18211">
        <ele>419.752808</ele>
        <time>2013-10-07T09:30:58Z</time>
      </trkpt>
      <trkpt lat="43.20631" lon="-0.18203">
        <ele>421.194824</ele>
        <time>2013-10-07T09:31:08Z</time>
      </trkpt>
      <trkpt lat="43.20588" lon="-0.18195">
        <ele>422.156006</ele>
        <time>2013-10-07T09:31:21Z</time>
      </trkpt>
      <trkpt lat="43.20564" lon="-0.18186">
        <ele>422.156006</ele>
        <time>2013-10-07T09:31:30Z</time>
      </trkpt>
      <trkpt lat="43.20528" lon="-0.18176">
        <ele>423.117432</ele>
        <time>2013-10-07T09:31:41Z</time>
      </trkpt>
      <trkpt lat="43.20489" lon="-0.18166">
        <ele>424.078735</ele>
        <time>2013-10-07T09:31:52Z</time>
      </trkpt>
      <trkpt lat="43.20451" lon="-0.18161">
        <ele>423.598022</ele>
        <time>2013-10-07T09:32:03Z</time>
      </trkpt>
      <trkpt lat="43.20416" lon="-0.18155">
        <ele>423.598022</ele>
        <time>2013-10-07T09:32:14Z</time>
      </trkpt>
      <trkpt lat="43.20381" lon="-0.18151">
        <ele>425.040161</ele>
        <time>2013-10-07T09:32:25Z</time>
      </trkpt>
      <trkpt lat="43.20346" lon="-0.18143">
        <ele>427.443359</ele>
        <time>2013-10-07T09:32:37Z</time>
      </trkpt>
      <trkpt lat="43.20317" lon="-0.18134">
        <ele>428.885376</ele>
        <time>2013-10-07T09:32:49Z</time>
      </trkpt>
      <trkpt lat="43.20308" lon="-0.18131">
        <ele>428.885376</ele>
        <time>2013-10-07T09:32:54Z</time>
      </trkpt>
      <trkpt lat="43.20286" lon="-0.18126">
        <ele>432.25</ele>
        <time>2013-10-07T09:33:05Z</time>
      </trkpt>
      <trkpt lat="43.20284" lon="-0.18126">
        <ele>432.25</ele>
        <time>2013-10-07T09:33:06Z</time>
      </trkpt>
      <trkpt lat="43.20277" lon="-0.18126">
        <ele>432.730713</ele>
        <time>2013-10-07T09:33:10Z</time>
      </trkpt>
      <trkpt lat="43.20268" lon="-0.18123">
        <ele>433.211304</ele>
        <time>2013-10-07T09:33:15Z</time>
      </trkpt>
      <trkpt lat="43.20251" lon="-0.18119">
        <ele>435.133911</ele>
        <time>2013-10-07T09:33:24Z</time>
      </trkpt>
      <trkpt lat="43.20222" lon="-0.18109">
        <ele>437.056519</ele>
        <time>2013-10-07T09:33:38Z</time>
      </trkpt>
      <trkpt lat="43.20195" lon="-0.18106">
        <ele>439.459717</ele>
        <time>2013-10-07T09:33:51Z</time>
      </trkpt>
      <trkpt lat="43.20166" lon="-0.18097">
        <ele>441.382446</ele>
        <time>2013-10-07T09:34:05Z</time>
      </trkpt>
      <trkpt lat="43.20152" lon="-0.18091">
        <ele>443.785767</ele>
        <time>2013-10-07T09:34:12Z</time>
      </trkpt>
      <trkpt lat="43.20128" lon="-0.1807">
        <ele>446.189087</ele>
        <time>2013-10-07T09:34:28Z</time>
      </trkpt>
      <trkpt lat="43.20118" lon="-0.18063">
        <ele>447.150269</ele>
        <time>2013-10-07T09:34:34Z</time>
      </trkpt>
      <trkpt lat="43.20092" lon="-0.1804">
        <ele>448.592407</ele>
        <time>2013-10-07T09:34:48Z</time>
      </trkpt>
      <trkpt lat="43.20062" lon="-0.18017">
        <ele>449.553711</ele>
        <time>2013-10-07T09:35:02Z</time>
      </trkpt>
      <trkpt lat="43.2005" lon="-0.18007">
        <ele>450.034424</ele>
        <time>2013-10-07T09:35:07Z</time>
      </trkpt>
      <trkpt lat="43.2003" lon="-0.17964">
        <ele>450.034424</ele>
        <time>2013-10-07T09:35:18Z</time>
      </trkpt>
      <trkpt lat="43.20008" lon="-0.17918">
        <ele>449.072998</ele>
        <time>2013-10-07T09:35:30Z</time>
      </trkpt>
      <trkpt lat="43.20001" lon="-0.17905">
        <ele>449.072998</ele>
        <time>2013-10-07T09:35:33Z</time>
      </trkpt>
      <trkpt lat="43.1997" lon="-0.17845">
        <ele>448.592407</ele>
        <time>2013-10-07T09:35:45Z</time>
      </trkpt>
      <trkpt lat="43.19961" lon="-0.17827">
        <ele>448.111816</ele>
        <time>2013-10-07T09:35:49Z</time>
      </trkpt>
      <trkpt lat="43.19938" lon="-0.17784">
        <ele>447.150269</ele>
        <time>2013-10-07T09:35:58Z</time>
      </trkpt>
      <trkpt lat="43.19892" lon="-0.17736">
        <ele>445.227661</ele>
        <time>2013-10-07T09:36:10Z</time>
      </trkpt>
      <trkpt lat="43.19888" lon="-0.17731">
        <ele>445.708374</ele>
        <time>2013-10-07T09:36:11Z</time>
      </trkpt>
      <trkpt lat="43.19861" lon="-0.17703">
        <ele>444.266479</ele>
        <time>2013-10-07T09:36:17Z</time>
      </trkpt>
      <trkpt lat="43.19845" lon="-0.17693">
        <ele>442.824463</ele>
        <time>2013-10-07T09:36:21Z</time>
      </trkpt>
      <trkpt lat="43.19797" lon="-0.17667">
        <ele>439.94043</ele>
        <time>2013-10-07T09:36:28Z</time>
      </trkpt>
      <trkpt lat="43.19778" lon="-0.17654">
        <ele>438.017822</ele>
        <time>2013-10-07T09:36:31Z</time>
      </trkpt>
      <trkpt lat="43.19757" lon="-0.17642">
        <ele>436.575928</ele>
        <time>2013-10-07T09:36:34Z</time>
      </trkpt>
      <trkpt lat="43.19749" lon="-0.17638">
        <ele>436.575928</ele>
        <time>2013-10-07T09:36:35Z</time>
      </trkpt>
      <trkpt lat="43.19737" lon="-0.17628">
        <ele>435.614502</ele>
        <time>2013-10-07T09:36:37Z</time>
      </trkpt>
      <trkpt lat="43.19695" lon="-0.17598">
        <ele>434.65332</ele>
        <time>2013-10-07T09:36:46Z</time>
      </trkpt>
      <trkpt lat="43.1968" lon="-0.17592">
        <ele>433.691895</ele>
        <time>2013-10-07T09:36:49Z</time>
      </trkpt>
      <trkpt lat="43.19649" lon="-0.17573">
        <ele>430.807983</ele>
        <time>2013-10-07T09:36:54Z</time>
      </trkpt>
      <trkpt lat="43.19576" lon="-0.17525">
        <ele>427.92395</ele>
        <time>2013-10-07T09:37:04Z</time>
      </trkpt>
      <trkpt lat="43.1957" lon="-0.17521">
        <ele>426.962769</ele>
        <time>2013-10-07T09:37:05Z</time>
      </trkpt>
      <trkpt lat="43.19531" lon="-0.17503">
        <ele>428.404663</ele>
        <time>2013-10-07T09:37:16Z</time>
      </trkpt>
      <trkpt lat="43.19519" lon="-0.17496">
        <ele>429.846558</ele>
        <time>2013-10-07T09:37:21Z</time>
      </trkpt>
      <trkpt lat="43.19495" lon="-0.17478">
        <ele>432.25</ele>
        <time>2013-10-07T09:37:32Z</time>
      </trkpt>
      <trkpt lat="43.19465" lon="-0.17466">
        <ele>434.172607</ele>
        <time>2013-10-07T09:37:43Z</time>
      </trkpt>
      <trkpt lat="43.19438" lon="-0.17449">
        <ele>433.691895</ele>
        <time>2013-10-07T09:37:53Z</time>
      </trkpt>
      <trkpt lat="43.19419" lon="-0.17433">
        <ele>434.172607</ele>
        <time>2013-10-07T09:38:01Z</time>
      </trkpt>
      <trkpt lat="43.19388" lon="-0.17403">
        <ele>435.133911</ele>
        <time>2013-10-07T09:38:13Z</time>
      </trkpt>
      <trkpt lat="43.19366" lon="-0.17383">
        <ele>437.537109</ele>
        <time>2013-10-07T09:38:22Z</time>
      </trkpt>
      <trkpt lat="43.19336" lon="-0.17356">
        <ele>438.498535</ele>
        <time>2013-10-07T09:38:33Z</time>
      </trkpt>
      <trkpt lat="43.19304" lon="-0.17329">
        <ele>439.94043</ele>
        <time>2013-10-07T09:38:45Z</time>
      </trkpt>
      <trkpt lat="43.19275" lon="-0.17303">
        <ele>441.863159</ele>
        <time>2013-10-07T09:38:57Z</time>
      </trkpt>
      <trkpt lat="43.19249" lon="-0.17282">
        <ele>443.305054</ele>
        <time>2013-10-07T09:39:08Z</time>
      </trkpt>
      <trkpt lat="43.19223" lon="-0.17255">
        <ele>445.227661</ele>
        <time>2013-10-07T09:39:18Z</time>
      </trkpt>
      <trkpt lat="43.19192" lon="-0.17234">
        <ele>446.189087</ele>
        <time>2013-10-07T09:39:29Z</time>
      </trkpt>
      <trkpt lat="43.19141" lon="-0.17212">
        <ele>447.150269</ele>
        <time>2013-10-07T09:39:46Z</time>
      </trkpt>
      <trkpt lat="43.19109" lon="-0.17191">
        <ele>447.150269</ele>
        <time>2013-10-07T09:39:59Z</time>
      </trkpt>
      <trkpt lat="43.19064" lon="-0.17174">
        <ele>447.630981</ele>
        <time>2013-10-07T09:40:13Z</time>
      </trkpt>
      <trkpt lat="43.19011" lon="-0.17149">
        <ele>448.111816</ele>
        <time>2013-10-07T09:40:29Z</time>
      </trkpt>
      <trkpt lat="43.18956" lon="-0.17141">
        <ele>449.072998</ele>
        <time>2013-10-07T09:40:45Z</time>
      </trkpt>
      <trkpt lat="43.18917" lon="-0.17127">
        <ele>452.437622</ele>
        <time>2013-10-07T09:41:00Z</time>
      </trkpt>
      <trkpt lat="43.18876" lon="-0.17109">
        <ele>453.398926</ele>
        <time>2013-10-07T09:41:16Z</time>
      </trkpt>
      <trkpt lat="43.18847" lon="-0.17102">
        <ele>454.360229</ele>
        <time>2013-10-07T09:41:31Z</time>
      </trkpt>
      <trkpt lat="43.18818" lon="-0.17087">
        <ele>456.76355</ele>
        <time>2013-10-07T09:41:49Z</time>
      </trkpt>
      <trkpt lat="43.18797" lon="-0.17073">
        <ele>459.16687</ele>
        <time>2013-10-07T09:42:02Z</time>
      </trkpt>
      <trkpt lat="43.18779" lon="-0.17063">
        <ele>462.050781</ele>
        <time>2013-10-07T09:42:15Z</time>
      </trkpt>
      <trkpt lat="43.18755" lon="-0.17041">
        <ele>464.454102</ele>
        <time>2013-10-07T09:42:31Z</time>
      </trkpt>
      <trkpt lat="43.18736" lon="-0.1702">
        <ele>467.818726</ele>
        <time>2013-10-07T09:42:45Z</time>
      </trkpt>
      <trkpt lat="43.18734" lon="-0.17018">
        <ele>467.338135</ele>
        <time>2013-10-07T09:42:46Z</time>
      </trkpt>
      <trkpt lat="43.18717" lon="-0.16996">
        <ele>468.299316</ele>
        <time>2013-10-07T09:42:58Z</time>
      </trkpt>
      <trkpt lat="43.18698" lon="-0.16972">
        <ele>468.780029</ele>
        <time>2013-10-07T09:43:09Z</time>
      </trkpt>
      <trkpt lat="43.18673" lon="-0.16941">
        <ele>469.260742</ele>
        <time>2013-10-07T09:43:22Z</time>
      </trkpt>
      <trkpt lat="43.18643" lon="-0.16907">
        <ele>470.221924</ele>
        <time>2013-10-07T09:43:35Z</time>
      </trkpt>
      <trkpt lat="43.18599" lon="-0.16851">
        <ele>471.66394</ele>
        <time>2013-10-07T09:43:52Z</time>
      </trkpt>
      <trkpt lat="43.18558" lon="-0.16798">
        <ele>472.625366</ele>
        <time>2013-10-07T09:44:08Z</time>
      </trkpt>
      <trkpt lat="43.1851" lon="-0.16745">
        <ele>472.625366</ele>
        <time>2013-10-07T09:44:26Z</time>
      </trkpt>
      <trkpt lat="43.18501" lon="-0.16734">
        <ele>473.106079</ele>
        <time>2013-10-07T09:44:29Z</time>
      </trkpt>
      <trkpt lat="43.18469" lon="-0.16698">
        <ele>472.625366</ele>
        <time>2013-10-07T09:44:38Z</time>
      </trkpt>
      <trkpt lat="43.18458" lon="-0.16687">
        <ele>471.66394</ele>
        <time>2013-10-07T09:44:41Z</time>
      </trkpt>
      <trkpt lat="43.18411" lon="-0.16642">
        <ele>471.18335</ele>
        <time>2013-10-07T09:44:55Z</time>
      </trkpt>
      <trkpt lat="43.1838" lon="-0.1661">
        <ele>470.702637</ele>
        <time>2013-10-07T09:45:08Z</time>
      </trkpt>
      <trkpt lat="43.18342" lon="-0.16575">
        <ele>472.144653</ele>
        <time>2013-10-07T09:45:22Z</time>
      </trkpt>
      <trkpt lat="43.18299" lon="-0.16536">
        <ele>472.625366</ele>
        <time>2013-10-07T09:45:38Z</time>
      </trkpt>
      <trkpt lat="43.18265" lon="-0.16518">
        <ele>473.106079</ele>
        <time>2013-10-07T09:45:50Z</time>
      </trkpt>
      <trkpt lat="43.18265" lon="-0.16516">
        <ele>472.625366</ele>
        <time>2013-10-07T09:46:02Z</time>
      </trkpt>
      <trkpt lat="43.18265" lon="-0.16519">
        <ele>472.625366</ele>
        <time>2013-10-07T09:46:21Z</time>
      </trkpt>
      <trkpt lat="43.18265" lon="-0.16519">
        <ele>473.58667</ele>
        <time>2013-10-07T09:46:46Z</time>
      </trkpt>
      <trkpt lat="43.18266" lon="-0.16517">
        <ele>473.106079</ele>
        <time>2013-10-07T09:47:06Z</time>
      </trkpt>
      <trkpt lat="43.18266" lon="-0.16515">
        <ele>472.625366</ele>
        <time>2013-10-07T09:47:54Z</time>
      </trkpt>
      <trkpt lat="43.18265" lon="-0.16516">
        <ele>472.625366</ele>
        <time>2013-10-07T09:49:42Z</time>
      </trkpt>
      <trkpt lat="43.18265" lon="-0.16519">
        <ele>472.625366</ele>
        <time>2013-10-07T09:50:22Z</time>
      </trkpt>
      <trkpt lat="43.18266" lon="-0.16519">
        <ele>473.106079</ele>
        <time>2013-10-07T09:51:17Z</time>
      </trkpt>
      <trkpt lat="43.18262" lon="-0.16518">
        <ele>473.58667</ele>
        <time>2013-10-07T09:51:41Z</time>
      </trkpt>
      <trkpt lat="43.18233" lon="-0.16498">
        <ele>475.028687</ele>
        <time>2013-10-07T09:51:53Z</time>
      </trkpt>
      <trkpt lat="43.18195" lon="-0.16473">
        <ele>476.470581</ele>
        <time>2013-10-07T09:52:07Z</time>
      </trkpt>
      <trkpt lat="43.18179" lon="-0.16467">
        <ele>476.951294</ele>
        <time>2013-10-07T09:52:13Z</time>
      </trkpt>
      <trkpt lat="43.18155" lon="-0.16449">
        <ele>477.912476</ele>
        <time>2013-10-07T09:52:20Z</time>
      </trkpt>
      <trkpt lat="43.18104" lon="-0.16392">
        <ele>481.277222</ele>
        <time>2013-10-07T09:52:39Z</time>
      </trkpt>
      <trkpt lat="43.18075" lon="-0.16364">
        <ele>481.757813</ele>
        <time>2013-10-07T09:52:50Z</time>
      </trkpt>
      <trkpt lat="43.18036" lon="-0.16327">
        <ele>481.757813</ele>
        <time>2013-10-07T09:53:04Z</time>
      </trkpt>
      <trkpt lat="43.17992" lon="-0.16289">
        <ele>483.199829</ele>
        <time>2013-10-07T09:53:16Z</time>
      </trkpt>
      <trkpt lat="43.17979" lon="-0.16276">
        <ele>482.719238</ele>
        <time>2013-10-07T09:53:20Z</time>
      </trkpt>
      <trkpt lat="43.17951" lon="-0.16248">
        <ele>482.238525</ele>
        <time>2013-10-07T09:53:28Z</time>
      </trkpt>
      <trkpt lat="43.1791" lon="-0.16213">
        <ele>483.68042</ele>
        <time>2013-10-07T09:53:40Z</time>
      </trkpt>
      <trkpt lat="43.1783" lon="-0.16152">
        <ele>485.603027</ele>
        <time>2013-10-07T09:54:01Z</time>
      </trkpt>
      <trkpt lat="43.17734" lon="-0.16072">
        <ele>487.525635</ele>
        <time>2013-10-07T09:54:26Z</time>
      </trkpt>
      <trkpt lat="43.1766" lon="-0.16006">
        <ele>484.161133</ele>
        <time>2013-10-07T09:54:43Z</time>
      </trkpt>
      <trkpt lat="43.17622" lon="-0.15975">
        <ele>481.277222</ele>
        <time>2013-10-07T09:54:50Z</time>
      </trkpt>
      <trkpt lat="43.17544" lon="-0.15923">
        <ele>479.835083</ele>
        <time>2013-10-07T09:55:04Z</time>
      </trkpt>
      <trkpt lat="43.17429" lon="-0.15872">
        <ele>480.796631</ele>
        <time>2013-10-07T09:55:25Z</time>
      </trkpt>
      <trkpt lat="43.17346" lon="-0.15803">
        <ele>477.912476</ele>
        <time>2013-10-07T09:55:41Z</time>
      </trkpt>
      <trkpt lat="43.17281" lon="-0.15684">
        <ele>475.028687</ele>
        <time>2013-10-07T09:55:57Z</time>
      </trkpt>
      <trkpt lat="43.17227" lon="-0.1554">
        <ele>475.509277</ele>
        <time>2013-10-07T09:56:16Z</time>
      </trkpt>
      <trkpt lat="43.17174" lon="-0.15413">
        <ele>475.028687</ele>
        <time>2013-10-07T09:56:36Z</time>
      </trkpt>
      <trkpt lat="43.17116" lon="-0.15339">
        <ele>472.625366</ele>
        <time>2013-10-07T09:56:50Z</time>
      </trkpt>
      <trkpt lat="43.17053" lon="-0.15257">
        <ele>469.260742</ele>
        <time>2013-10-07T09:57:03Z</time>
      </trkpt>
      <trkpt lat="43.17019" lon="-0.15224">
        <ele>467.338135</ele>
        <time>2013-10-07T09:57:08Z</time>
      </trkpt>
      <trkpt lat="43.1695" lon="-0.15182">
        <ele>466.857422</ele>
        <time>2013-10-07T09:57:20Z</time>
      </trkpt>
      <trkpt lat="43.169" lon="-0.1516">
        <ele>469.260742</ele>
        <time>2013-10-07T09:57:37Z</time>
      </trkpt>
      <trkpt lat="43.16865" lon="-0.15143">
        <ele>472.144653</ele>
        <time>2013-10-07T09:57:53Z</time>
      </trkpt>
      <trkpt lat="43.16838" lon="-0.1513">
        <ele>475.509277</ele>
        <time>2013-10-07T09:58:07Z</time>
      </trkpt>
      <trkpt lat="43.16797" lon="-0.1511">
        <ele>477.912476</ele>
        <time>2013-10-07T09:58:28Z</time>
      </trkpt>
      <trkpt lat="43.16781" lon="-0.15102">
        <ele>481.277222</ele>
        <time>2013-10-07T09:58:37Z</time>
      </trkpt>
      <trkpt lat="43.16755" lon="-0.15097">
        <ele>482.719238</ele>
        <time>2013-10-07T09:58:50Z</time>
      </trkpt>
      <trkpt lat="43.16712" lon="-0.1508">
        <ele>485.122437</ele>
        <time>2013-10-07T09:59:11Z</time>
      </trkpt>
      <trkpt lat="43.16671" lon="-0.15059">
        <ele>488.00647</ele>
        <time>2013-10-07T09:59:29Z</time>
      </trkpt>
      <trkpt lat="43.16617" lon="-0.15029">
        <ele>490.40979</ele>
        <time>2013-10-07T09:59:53Z</time>
      </trkpt>
      <trkpt lat="43.16568" lon="-0.15002">
        <ele>491.851685</ele>
        <time>2013-10-07T10:00:12Z</time>
      </trkpt>
      <trkpt lat="43.16498" lon="-0.14978">
        <ele>492.332397</ele>
        <time>2013-10-07T10:00:32Z</time>
      </trkpt>
      <trkpt lat="43.16422" lon="-0.14953">
        <ele>494.255005</ele>
        <time>2013-10-07T10:00:53Z</time>
      </trkpt>
      <trkpt lat="43.16358" lon="-0.14929">
        <ele>494.735596</ele>
        <time>2013-10-07T10:01:12Z</time>
      </trkpt>
      <trkpt lat="43.16291" lon="-0.14901">
        <ele>497.138916</ele>
        <time>2013-10-07T10:01:33Z</time>
      </trkpt>
      <trkpt lat="43.16284" lon="-0.14898">
        <ele>498.580933</ele>
        <time>2013-10-07T10:01:35Z</time>
      </trkpt>
      <trkpt lat="43.1623" lon="-0.14877">
        <ele>500.50354</ele>
        <time>2013-10-07T10:01:53Z</time>
      </trkpt>
      <trkpt lat="43.16167" lon="-0.14887">
        <ele>501.945557</ele>
        <time>2013-10-07T10:02:12Z</time>
      </trkpt>
      <trkpt lat="43.16104" lon="-0.14887">
        <ele>503.387451</ele>
        <time>2013-10-07T10:02:31Z</time>
      </trkpt>
      <trkpt lat="43.16098" lon="-0.14887">
        <ele>503.387451</ele>
        <time>2013-10-07T10:02:33Z</time>
      </trkpt>
      <trkpt lat="43.16076" lon="-0.14907">
        <ele>502.426147</ele>
        <time>2013-10-07T10:02:46Z</time>
      </trkpt>
      <trkpt lat="43.16075" lon="-0.14912">
        <ele>502.426147</ele>
        <time>2013-10-07T10:03:07Z</time>
      </trkpt>
      <trkpt lat="43.16079" lon="-0.14908">
        <ele>502.906738</ele>
        <time>2013-10-07T10:03:28Z</time>
      </trkpt>
      <trkpt lat="43.16084" lon="-0.14881">
        <ele>503.387451</ele>
        <time>2013-10-07T10:03:38Z</time>
      </trkpt>
      <trkpt lat="43.16053" lon="-0.14794">
        <ele>502.906738</ele>
        <time>2013-10-07T10:03:58Z</time>
      </trkpt>
      <trkpt lat="43.16026" lon="-0.14684">
        <ele>501.945557</ele>
        <time>2013-10-07T10:04:17Z</time>
      </trkpt>
      <trkpt lat="43.16012" lon="-0.14634">
        <ele>501.464844</ele>
        <time>2013-10-07T10:04:25Z</time>
      </trkpt>
      <trkpt lat="43.16009" lon="-0.1462">
        <ele>501.464844</ele>
        <time>2013-10-07T10:04:27Z</time>
      </trkpt>
      <trkpt lat="43.15977" lon="-0.14491">
        <ele>500.022949</ele>
        <time>2013-10-07T10:04:46Z</time>
      </trkpt>
      <trkpt lat="43.15961" lon="-0.14357">
        <ele>497.619629</ele>
        <time>2013-10-07T10:05:05Z</time>
      </trkpt>
      <trkpt lat="43.15928" lon="-0.1419">
        <ele>495.696899</ele>
        <time>2013-10-07T10:05:29Z</time>
      </trkpt>
      <trkpt lat="43.15902" lon="-0.14097">
        <ele>493.774292</ele>
        <time>2013-10-07T10:05:42Z</time>
      </trkpt>
      <trkpt lat="43.15896" lon="-0.14082">
        <ele>492.812988</ele>
        <time>2013-10-07T10:05:44Z</time>
      </trkpt>
      <trkpt lat="43.15887" lon="-0.14061">
        <ele>491.370972</ele>
        <time>2013-10-07T10:05:47Z</time>
      </trkpt>
      <trkpt lat="43.1588" lon="-0.14047">
        <ele>490.40979</ele>
        <time>2013-10-07T10:05:49Z</time>
      </trkpt>
      <trkpt lat="43.1581" lon="-0.13936">
        <ele>488.487183</ele>
        <time>2013-10-07T10:06:07Z</time>
      </trkpt>
      <trkpt lat="43.1573" lon="-0.13826">
        <ele>488.00647</ele>
        <time>2013-10-07T10:06:29Z</time>
      </trkpt>
      <trkpt lat="43.1566" lon="-0.13765">
        <ele>485.603027</ele>
        <time>2013-10-07T10:06:44Z</time>
      </trkpt>
      <trkpt lat="43.15586" lon="-0.13688">
        <ele>486.08374</ele>
        <time>2013-10-07T10:07:03Z</time>
      </trkpt>
      <trkpt lat="43.15564" lon="-0.13663">
        <ele>486.08374</ele>
        <time>2013-10-07T10:07:09Z</time>
      </trkpt>
      <trkpt lat="43.15549" lon="-0.13667">
        <ele>486.564453</ele>
        <time>2013-10-07T10:07:14Z</time>
      </trkpt>
      <trkpt lat="43.15521" lon="-0.13671">
        <ele>489.448364</ele>
        <time>2013-10-07T10:07:28Z</time>
      </trkpt>
      <trkpt lat="43.15491" lon="-0.13674">
        <ele>492.812988</ele>
        <time>2013-10-07T10:07:43Z</time>
      </trkpt>
      <trkpt lat="43.15489" lon="-0.13675">
        <ele>492.812988</ele>
        <time>2013-10-07T10:07:44Z</time>
      </trkpt>
      <trkpt lat="43.15456" lon="-0.13662">
        <ele>494.735596</ele>
        <time>2013-10-07T10:08:00Z</time>
      </trkpt>
      <trkpt lat="43.1543" lon="-0.13642">
        <ele>498.100342</ele>
        <time>2013-10-07T10:08:14Z</time>
      </trkpt>
      <trkpt lat="43.15395" lon="-0.13617">
        <ele>499.061523</ele>
        <time>2013-10-07T10:08:33Z</time>
      </trkpt>
      <trkpt lat="43.15364" lon="-0.13598">
        <ele>502.426147</ele>
        <time>2013-10-07T10:08:48Z</time>
      </trkpt>
      <trkpt lat="43.15325" lon="-0.13565">
        <ele>504.829468</ele>
        <time>2013-10-07T10:09:09Z</time>
      </trkpt>
      <trkpt lat="43.15274" lon="-0.13527">
        <ele>503.868164</ele>
        <time>2013-10-07T10:09:28Z</time>
      </trkpt>
      <trkpt lat="43.15195" lon="-0.13473">
        <ele>504.348877</ele>
        <time>2013-10-07T10:09:50Z</time>
      </trkpt>
      <trkpt lat="43.15159" lon="-0.13464">
        <ele>504.829468</ele>
        <time>2013-10-07T10:10:00Z</time>
      </trkpt>
      <trkpt lat="43.15114" lon="-0.13427">
        <ele>506.271484</ele>
        <time>2013-10-07T10:10:16Z</time>
      </trkpt>
      <trkpt lat="43.15106" lon="-0.13416">
        <ele>506.271484</ele>
        <time>2013-10-07T10:10:19Z</time>
      </trkpt>
      <trkpt lat="43.15073" lon="-0.13315">
        <ele>503.387451</ele>
        <time>2013-10-07T10:10:36Z</time>
      </trkpt>
      <trkpt lat="43.1505" lon="-0.13174">
        <ele>502.906738</ele>
        <time>2013-10-07T10:10:58Z</time>
      </trkpt>
      <trkpt lat="43.15039" lon="-0.13107">
        <ele>504.348877</ele>
        <time>2013-10-07T10:11:13Z</time>
      </trkpt>
      <trkpt lat="43.15043" lon="-0.1303">
        <ele>505.790894</ele>
        <time>2013-10-07T10:11:31Z</time>
      </trkpt>
      <trkpt lat="43.15056" lon="-0.12917">
        <ele>505.310181</ele>
        <time>2013-10-07T10:11:53Z</time>
      </trkpt>
      <trkpt lat="43.15055" lon="-0.12825">
        <ele>505.310181</ele>
        <time>2013-10-07T10:12:12Z</time>
      </trkpt>
      <trkpt lat="43.15046" lon="-0.12756">
        <ele>505.310181</ele>
        <time>2013-10-07T10:12:29Z</time>
      </trkpt>
      <trkpt lat="43.15023" lon="-0.12676">
        <ele>506.271484</ele>
        <time>2013-10-07T10:12:45Z</time>
      </trkpt>
      <trkpt lat="43.14973" lon="-0.1258">
        <ele>505.790894</ele>
        <time>2013-10-07T10:13:06Z</time>
      </trkpt>
      <trkpt lat="43.1491" lon="-0.12507">
        <ele>505.310181</ele>
        <time>2013-10-07T10:13:26Z</time>
      </trkpt>
      <trkpt lat="43.14839" lon="-0.12436">
        <ele>503.387451</ele>
        <time>2013-10-07T10:13:45Z</time>
      </trkpt>
      <trkpt lat="43.14798" lon="-0.1239">
        <ele>503.868164</ele>
        <time>2013-10-07T10:13:59Z</time>
      </trkpt>
      <trkpt lat="43.14734" lon="-0.12309">
        <ele>504.829468</ele>
        <time>2013-10-07T10:14:20Z</time>
      </trkpt>
      <trkpt lat="43.14693" lon="-0.12228">
        <ele>506.271484</ele>
        <time>2013-10-07T10:14:39Z</time>
      </trkpt>
      <trkpt lat="43.14659" lon="-0.12145">
        <ele>506.752075</ele>
        <time>2013-10-07T10:14:56Z</time>
      </trkpt>
      <trkpt lat="43.14628" lon="-0.12059">
        <ele>507.232788</ele>
        <time>2013-10-07T10:15:14Z</time>
      </trkpt>
      <trkpt lat="43.14605" lon="-0.11952">
        <ele>508.194092</ele>
        <time>2013-10-07T10:15:35Z</time>
      </trkpt>
      <trkpt lat="43.14587" lon="-0.11864">
        <ele>509.155396</ele>
        <time>2013-10-07T10:15:53Z</time>
      </trkpt>
      <trkpt lat="43.1457" lon="-0.11775">
        <ele>510.116699</ele>
        <time>2013-10-07T10:16:16Z</time>
      </trkpt>
      <trkpt lat="43.14551" lon="-0.11702">
        <ele>512.039429</ele>
        <time>2013-10-07T10:16:35Z</time>
      </trkpt>
      <trkpt lat="43.14534" lon="-0.1163">
        <ele>513.000732</ele>
        <time>2013-10-07T10:16:54Z</time>
      </trkpt>
      <trkpt lat="43.14522" lon="-0.11559">
        <ele>514.92334</ele>
        <time>2013-10-07T10:17:13Z</time>
      </trkpt>
      <trkpt lat="43.14511" lon="-0.11506">
        <ele>514.442627</ele>
        <time>2013-10-07T10:17:27Z</time>
      </trkpt>
      <trkpt lat="43.14482" lon="-0.11468">
        <ele>514.92334</ele>
        <time>2013-10-07T10:17:41Z</time>
      </trkpt>
      <trkpt lat="43.14452" lon="-0.11429">
        <ele>516.365234</ele>
        <time>2013-10-07T10:17:56Z</time>
      </trkpt>
      <trkpt lat="43.14422" lon="-0.1139">
        <ele>518.768555</ele>
        <time>2013-10-07T10:18:10Z</time>
      </trkpt>
      <trkpt lat="43.14394" lon="-0.11349">
        <ele>519.249268</ele>
        <time>2013-10-07T10:18:25Z</time>
      </trkpt>
      <trkpt lat="43.14372" lon="-0.11318">
        <ele>520.691284</ele>
        <time>2013-10-07T10:18:37Z</time>
      </trkpt>
      <trkpt lat="43.14343" lon="-0.11289">
        <ele>520.210571</ele>
        <time>2013-10-07T10:18:48Z</time>
      </trkpt>
      <trkpt lat="43.14314" lon="-0.1126">
        <ele>518.287842</ele>
        <time>2013-10-07T10:18:56Z</time>
      </trkpt>
      <trkpt lat="43.14274" lon="-0.11215">
        <ele>517.807251</ele>
        <time>2013-10-07T10:19:08Z</time>
      </trkpt>
      <trkpt lat="43.14236" lon="-0.11181">
        <ele>517.807251</ele>
        <time>2013-10-07T10:19:18Z</time>
      </trkpt>
      <trkpt lat="43.14191" lon="-0.1114">
        <ele>516.845947</ele>
        <time>2013-10-07T10:19:30Z</time>
      </trkpt>
      <trkpt lat="43.14178" lon="-0.11125">
        <ele>516.845947</ele>
        <time>2013-10-07T10:19:35Z</time>
      </trkpt>
      <trkpt lat="43.14181" lon="-0.11122">
        <ele>516.845947</ele>
        <time>2013-10-07T10:19:41Z</time>
      </trkpt>
      <trkpt lat="43.14178" lon="-0.11125">
        <ele>516.365234</ele>
        <time>2013-10-07T10:19:47Z</time>
      </trkpt>
      <trkpt lat="43.14169" lon="-0.11119">
        <ele>517.32666</ele>
        <time>2013-10-07T10:19:52Z</time>
      </trkpt>
      <trkpt lat="43.14127" lon="-0.11086">
        <ele>516.845947</ele>
        <time>2013-10-07T10:20:06Z</time>
      </trkpt>
      <trkpt lat="43.14096" lon="-0.11088">
        <ele>517.32666</ele>
        <time>2013-10-07T10:20:18Z</time>
      </trkpt>
      <trkpt lat="43.1408" lon="-0.11107">
        <ele>519.729858</ele>
        <time>2013-10-07T10:20:33Z</time>
      </trkpt>
      <trkpt lat="43.14061" lon="-0.11129">
        <ele>522.133179</ele>
        <time>2013-10-07T10:20:46Z</time>
      </trkpt>
      <trkpt lat="43.14032" lon="-0.1116">
        <ele>524.055786</ele>
        <time>2013-10-07T10:21:02Z</time>
      </trkpt>
      <trkpt lat="43.14031" lon="-0.11161">
        <ele>524.055786</ele>
        <time>2013-10-07T10:21:03Z</time>
      </trkpt>
      <trkpt lat="43.14007" lon="-0.11184">
        <ele>524.536499</ele>
        <time>2013-10-07T10:21:14Z</time>
      </trkpt>
      <trkpt lat="43.1398" lon="-0.11193">
        <ele>525.017212</ele>
        <time>2013-10-07T10:21:25Z</time>
      </trkpt>
      <trkpt lat="43.13969" lon="-0.11191">
        <ele>525.497803</ele>
        <time>2013-10-07T10:21:31Z</time>
      </trkpt>
      <trkpt lat="43.13943" lon="-0.11191">
        <ele>525.497803</ele>
        <time>2013-10-07T10:21:42Z</time>
      </trkpt>
      <trkpt lat="43.13904" lon="-0.11191">
        <ele>525.017212</ele>
        <time>2013-10-07T10:21:53Z</time>
      </trkpt>
      <trkpt lat="43.13881" lon="-0.11171">
        <ele>525.017212</ele>
        <time>2013-10-07T10:22:06Z</time>
      </trkpt>
      <trkpt lat="43.13861" lon="-0.11138">
        <ele>525.497803</ele>
        <time>2013-10-07T10:22:18Z</time>
      </trkpt>
      <trkpt lat="43.13851" lon="-0.11121">
        <ele>525.497803</ele>
        <time>2013-10-07T10:22:24Z</time>
      </trkpt>
      <trkpt lat="43.13846" lon="-0.11108">
        <ele>525.497803</ele>
        <time>2013-10-07T10:22:29Z</time>
      </trkpt>
      <trkpt lat="43.13837" lon="-0.11091">
        <ele>525.017212</ele>
        <time>2013-10-07T10:22:34Z</time>
      </trkpt>
      <trkpt lat="43.13824" lon="-0.11062">
        <ele>525.017212</ele>
        <time>2013-10-07T10:22:45Z</time>
      </trkpt>
      <trkpt lat="43.13816" lon="-0.11036">
        <ele>525.017212</ele>
        <time>2013-10-07T10:22:54Z</time>
      </trkpt>
      <trkpt lat="43.13803" lon="-0.11015">
        <ele>525.978394</ele>
        <time>2013-10-07T10:23:03Z</time>
      </trkpt>
      <trkpt lat="43.13799" lon="-0.11001">
        <ele>525.497803</ele>
        <time>2013-10-07T10:23:08Z</time>
      </trkpt>
      <trkpt lat="43.13804" lon="-0.10974">
        <ele>527.42041</ele>
        <time>2013-10-07T10:23:19Z</time>
      </trkpt>
      <trkpt lat="43.1381" lon="-0.10962">
        <ele>528.862549</ele>
        <time>2013-10-07T10:23:24Z</time>
      </trkpt>
      <trkpt lat="43.13813" lon="-0.10953">
        <ele>529.34314</ele>
        <time>2013-10-07T10:23:28Z</time>
      </trkpt>
      <trkpt lat="43.13833" lon="-0.10918">
        <ele>531.265747</ele>
        <time>2013-10-07T10:23:42Z</time>
      </trkpt>
      <trkpt lat="43.13837" lon="-0.10913">
        <ele>531.746338</ele>
        <time>2013-10-07T10:23:44Z</time>
      </trkpt>
      <trkpt lat="43.13838" lon="-0.10874">
        <ele>531.746338</ele>
        <time>2013-10-07T10:23:56Z</time>
      </trkpt>
      <trkpt lat="43.13836" lon="-0.10826">
        <ele>530.785156</ele>
        <time>2013-10-07T10:24:08Z</time>
      </trkpt>
      <trkpt lat="43.13837" lon="-0.10818">
        <ele>529.82373</ele>
        <time>2013-10-07T10:24:10Z</time>
      </trkpt>
      <trkpt lat="43.13828" lon="-0.10776">
        <ele>529.82373</ele>
        <time>2013-10-07T10:24:21Z</time>
      </trkpt>
      <trkpt lat="43.1382" lon="-0.10734">
        <ele>527.42041</ele>
        <time>2013-10-07T10:24:29Z</time>
      </trkpt>
      <trkpt lat="43.13819" lon="-0.10706">
        <ele>526.939819</ele>
        <time>2013-10-07T10:24:39Z</time>
      </trkpt>
      <trkpt lat="43.13829" lon="-0.10691">
        <ele>526.939819</ele>
        <time>2013-10-07T10:24:46Z</time>
      </trkpt>
      <trkpt lat="43.13864" lon="-0.10666">
        <ele>523.575195</ele>
        <time>2013-10-07T10:24:58Z</time>
      </trkpt>
      <trkpt lat="43.13899" lon="-0.1061">
        <ele>521.652588</ele>
        <time>2013-10-07T10:25:08Z</time>
      </trkpt>
      <trkpt lat="43.13908" lon="-0.10574">
        <ele>518.768555</ele>
        <time>2013-10-07T10:25:14Z</time>
      </trkpt>
      <trkpt lat="43.13909" lon="-0.10563">
        <ele>517.807251</ele>
        <time>2013-10-07T10:25:16Z</time>
      </trkpt>
      <trkpt lat="43.1391" lon="-0.10557">
        <ele>517.807251</ele>
        <time>2013-10-07T10:25:17Z</time>
      </trkpt>
      <trkpt lat="43.13913" lon="-0.10537">
        <ele>515.884644</ele>
        <time>2013-10-07T10:25:22Z</time>
      </trkpt>
      <trkpt lat="43.13911" lon="-0.10529">
        <ele>515.884644</ele>
        <time>2013-10-07T10:25:24Z</time>
      </trkpt>
      <trkpt lat="43.13894" lon="-0.10518">
        <ele>516.365234</ele>
        <time>2013-10-07T10:25:33Z</time>
      </trkpt>
      <trkpt lat="43.13866" lon="-0.10525">
        <ele>517.807251</ele>
        <time>2013-10-07T10:25:46Z</time>
      </trkpt>
      <trkpt lat="43.13845" lon="-0.10528">
        <ele>520.691284</ele>
        <time>2013-10-07T10:25:57Z</time>
      </trkpt>
      <trkpt lat="43.13822" lon="-0.10527">
        <ele>522.613892</ele>
        <time>2013-10-07T10:26:09Z</time>
      </trkpt>
      <trkpt lat="43.13809" lon="-0.10527">
        <ele>523.094604</ele>
        <time>2013-10-07T10:26:14Z</time>
      </trkpt>
      <trkpt lat="43.1378" lon="-0.10532">
        <ele>525.497803</ele>
        <time>2013-10-07T10:26:28Z</time>
      </trkpt>
      <trkpt lat="43.13776" lon="-0.10533">
        <ele>525.978394</ele>
        <time>2013-10-07T10:26:30Z</time>
      </trkpt>
      <trkpt lat="43.13756" lon="-0.10551">
        <ele>528.381836</ele>
        <time>2013-10-07T10:26:45Z</time>
      </trkpt>
      <trkpt lat="43.13747" lon="-0.10574">
        <ele>530.304443</ele>
        <time>2013-10-07T10:26:57Z</time>
      </trkpt>
      <trkpt lat="43.13733" lon="-0.10603">
        <ele>531.265747</ele>
        <time>2013-10-07T10:27:10Z</time>
      </trkpt>
      <trkpt lat="43.13731" lon="-0.10604">
        <ele>531.746338</ele>
        <time>2013-10-07T10:27:11Z</time>
      </trkpt>
      <trkpt lat="43.13718" lon="-0.10638">
        <ele>530.304443</ele>
        <time>2013-10-07T10:27:26Z</time>
      </trkpt>
      <trkpt lat="43.1371" lon="-0.1065">
        <ele>530.304443</ele>
        <time>2013-10-07T10:27:30Z</time>
      </trkpt>
      <trkpt lat="43.13704" lon="-0.10657">
        <ele>530.785156</ele>
        <time>2013-10-07T10:27:33Z</time>
      </trkpt>
      <trkpt lat="43.13688" lon="-0.10678">
        <ele>529.82373</ele>
        <time>2013-10-07T10:27:44Z</time>
      </trkpt>
      <trkpt lat="43.13687" lon="-0.1068">
        <ele>529.34314</ele>
        <time>2013-10-07T10:27:45Z</time>
      </trkpt>
      <trkpt lat="43.13657" lon="-0.10701">
        <ele>529.82373</ele>
        <time>2013-10-07T10:27:58Z</time>
      </trkpt>
      <trkpt lat="43.13654" lon="-0.10707">
        <ele>528.381836</ele>
        <time>2013-10-07T10:28:04Z</time>
      </trkpt>
      <trkpt lat="43.13641" lon="-0.10717">
        <ele>529.34314</ele>
        <time>2013-10-07T10:28:13Z</time>
      </trkpt>
      <trkpt lat="43.13625" lon="-0.10726">
        <ele>529.82373</ele>
        <time>2013-10-07T10:28:24Z</time>
      </trkpt>
      <trkpt lat="43.13615" lon="-0.10743">
        <ele>530.785156</ele>
        <time>2013-10-07T10:28:32Z</time>
      </trkpt>
      <trkpt lat="43.13607" lon="-0.1075">
        <ele>530.785156</ele>
        <time>2013-10-07T10:28:36Z</time>
      </trkpt>
      <trkpt lat="43.13585" lon="-0.10754">
        <ele>533.188354</ele>
        <time>2013-10-07T10:28:48Z</time>
      </trkpt>
      <trkpt lat="43.13577" lon="-0.10754">
        <ele>532.707764</ele>
        <time>2013-10-07T10:28:52Z</time>
      </trkpt>
      <trkpt lat="43.13553" lon="-0.10749">
        <ele>534.630371</ele>
        <time>2013-10-07T10:29:07Z</time>
      </trkpt>
      <trkpt lat="43.13534" lon="-0.10736">
        <ele>537.514282</ele>
        <time>2013-10-07T10:29:19Z</time>
      </trkpt>
      <trkpt lat="43.13516" lon="-0.10709">
        <ele>539.43689</ele>
        <time>2013-10-07T10:29:33Z</time>
      </trkpt>
      <trkpt lat="43.13497" lon="-0.10672">
        <ele>540.398315</ele>
        <time>2013-10-07T10:29:49Z</time>
      </trkpt>
      <trkpt lat="43.13472" lon="-0.10633">
        <ele>540.398315</ele>
        <time>2013-10-07T10:30:05Z</time>
      </trkpt>
      <trkpt lat="43.13428" lon="-0.10565">
        <ele>540.398315</ele>
        <time>2013-10-07T10:30:23Z</time>
      </trkpt>
      <trkpt lat="43.13412" lon="-0.10545">
        <ele>539.43689</ele>
        <time>2013-10-07T10:30:28Z</time>
      </trkpt>
      <trkpt lat="43.13375" lon="-0.10494">
        <ele>538.475708</ele>
        <time>2013-10-07T10:30:40Z</time>
      </trkpt>
      <trkpt lat="43.13356" lon="-0.10471">
        <ele>538.475708</ele>
        <time>2013-10-07T10:30:46Z</time>
      </trkpt>
      <trkpt lat="43.1333" lon="-0.10434">
        <ele>538.475708</ele>
        <time>2013-10-07T10:30:55Z</time>
      </trkpt>
      <trkpt lat="43.13313" lon="-0.1041">
        <ele>539.43689</ele>
        <time>2013-10-07T10:31:01Z</time>
      </trkpt>
      <trkpt lat="43.13264" lon="-0.1034">
        <ele>539.917603</ele>
        <time>2013-10-07T10:31:19Z</time>
      </trkpt>
      <trkpt lat="43.1322" lon="-0.10274">
        <ele>539.917603</ele>
        <time>2013-10-07T10:31:36Z</time>
      </trkpt>
      <trkpt lat="43.13185" lon="-0.10224">
        <ele>536.553101</ele>
        <time>2013-10-07T10:31:48Z</time>
      </trkpt>
      <trkpt lat="43.13174" lon="-0.10206">
        <ele>535.110962</ele>
        <time>2013-10-07T10:31:51Z</time>
      </trkpt>
      <trkpt lat="43.13155" lon="-0.10178">
        <ele>535.591553</ele>
        <time>2013-10-07T10:31:56Z</time>
      </trkpt>
      <trkpt lat="43.13139" lon="-0.10151">
        <ele>535.591553</ele>
        <time>2013-10-07T10:32:01Z</time>
      </trkpt>
      <trkpt lat="43.1312" lon="-0.10122">
        <ele>535.591553</ele>
        <time>2013-10-07T10:32:07Z</time>
      </trkpt>
      <trkpt lat="43.13069" lon="-0.10043">
        <ele>531.265747</ele>
        <time>2013-10-07T10:32:22Z</time>
      </trkpt>
      <trkpt lat="43.13047" lon="-0.10007">
        <ele>528.381836</ele>
        <time>2013-10-07T10:32:26Z</time>
      </trkpt>
      <trkpt lat="43.1302" lon="-0.0997">
        <ele>524.536499</ele>
        <time>2013-10-07T10:32:30Z</time>
      </trkpt>
      <trkpt lat="43.13014" lon="-0.09961">
        <ele>524.055786</ele>
        <time>2013-10-07T10:32:31Z</time>
      </trkpt>
      <trkpt lat="43.1298" lon="-0.09922">
        <ele>522.613892</ele>
        <time>2013-10-07T10:32:37Z</time>
      </trkpt>
      <trkpt lat="43.12952" lon="-0.09869">
        <ele>524.536499</ele>
        <time>2013-10-07T10:32:48Z</time>
      </trkpt>
      <trkpt lat="43.12927" lon="-0.09836">
        <ele>525.017212</ele>
        <time>2013-10-07T10:32:58Z</time>
      </trkpt>
      <trkpt lat="43.12925" lon="-0.09831">
        <ele>524.536499</ele>
        <time>2013-10-07T10:32:59Z</time>
      </trkpt>
      <trkpt lat="43.12919" lon="-0.09821">
        <ele>523.575195</ele>
        <time>2013-10-07T10:33:01Z</time>
      </trkpt>
      <trkpt lat="43.1291" lon="-0.09813">
        <ele>523.094604</ele>
        <time>2013-10-07T10:33:03Z</time>
      </trkpt>
      <trkpt lat="43.12878" lon="-0.09762">
        <ele>521.171997</ele>
        <time>2013-10-07T10:33:12Z</time>
      </trkpt>
      <trkpt lat="43.12839" lon="-0.09715">
        <ele>521.171997</ele>
        <time>2013-10-07T10:33:23Z</time>
      </trkpt>
      <trkpt lat="43.12818" lon="-0.09689">
        <ele>520.691284</ele>
        <time>2013-10-07T10:33:29Z</time>
      </trkpt>
      <trkpt lat="43.12791" lon="-0.0966">
        <ele>520.691284</ele>
        <time>2013-10-07T10:33:36Z</time>
      </trkpt>
      <trkpt lat="43.12778" lon="-0.09647">
        <ele>520.210571</ele>
        <time>2013-10-07T10:33:40Z</time>
      </trkpt>
      <trkpt lat="43.12748" lon="-0.09632">
        <ele>520.691284</ele>
        <time>2013-10-07T10:33:48Z</time>
      </trkpt>
      <trkpt lat="43.1272" lon="-0.09627">
        <ele>521.171997</ele>
        <time>2013-10-07T10:33:54Z</time>
      </trkpt>
      <trkpt lat="43.12684" lon="-0.09616">
        <ele>522.133179</ele>
        <time>2013-10-07T10:34:07Z</time>
      </trkpt>
      <trkpt lat="43.12647" lon="-0.09594">
        <ele>522.613892</ele>
        <time>2013-10-07T10:34:19Z</time>
      </trkpt>
      <trkpt lat="43.12607" lon="-0.09544">
        <ele>523.094604</ele>
        <time>2013-10-07T10:34:34Z</time>
      </trkpt>
      <trkpt lat="43.12576" lon="-0.09515">
        <ele>523.094604</ele>
        <time>2013-10-07T10:34:46Z</time>
      </trkpt>
      <trkpt lat="43.12555" lon="-0.0949">
        <ele>523.094604</ele>
        <time>2013-10-07T10:34:57Z</time>
      </trkpt>
      <trkpt lat="43.12539" lon="-0.09472">
        <ele>523.094604</ele>
        <time>2013-10-07T10:35:02Z</time>
      </trkpt>
      <trkpt lat="43.12528" lon="-0.09456">
        <ele>522.613892</ele>
        <time>2013-10-07T10:35:06Z</time>
      </trkpt>
      <trkpt lat="43.12464" lon="-0.09384">
        <ele>523.575195</ele>
        <time>2013-10-07T10:35:24Z</time>
      </trkpt>
      <trkpt lat="43.12415" lon="-0.09335">
        <ele>523.094604</ele>
        <time>2013-10-07T10:35:38Z</time>
      </trkpt>
      <trkpt lat="43.12407" lon="-0.09328">
        <ele>522.613892</ele>
        <time>2013-10-07T10:35:40Z</time>
      </trkpt>
      <trkpt lat="43.12335" lon="-0.09276">
        <ele>518.768555</ele>
        <time>2013-10-07T10:35:54Z</time>
      </trkpt>
      <trkpt lat="43.1233" lon="-0.09271">
        <ele>518.768555</ele>
        <time>2013-10-07T10:35:55Z</time>
      </trkpt>
      <trkpt lat="43.12285" lon="-0.09219">
        <ele>519.249268</ele>
        <time>2013-10-07T10:36:07Z</time>
      </trkpt>
      <trkpt lat="43.12243" lon="-0.09172">
        <ele>520.691284</ele>
        <time>2013-10-07T10:36:20Z</time>
      </trkpt>
      <trkpt lat="43.12206" lon="-0.09125">
        <ele>522.133179</ele>
        <time>2013-10-07T10:36:34Z</time>
      </trkpt>
      <trkpt lat="43.12177" lon="-0.09074">
        <ele>523.094604</ele>
        <time>2013-10-07T10:36:50Z</time>
      </trkpt>
      <trkpt lat="43.1217" lon="-0.09059">
        <ele>523.094604</ele>
        <time>2013-10-07T10:36:56Z</time>
      </trkpt>
      <trkpt lat="43.12161" lon="-0.09046">
        <ele>524.055786</ele>
        <time>2013-10-07T10:37:02Z</time>
      </trkpt>
      <trkpt lat="43.12146" lon="-0.09026">
        <ele>525.497803</ele>
        <time>2013-10-07T10:37:14Z</time>
      </trkpt>
      <trkpt lat="43.1213" lon="-0.08995">
        <ele>524.536499</ele>
        <time>2013-10-07T10:37:25Z</time>
      </trkpt>
      <trkpt lat="43.12102" lon="-0.08945">
        <ele>522.613892</ele>
        <time>2013-10-07T10:37:36Z</time>
      </trkpt>
      <trkpt lat="43.12077" lon="-0.08905">
        <ele>522.613892</ele>
        <time>2013-10-07T10:37:47Z</time>
      </trkpt>
      <trkpt lat="43.12063" lon="-0.08877">
        <ele>521.652588</ele>
        <time>2013-10-07T10:37:58Z</time>
      </trkpt>
      <trkpt lat="43.12061" lon="-0.08875">
        <ele>520.210571</ele>
        <time>2013-10-07T10:37:59Z</time>
      </trkpt>
      <trkpt lat="43.12056" lon="-0.08863">
        <ele>519.249268</ele>
        <time>2013-10-07T10:38:03Z</time>
      </trkpt>
      <trkpt lat="43.12054" lon="-0.0886">
        <ele>518.768555</ele>
        <time>2013-10-07T10:38:04Z</time>
      </trkpt>
      <trkpt lat="43.12041" lon="-0.08833">
        <ele>518.287842</ele>
        <time>2013-10-07T10:38:13Z</time>
      </trkpt>
      <trkpt lat="43.12039" lon="-0.0883">
        <ele>517.807251</ele>
        <time>2013-10-07T10:38:14Z</time>
      </trkpt>
      <trkpt lat="43.1203" lon="-0.08816">
        <ele>517.807251</ele>
        <time>2013-10-07T10:38:19Z</time>
      </trkpt>
      <trkpt lat="43.12013" lon="-0.08762">
        <ele>517.32666</ele>
        <time>2013-10-07T10:38:30Z</time>
      </trkpt>
      <trkpt lat="43.11993" lon="-0.08724">
        <ele>518.287842</ele>
        <time>2013-10-07T10:38:40Z</time>
      </trkpt>
      <trkpt lat="43.11988" lon="-0.08717">
        <ele>518.287842</ele>
        <time>2013-10-07T10:38:54Z</time>
      </trkpt>
      <trkpt lat="43.11986" lon="-0.08712">
        <ele>519.249268</ele>
        <time>2013-10-07T10:39:08Z</time>
      </trkpt>
      <trkpt lat="43.11982" lon="-0.08711">
        <ele>519.729858</ele>
        <time>2013-10-07T10:39:11Z</time>
      </trkpt>
      <trkpt lat="43.11981" lon="-0.08707">
        <ele>520.210571</ele>
        <time>2013-10-07T10:39:13Z</time>
      </trkpt>
      <trkpt lat="43.11975" lon="-0.087">
        <ele>520.691284</ele>
        <time>2013-10-07T10:39:17Z</time>
      </trkpt>
      <trkpt lat="43.1195" lon="-0.08685">
        <ele>523.575195</ele>
        <time>2013-10-07T10:39:29Z</time>
      </trkpt>
      <trkpt lat="43.11924" lon="-0.08681">
        <ele>523.575195</ele>
        <time>2013-10-07T10:39:43Z</time>
      </trkpt>
      <trkpt lat="43.11886" lon="-0.08681">
        <ele>523.094604</ele>
        <time>2013-10-07T10:39:55Z</time>
      </trkpt>
      <trkpt lat="43.1185" lon="-0.08687">
        <ele>522.613892</ele>
        <time>2013-10-07T10:40:06Z</time>
      </trkpt>
      <trkpt lat="43.11811" lon="-0.08693">
        <ele>522.613892</ele>
        <time>2013-10-07T10:40:17Z</time>
      </trkpt>
      <trkpt lat="43.11793" lon="-0.08702">
        <ele>525.497803</ele>
        <time>2013-10-07T10:40:26Z</time>
      </trkpt>
      <trkpt lat="43.11775" lon="-0.08714">
        <ele>526.459106</ele>
        <time>2013-10-07T10:40:39Z</time>
      </trkpt>
      <trkpt lat="43.11742" lon="-0.08705">
        <ele>527.42041</ele>
        <time>2013-10-07T10:40:55Z</time>
      </trkpt>
      <trkpt lat="43.11706" lon="-0.08683">
        <ele>526.939819</ele>
        <time>2013-10-07T10:41:07Z</time>
      </trkpt>
      <trkpt lat="43.11692" lon="-0.08673">
        <ele>525.978394</ele>
        <time>2013-10-07T10:41:12Z</time>
      </trkpt>
      <trkpt lat="43.11663" lon="-0.08664">
        <ele>525.497803</ele>
        <time>2013-10-07T10:41:18Z</time>
      </trkpt>
      <trkpt lat="43.11627" lon="-0.08643">
        <ele>525.017212</ele>
        <time>2013-10-07T10:41:28Z</time>
      </trkpt>
      <trkpt lat="43.11616" lon="-0.08633">
        <ele>525.497803</ele>
        <time>2013-10-07T10:41:32Z</time>
      </trkpt>
      <trkpt lat="43.11582" lon="-0.0861">
        <ele>525.978394</ele>
        <time>2013-10-07T10:41:44Z</time>
      </trkpt>
      <trkpt lat="43.1155" lon="-0.08571">
        <ele>526.939819</ele>
        <time>2013-10-07T10:41:56Z</time>
      </trkpt>
      <trkpt lat="43.11535" lon="-0.0852">
        <ele>526.939819</ele>
        <time>2013-10-07T10:42:08Z</time>
      </trkpt>
      <trkpt lat="43.11517" lon="-0.08464">
        <ele>526.459106</ele>
        <time>2013-10-07T10:42:20Z</time>
      </trkpt>
      <trkpt lat="43.11515" lon="-0.08437">
        <ele>525.497803</ele>
        <time>2013-10-07T10:42:25Z</time>
      </trkpt>
      <trkpt lat="43.11511" lon="-0.08415">
        <ele>524.536499</ele>
        <time>2013-10-07T10:42:29Z</time>
      </trkpt>
      <trkpt lat="43.11501" lon="-0.08393">
        <ele>522.613892</ele>
        <time>2013-10-07T10:42:34Z</time>
      </trkpt>
      <trkpt lat="43.11478" lon="-0.08367">
        <ele>519.249268</ele>
        <time>2013-10-07T10:42:43Z</time>
      </trkpt>
      <trkpt lat="43.11466" lon="-0.08325">
        <ele>518.287842</ele>
        <time>2013-10-07T10:42:52Z</time>
      </trkpt>
      <trkpt lat="43.11452" lon="-0.08264">
        <ele>516.365234</ele>
        <time>2013-10-07T10:43:04Z</time>
      </trkpt>
      <trkpt lat="43.11439" lon="-0.08237">
        <ele>513.481445</ele>
        <time>2013-10-07T10:43:09Z</time>
      </trkpt>
      <trkpt lat="43.11427" lon="-0.08198">
        <ele>510.59729</ele>
        <time>2013-10-07T10:43:17Z</time>
      </trkpt>
      <trkpt lat="43.11419" lon="-0.08163">
        <ele>507.713501</ele>
        <time>2013-10-07T10:43:25Z</time>
      </trkpt>
      <trkpt lat="43.11413" lon="-0.08135">
        <ele>505.790894</ele>
        <time>2013-10-07T10:43:29Z</time>
      </trkpt>
      <trkpt lat="43.11408" lon="-0.08116">
        <ele>504.829468</ele>
        <time>2013-10-07T10:43:32Z</time>
      </trkpt>
      <trkpt lat="43.11383" lon="-0.08101">
        <ele>504.348877</ele>
        <time>2013-10-07T10:43:39Z</time>
      </trkpt>
      <trkpt lat="43.11371" lon="-0.08107">
        <ele>504.348877</ele>
        <time>2013-10-07T10:43:42Z</time>
      </trkpt>
      <trkpt lat="43.11326" lon="-0.08123">
        <ele>503.868164</ele>
        <time>2013-10-07T10:43:55Z</time>
      </trkpt>
      <trkpt lat="43.11293" lon="-0.08128">
        <ele>503.387451</ele>
        <time>2013-10-07T10:44:05Z</time>
      </trkpt>
      <trkpt lat="43.11273" lon="-0.08107">
        <ele>500.50354</ele>
        <time>2013-10-07T10:44:10Z</time>
      </trkpt>
      <trkpt lat="43.11269" lon="-0.08099">
        <ele>499.542236</ele>
        <time>2013-10-07T10:44:11Z</time>
      </trkpt>
      <trkpt lat="43.1125" lon="-0.08049">
        <ele>495.216187</ele>
        <time>2013-10-07T10:44:16Z</time>
      </trkpt>
      <trkpt lat="43.11242" lon="-0.08029">
        <ele>494.735596</ele>
        <time>2013-10-07T10:44:18Z</time>
      </trkpt>
      <trkpt lat="43.11222" lon="-0.07997">
        <ele>491.851685</ele>
        <time>2013-10-07T10:44:23Z</time>
      </trkpt>
      <trkpt lat="43.11216" lon="-0.07984">
        <ele>491.370972</ele>
        <time>2013-10-07T10:44:25Z</time>
      </trkpt>
      <trkpt lat="43.11214" lon="-0.07977">
        <ele>490.890381</ele>
        <time>2013-10-07T10:44:26Z</time>
      </trkpt>
      <trkpt lat="43.11205" lon="-0.07928">
        <ele>487.045044</ele>
        <time>2013-10-07T10:44:32Z</time>
      </trkpt>
      <trkpt lat="43.11199" lon="-0.07885">
        <ele>484.161133</ele>
        <time>2013-10-07T10:44:36Z</time>
      </trkpt>
      <trkpt lat="43.11183" lon="-0.07815">
        <ele>480.796631</ele>
        <time>2013-10-07T10:44:43Z</time>
      </trkpt>
      <trkpt lat="43.11181" lon="-0.07808">
        <ele>480.796631</ele>
        <time>2013-10-07T10:44:44Z</time>
      </trkpt>
      <trkpt lat="43.11173" lon="-0.07784">
        <ele>478.393188</ele>
        <time>2013-10-07T10:44:50Z</time>
      </trkpt>
      <trkpt lat="43.11164" lon="-0.07753">
        <ele>478.393188</ele>
        <time>2013-10-07T10:44:58Z</time>
      </trkpt>
      <trkpt lat="43.11152" lon="-0.07748">
        <ele>478.873901</ele>
        <time>2013-10-07T10:45:01Z</time>
      </trkpt>
      <trkpt lat="43.11105" lon="-0.07743">
        <ele>479.354492</ele>
        <time>2013-10-07T10:45:12Z</time>
      </trkpt>
      <trkpt lat="43.11094" lon="-0.07714">
        <ele>482.238525</ele>
        <time>2013-10-07T10:45:21Z</time>
      </trkpt>
      <trkpt lat="43.11092" lon="-0.07699">
        <ele>483.199829</ele>
        <time>2013-10-07T10:45:25Z</time>
      </trkpt>
      <trkpt lat="43.11086" lon="-0.07694">
        <ele>483.68042</ele>
        <time>2013-10-07T10:45:29Z</time>
      </trkpt>
      <trkpt lat="43.11062" lon="-0.07694">
        <ele>484.641846</ele>
        <time>2013-10-07T10:45:44Z</time>
      </trkpt>
      <trkpt lat="43.11042" lon="-0.07675">
        <ele>481.277222</ele>
        <time>2013-10-07T10:45:55Z</time>
      </trkpt>
      <trkpt lat="43.11035" lon="-0.0767">
        <ele>480.315918</ele>
        <time>2013-10-07T10:46:05Z</time>
      </trkpt>
      <trkpt lat="43.11023" lon="-0.07659">
        <ele>478.393188</ele>
        <time>2013-10-07T10:46:18Z</time>
      </trkpt>
      <trkpt lat="43.1099" lon="-0.07633">
        <ele>475.028687</ele>
        <time>2013-10-07T10:46:29Z</time>
      </trkpt>
      <trkpt lat="43.10958" lon="-0.07641">
        <ele>472.625366</ele>
        <time>2013-10-07T10:46:38Z</time>
      </trkpt>
      <trkpt lat="43.10928" lon="-0.07687">
        <ele>469.741333</ele>
        <time>2013-10-07T10:46:51Z</time>
      </trkpt>
      <trkpt lat="43.10913" lon="-0.07695">
        <ele>468.780029</ele>
        <time>2013-10-07T10:46:57Z</time>
      </trkpt>
      <trkpt lat="43.109" lon="-0.07683">
        <ele>465.415527</ele>
        <time>2013-10-07T10:47:05Z</time>
      </trkpt>
      <trkpt lat="43.10893" lon="-0.07681">
        <ele>463.973389</ele>
        <time>2013-10-07T10:47:08Z</time>
      </trkpt>
      <trkpt lat="43.10854" lon="-0.07643">
        <ele>460.128174</ele>
        <time>2013-10-07T10:47:18Z</time>
      </trkpt>
      <trkpt lat="43.1084" lon="-0.0761">
        <ele>456.76355</ele>
        <time>2013-10-07T10:47:23Z</time>
      </trkpt>
      <trkpt lat="43.10839" lon="-0.0759">
        <ele>454.84082</ele>
        <time>2013-10-07T10:47:25Z</time>
      </trkpt>
      <trkpt lat="43.10827" lon="-0.07556">
        <ele>454.360229</ele>
        <time>2013-10-07T10:47:29Z</time>
      </trkpt>
      <trkpt lat="43.10798" lon="-0.07537">
        <ele>450.034424</ele>
        <time>2013-10-07T10:47:34Z</time>
      </trkpt>
      <trkpt lat="43.10789" lon="-0.07529">
        <ele>447.150269</ele>
        <time>2013-10-07T10:47:39Z</time>
      </trkpt>
      <trkpt lat="43.10787" lon="-0.07527">
        <ele>448.111816</ele>
        <time>2013-10-07T10:47:41Z</time>
      </trkpt>
      <trkpt lat="43.10769" lon="-0.0749">
        <ele>446.189087</ele>
        <time>2013-10-07T10:47:52Z</time>
      </trkpt>
      <trkpt lat="43.10745" lon="-0.0749">
        <ele>446.669678</ele>
        <time>2013-10-07T10:48:01Z</time>
      </trkpt>
      <trkpt lat="43.10718" lon="-0.07512">
        <ele>447.150269</ele>
        <time>2013-10-07T10:48:13Z</time>
      </trkpt>
      <trkpt lat="43.10713" lon="-0.07519">
        <ele>445.708374</ele>
        <time>2013-10-07T10:48:15Z</time>
      </trkpt>
      <trkpt lat="43.10704" lon="-0.07556">
        <ele>443.785767</ele>
        <time>2013-10-07T10:48:20Z</time>
      </trkpt>
      <trkpt lat="43.10691" lon="-0.07577">
        <ele>442.343872</ele>
        <time>2013-10-07T10:48:25Z</time>
      </trkpt>
      <trkpt lat="43.10671" lon="-0.07574">
        <ele>442.343872</ele>
        <time>2013-10-07T10:48:29Z</time>
      </trkpt>
      <trkpt lat="43.10644" lon="-0.07582">
        <ele>442.343872</ele>
        <time>2013-10-07T10:48:35Z</time>
      </trkpt>
      <trkpt lat="43.10617" lon="-0.07633">
        <ele>442.824463</ele>
        <time>2013-10-07T10:48:48Z</time>
      </trkpt>
      <trkpt lat="43.1062" lon="-0.07646">
        <ele>442.824463</ele>
        <time>2013-10-07T10:48:51Z</time>
      </trkpt>
      <trkpt lat="43.10634" lon="-0.07705">
        <ele>442.824463</ele>
        <time>2013-10-07T10:49:03Z</time>
      </trkpt>
      <trkpt lat="43.10638" lon="-0.07758">
        <ele>443.785767</ele>
        <time>2013-10-07T10:49:15Z</time>
      </trkpt>
      <trkpt lat="43.10617" lon="-0.07778">
        <ele>441.382446</ele>
        <time>2013-10-07T10:49:25Z</time>
      </trkpt>
      <trkpt lat="43.10595" lon="-0.07793">
        <ele>438.017822</ele>
        <time>2013-10-07T10:49:30Z</time>
      </trkpt>
      <trkpt lat="43.10592" lon="-0.07796">
        <ele>438.017822</ele>
        <time>2013-10-07T10:49:31Z</time>
      </trkpt>
      <trkpt lat="43.10584" lon="-0.07808">
        <ele>437.537109</ele>
        <time>2013-10-07T10:49:34Z</time>
      </trkpt>
      <trkpt lat="43.10582" lon="-0.07818">
        <ele>437.056519</ele>
        <time>2013-10-07T10:49:44Z</time>
      </trkpt>
      <trkpt lat="43.10578" lon="-0.0782">
        <ele>436.575928</ele>
        <time>2013-10-07T10:49:59Z</time>
      </trkpt>
      <trkpt lat="43.10579" lon="-0.07821">
        <ele>437.537109</ele>
        <time>2013-10-07T10:50:17Z</time>
      </trkpt>
      <trkpt lat="43.10587" lon="-0.07825">
        <ele>436.095215</ele>
        <time>2013-10-07T10:50:43Z</time>
      </trkpt>
      <trkpt lat="43.10597" lon="-0.07825">
        <ele>436.575928</ele>
        <time>2013-10-07T10:51:02Z</time>
      </trkpt>
      <trkpt lat="43.10609" lon="-0.07828">
        <ele>436.575928</ele>
        <time>2013-10-07T10:51:28Z</time>
      </trkpt>
      <trkpt lat="43.10607" lon="-0.07829">
        <ele>436.575928</ele>
        <time>2013-10-07T10:51:46Z</time>
      </trkpt>
      <trkpt lat="43.10605" lon="-0.07829">
        <ele>436.095215</ele>
        <time>2013-10-07T10:52:03Z</time>
      </trkpt>
      <trkpt lat="43.10593" lon="-0.07826">
        <ele>436.095215</ele>
        <time>2013-10-07T10:52:24Z</time>
      </trkpt>
      <trkpt lat="43.10587" lon="-0.07825">
        <ele>435.614502</ele>
        <time>2013-10-07T10:52:43Z</time>
      </trkpt>
      <trkpt lat="43.1059" lon="-0.07825">
        <ele>435.614502</ele>
        <time>2013-10-07T10:53:02Z</time>
      </trkpt>
      <trkpt lat="43.10571" lon="-0.07824">
        <ele>435.614502</ele>
        <time>2013-10-07T10:53:21Z</time>
      </trkpt>
      <trkpt lat="43.10568" lon="-0.07825">
        <ele>436.095215</ele>
        <time>2013-10-07T10:53:40Z</time>
      </trkpt>
      <trkpt lat="43.10574" lon="-0.07827">
        <ele>436.095215</ele>
        <time>2013-10-07T10:54:01Z</time>
      </trkpt>
      <trkpt lat="43.10577" lon="-0.07826">
        <ele>436.095215</ele>
        <time>2013-10-07T10:54:24Z</time>
      </trkpt>
      <trkpt lat="43.10581" lon="-0.07825">
        <ele>435.614502</ele>
        <time>2013-10-07T10:54:40Z</time>
      </trkpt>
      <trkpt lat="43.10574" lon="-0.07829">
        <ele>435.133911</ele>
        <time>2013-10-07T10:54:59Z</time>
      </trkpt>
      <trkpt lat="43.1058" lon="-0.07825">
        <ele>435.133911</ele>
        <time>2013-10-07T10:55:19Z</time>
      </trkpt>
      <trkpt lat="43.10582" lon="-0.07824">
        <ele>435.133911</ele>
        <time>2013-10-07T10:55:39Z</time>
      </trkpt>
      <trkpt lat="43.10579" lon="-0.07824">
        <ele>435.133911</ele>
        <time>2013-10-07T10:55:58Z</time>
      </trkpt>
      <trkpt lat="43.10577" lon="-0.07825">
        <ele>434.65332</ele>
        <time>2013-10-07T10:56:22Z</time>
      </trkpt>
      <trkpt lat="43.10577" lon="-0.07825">
        <ele>435.133911</ele>
        <time>2013-10-07T10:56:41Z</time>
      </trkpt>
      <trkpt lat="43.10575" lon="-0.07824">
        <ele>435.133911</ele>
        <time>2013-10-07T10:57:02Z</time>
      </trkpt>
      <trkpt lat="43.10568" lon="-0.07823">
        <ele>434.65332</ele>
        <time>2013-10-07T10:57:26Z</time>
      </trkpt>
      <trkpt lat="43.1057" lon="-0.07821">
        <ele>434.65332</ele>
        <time>2013-10-07T10:57:40Z</time>
      </trkpt>
      <trkpt lat="43.10571" lon="-0.07819">
        <ele>434.65332</ele>
        <time>2013-10-07T10:57:52Z</time>
      </trkpt>
      <trkpt lat="43.10572" lon="-0.07812">
        <ele>435.133911</ele>
        <time>2013-10-07T10:57:56Z</time>
      </trkpt>
      <trkpt lat="43.10599" lon="-0.07786">
        <ele>437.056519</ele>
        <time>2013-10-07T10:58:12Z</time>
      </trkpt>
      <trkpt lat="43.10601" lon="-0.07784">
        <ele>437.056519</ele>
        <time>2013-10-07T10:58:13Z</time>
      </trkpt>
      <trkpt lat="43.10623" lon="-0.07772">
        <ele>439.94043</ele>
        <time>2013-10-07T10:58:28Z</time>
      </trkpt>
      <trkpt lat="43.10632" lon="-0.0774">
        <ele>440.421265</ele>
        <time>2013-10-07T10:58:41Z</time>
      </trkpt>
      <trkpt lat="43.10619" lon="-0.07679">
        <ele>439.94043</ele>
        <time>2013-10-07T10:58:56Z</time>
      </trkpt>
      <trkpt lat="43.10613" lon="-0.07622">
        <ele>439.94043</ele>
        <time>2013-10-07T10:59:09Z</time>
      </trkpt>
      <trkpt lat="43.10633" lon="-0.07586">
        <ele>439.94043</ele>
        <time>2013-10-07T10:59:20Z</time>
      </trkpt>
      <trkpt lat="43.10674" lon="-0.07574">
        <ele>439.94043</ele>
        <time>2013-10-07T10:59:33Z</time>
      </trkpt>
      <trkpt lat="43.10696" lon="-0.07557">
        <ele>441.382446</ele>
        <time>2013-10-07T10:59:44Z</time>
      </trkpt>
      <trkpt lat="43.10704" lon="-0.07516">
        <ele>442.824463</ele>
        <time>2013-10-07T10:59:58Z</time>
      </trkpt>
      <trkpt lat="43.10721" lon="-0.07498">
        <ele>443.785767</ele>
        <time>2013-10-07T11:00:13Z</time>
      </trkpt>
      <trkpt lat="43.10756" lon="-0.0749">
        <ele>444.266479</ele>
        <time>2013-10-07T11:00:27Z</time>
      </trkpt>
      <trkpt lat="43.10773" lon="-0.07514">
        <ele>445.227661</ele>
        <time>2013-10-07T11:00:37Z</time>
      </trkpt>
      <trkpt lat="43.10777" lon="-0.07522">
        <ele>445.227661</ele>
        <time>2013-10-07T11:00:40Z</time>
      </trkpt>
      <trkpt lat="43.10797" lon="-0.07538">
        <ele>447.630981</ele>
        <time>2013-10-07T11:00:51Z</time>
      </trkpt>
      <trkpt lat="43.108" lon="-0.07541">
        <ele>447.150269</ele>
        <time>2013-10-07T11:00:54Z</time>
      </trkpt>
      <trkpt lat="43.10818" lon="-0.07563">
        <ele>450.034424</ele>
        <time>2013-10-07T11:01:07Z</time>
      </trkpt>
      <trkpt lat="43.10839" lon="-0.07603">
        <ele>452.437622</ele>
        <time>2013-10-07T11:01:23Z</time>
      </trkpt>
      <trkpt lat="43.10847" lon="-0.07632">
        <ele>455.802246</ele>
        <time>2013-10-07T11:01:36Z</time>
      </trkpt>
      <trkpt lat="43.10868" lon="-0.07658">
        <ele>458.686157</ele>
        <time>2013-10-07T11:01:53Z</time>
      </trkpt>
      <trkpt lat="43.10881" lon="-0.07675">
        <ele>460.128174</ele>
        <time>2013-10-07T11:02:08Z</time>
      </trkpt>
      <trkpt lat="43.10884" lon="-0.07681">
        <ele>462.050781</ele>
        <time>2013-10-07T11:02:14Z</time>
      </trkpt>
      <trkpt lat="43.1089" lon="-0.07683">
        <ele>463.012085</ele>
        <time>2013-10-07T11:02:27Z</time>
      </trkpt>
      <trkpt lat="43.109" lon="-0.07692">
        <ele>465.415527</ele>
        <time>2013-10-07T11:02:41Z</time>
      </trkpt>
      <trkpt lat="43.10911" lon="-0.07692">
        <ele>466.376709</ele>
        <time>2013-10-07T11:02:58Z</time>
      </trkpt>
      <trkpt lat="43.10922" lon="-0.07686">
        <ele>467.818726</ele>
        <time>2013-10-07T11:03:13Z</time>
      </trkpt>
      <trkpt lat="43.10927" lon="-0.07679">
        <ele>469.260742</ele>
        <time>2013-10-07T11:03:21Z</time>
      </trkpt>
      <trkpt lat="43.1093" lon="-0.07674">
        <ele>469.260742</ele>
        <time>2013-10-07T11:03:26Z</time>
      </trkpt>
      <trkpt lat="43.1095" lon="-0.07643">
        <ele>470.221924</ele>
        <time>2013-10-07T11:03:44Z</time>
      </trkpt>
      <trkpt lat="43.10964" lon="-0.07635">
        <ele>472.144653</ele>
        <time>2013-10-07T11:03:57Z</time>
      </trkpt>
      <trkpt lat="43.10972" lon="-0.07636">
        <ele>472.144653</ele>
        <time>2013-10-07T11:04:01Z</time>
      </trkpt>
      <trkpt lat="43.10989" lon="-0.07646">
        <ele>474.067261</ele>
        <time>2013-10-07T11:04:12Z</time>
      </trkpt>
      <trkpt lat="43.11013" lon="-0.07663">
        <ele>475.989868</ele>
        <time>2013-10-07T11:04:28Z</time>
      </trkpt>
      <trkpt lat="43.11027" lon="-0.07667">
        <ele>477.912476</ele>
        <time>2013-10-07T11:04:41Z</time>
      </trkpt>
      <trkpt lat="43.1104" lon="-0.07677">
        <ele>480.315918</ele>
        <time>2013-10-07T11:04:58Z</time>
      </trkpt>
      <trkpt lat="43.11054" lon="-0.07689">
        <ele>482.238525</ele>
        <time>2013-10-07T11:05:14Z</time>
      </trkpt>
      <trkpt lat="43.11063" lon="-0.07694">
        <ele>483.68042</ele>
        <time>2013-10-07T11:05:28Z</time>
      </trkpt>
      <trkpt lat="43.11086" lon="-0.07693">
        <ele>481.277222</ele>
        <time>2013-10-07T11:05:40Z</time>
      </trkpt>
      <trkpt lat="43.11089" lon="-0.07698">
        <ele>480.315918</ele>
        <time>2013-10-07T11:05:42Z</time>
      </trkpt>
      <trkpt lat="43.11092" lon="-0.0772">
        <ele>479.835083</ele>
        <time>2013-10-07T11:05:46Z</time>
      </trkpt>
      <trkpt lat="43.11118" lon="-0.07742">
        <ele>476.951294</ele>
        <time>2013-10-07T11:05:52Z</time>
      </trkpt>
      <trkpt lat="43.11149" lon="-0.07744">
        <ele>476.470581</ele>
        <time>2013-10-07T11:05:57Z</time>
      </trkpt>
      <trkpt lat="43.11173" lon="-0.07758">
        <ele>476.951294</ele>
        <time>2013-10-07T11:06:03Z</time>
      </trkpt>
      <trkpt lat="43.11182" lon="-0.07794">
        <ele>477.912476</ele>
        <time>2013-10-07T11:06:12Z</time>
      </trkpt>
      <trkpt lat="43.11184" lon="-0.07799">
        <ele>477.912476</ele>
        <time>2013-10-07T11:06:14Z</time>
      </trkpt>
      <trkpt lat="43.11186" lon="-0.07811">
        <ele>478.873901</ele>
        <time>2013-10-07T11:06:18Z</time>
      </trkpt>
      <trkpt lat="43.11201" lon="-0.07857">
        <ele>479.835083</ele>
        <time>2013-10-07T11:06:33Z</time>
      </trkpt>
      <trkpt lat="43.1121" lon="-0.07886">
        <ele>480.796631</ele>
        <time>2013-10-07T11:06:43Z</time>
      </trkpt>
      <trkpt lat="43.11223" lon="-0.07915">
        <ele>483.68042</ele>
        <time>2013-10-07T11:06:56Z</time>
      </trkpt>
      <trkpt lat="43.11224" lon="-0.07925">
        <ele>484.641846</ele>
        <time>2013-10-07T11:07:01Z</time>
      </trkpt>
      <trkpt lat="43.11228" lon="-0.07952">
        <ele>487.045044</ele>
        <time>2013-10-07T11:07:14Z</time>
      </trkpt>
      <trkpt lat="43.11234" lon="-0.0798">
        <ele>488.487183</ele>
        <time>2013-10-07T11:07:26Z</time>
      </trkpt>
      <trkpt lat="43.11239" lon="-0.08007">
        <ele>489.448364</ele>
        <time>2013-10-07T11:07:40Z</time>
      </trkpt>
      <trkpt lat="43.11245" lon="-0.08017">
        <ele>489.448364</ele>
        <time>2013-10-07T11:07:45Z</time>
      </trkpt>
      <trkpt lat="43.11259" lon="-0.08049">
        <ele>490.40979</ele>
        <time>2013-10-07T11:08:00Z</time>
      </trkpt>
      <trkpt lat="43.11266" lon="-0.08078">
        <ele>493.774292</ele>
        <time>2013-10-07T11:08:13Z</time>
      </trkpt>
      <trkpt lat="43.11267" lon="-0.0808">
        <ele>493.293579</ele>
        <time>2013-10-07T11:08:14Z</time>
      </trkpt>
      <trkpt lat="43.11275" lon="-0.08095">
        <ele>495.216187</ele>
        <time>2013-10-07T11:08:22Z</time>
      </trkpt>
      <trkpt lat="43.11278" lon="-0.08101">
        <ele>496.658325</ele>
        <time>2013-10-07T11:08:26Z</time>
      </trkpt>
      <trkpt lat="43.11298" lon="-0.08124">
        <ele>500.50354</ele>
        <time>2013-10-07T11:08:46Z</time>
      </trkpt>
      <trkpt lat="43.11318" lon="-0.08124">
        <ele>500.022949</ele>
        <time>2013-10-07T11:09:00Z</time>
      </trkpt>
      <trkpt lat="43.11357" lon="-0.08106">
        <ele>500.984131</ele>
        <time>2013-10-07T11:09:17Z</time>
      </trkpt>
      <trkpt lat="43.11392" lon="-0.08093">
        <ele>501.464844</ele>
        <time>2013-10-07T11:09:29Z</time>
      </trkpt>
      <trkpt lat="43.11413" lon="-0.08125">
        <ele>501.945557</ele>
        <time>2013-10-07T11:09:42Z</time>
      </trkpt>
      <trkpt lat="43.11414" lon="-0.08132">
        <ele>502.906738</ele>
        <time>2013-10-07T11:09:45Z</time>
      </trkpt>
      <trkpt lat="43.11422" lon="-0.08169">
        <ele>505.310181</ele>
        <time>2013-10-07T11:09:59Z</time>
      </trkpt>
      <trkpt lat="43.11427" lon="-0.08191">
        <ele>507.713501</ele>
        <time>2013-10-07T11:10:12Z</time>
      </trkpt>
      <trkpt lat="43.11434" lon="-0.0822">
        <ele>509.636108</ele>
        <time>2013-10-07T11:10:28Z</time>
      </trkpt>
      <trkpt lat="43.11436" lon="-0.08228">
        <ele>510.116699</ele>
        <time>2013-10-07T11:10:33Z</time>
      </trkpt>
      <trkpt lat="43.11446" lon="-0.0825">
        <ele>512.039429</ele>
        <time>2013-10-07T11:10:46Z</time>
      </trkpt>
      <trkpt lat="43.1145" lon="-0.08259">
        <ele>512.039429</ele>
        <time>2013-10-07T11:10:51Z</time>
      </trkpt>
      <trkpt lat="43.11455" lon="-0.08292">
        <ele>514.442627</ele>
        <time>2013-10-07T11:11:05Z</time>
      </trkpt>
      <trkpt lat="43.11459" lon="-0.0832">
        <ele>514.92334</ele>
        <time>2013-10-07T11:11:15Z</time>
      </trkpt>
      <trkpt lat="43.11465" lon="-0.08335">
        <ele>514.92334</ele>
        <time>2013-10-07T11:11:21Z</time>
      </trkpt>
      <trkpt lat="43.1148" lon="-0.08361">
        <ele>516.365234</ele>
        <time>2013-10-07T11:11:34Z</time>
      </trkpt>
      <trkpt lat="43.11493" lon="-0.08382">
        <ele>517.807251</ele>
        <time>2013-10-07T11:11:49Z</time>
      </trkpt>
      <trkpt lat="43.11508" lon="-0.0841">
        <ele>520.691284</ele>
        <time>2013-10-07T11:12:06Z</time>
      </trkpt>
      <trkpt lat="43.11512" lon="-0.08418">
        <ele>522.133179</ele>
        <time>2013-10-07T11:12:10Z</time>
      </trkpt>
      <trkpt lat="43.11516" lon="-0.08449">
        <ele>522.133179</ele>
        <time>2013-10-07T11:12:24Z</time>
      </trkpt>
      <trkpt lat="43.11522" lon="-0.08491">
        <ele>523.575195</ele>
        <time>2013-10-07T11:12:39Z</time>
      </trkpt>
      <trkpt lat="43.11534" lon="-0.08524">
        <ele>524.055786</ele>
        <time>2013-10-07T11:12:51Z</time>
      </trkpt>
      <trkpt lat="43.11547" lon="-0.08567">
        <ele>523.575195</ele>
        <time>2013-10-07T11:13:04Z</time>
      </trkpt>
      <trkpt lat="43.11563" lon="-0.08598">
        <ele>523.094604</ele>
        <time>2013-10-07T11:13:15Z</time>
      </trkpt>
      <trkpt lat="43.11585" lon="-0.08616">
        <ele>523.575195</ele>
        <time>2013-10-07T11:13:28Z</time>
      </trkpt>
      <trkpt lat="43.11621" lon="-0.08639">
        <ele>521.652588</ele>
        <time>2013-10-07T11:13:40Z</time>
      </trkpt>
      <trkpt lat="43.11654" lon="-0.0866">
        <ele>522.133179</ele>
        <time>2013-10-07T11:13:51Z</time>
      </trkpt>
      <trkpt lat="43.11686" lon="-0.08672">
        <ele>522.613892</ele>
        <time>2013-10-07T11:14:02Z</time>
      </trkpt>
      <trkpt lat="43.11706" lon="-0.08687">
        <ele>523.094604</ele>
        <time>2013-10-07T11:14:13Z</time>
      </trkpt>
      <trkpt lat="43.1173" lon="-0.08706">
        <ele>524.055786</ele>
        <time>2013-10-07T11:14:26Z</time>
      </trkpt>
      <trkpt lat="43.11775" lon="-0.087">
        <ele>522.613892</ele>
        <time>2013-10-07T11:14:37Z</time>
      </trkpt>
      <trkpt lat="43.118" lon="-0.0869">
        <ele>520.691284</ele>
        <time>2013-10-07T11:14:44Z</time>
      </trkpt>
      <trkpt lat="43.11836" lon="-0.08685">
        <ele>520.210571</ele>
        <time>2013-10-07T11:14:52Z</time>
      </trkpt>
      <trkpt lat="43.1188" lon="-0.0868">
        <ele>521.652588</ele>
        <time>2013-10-07T11:15:06Z</time>
      </trkpt>
      <trkpt lat="43.11919" lon="-0.08679">
        <ele>522.133179</ele>
        <time>2013-10-07T11:15:18Z</time>
      </trkpt>
      <trkpt lat="43.11944" lon="-0.08687">
        <ele>520.210571</ele>
        <time>2013-10-07T11:15:28Z</time>
      </trkpt>
      <trkpt lat="43.11963" lon="-0.08707">
        <ele>516.845947</ele>
        <time>2013-10-07T11:15:35Z</time>
      </trkpt>
      <trkpt lat="43.11966" lon="-0.08709">
        <ele>516.845947</ele>
        <time>2013-10-07T11:15:36Z</time>
      </trkpt>
      <trkpt lat="43.11969" lon="-0.08712">
        <ele>516.365234</ele>
        <time>2013-10-07T11:15:37Z</time>
      </trkpt>
      <trkpt lat="43.1198" lon="-0.08719">
        <ele>515.404053</ele>
        <time>2013-10-07T11:15:39Z</time>
      </trkpt>
      <trkpt lat="43.12" lon="-0.08744">
        <ele>514.442627</ele>
        <time>2013-10-07T11:15:44Z</time>
      </trkpt>
      <trkpt lat="43.12031" lon="-0.0879">
        <ele>515.884644</ele>
        <time>2013-10-07T11:15:56Z</time>
      </trkpt>
      <trkpt lat="43.12043" lon="-0.08822">
        <ele>515.404053</ele>
        <time>2013-10-07T11:16:05Z</time>
      </trkpt>
      <trkpt lat="43.12062" lon="-0.08852">
        <ele>515.884644</ele>
        <time>2013-10-07T11:16:18Z</time>
      </trkpt>
      <trkpt lat="43.12074" lon="-0.08878">
        <ele>518.768555</ele>
        <time>2013-10-07T11:16:33Z</time>
      </trkpt>
      <trkpt lat="43.12078" lon="-0.089">
        <ele>520.210571</ele>
        <time>2013-10-07T11:16:44Z</time>
      </trkpt>
      <trkpt lat="43.12081" lon="-0.08917">
        <ele>519.729858</ele>
        <time>2013-10-07T11:16:52Z</time>
      </trkpt>
      <trkpt lat="43.12091" lon="-0.08932">
        <ele>520.210571</ele>
        <time>2013-10-07T11:16:59Z</time>
      </trkpt>
      <trkpt lat="43.121" lon="-0.08942">
        <ele>520.210571</ele>
        <time>2013-10-07T11:17:04Z</time>
      </trkpt>
      <trkpt lat="43.12102" lon="-0.08948">
        <ele>520.210571</ele>
        <time>2013-10-07T11:17:06Z</time>
      </trkpt>
      <trkpt lat="43.12107" lon="-0.08958">
        <ele>520.691284</ele>
        <time>2013-10-07T11:17:10Z</time>
      </trkpt>
      <trkpt lat="43.1213" lon="-0.08993">
        <ele>521.652588</ele>
        <time>2013-10-07T11:17:23Z</time>
      </trkpt>
      <trkpt lat="43.12138" lon="-0.09011">
        <ele>521.652588</ele>
        <time>2013-10-07T11:17:31Z</time>
      </trkpt>
      <trkpt lat="43.12147" lon="-0.0902">
        <ele>521.171997</ele>
        <time>2013-10-07T11:17:36Z</time>
      </trkpt>
      <trkpt lat="43.12164" lon="-0.09048">
        <ele>520.691284</ele>
        <time>2013-10-07T11:17:47Z</time>
      </trkpt>
      <trkpt lat="43.12189" lon="-0.09096">
        <ele>520.210571</ele>
        <time>2013-10-07T11:17:59Z</time>
      </trkpt>
      <trkpt lat="43.12232" lon="-0.09156">
        <ele>518.287842</ele>
        <time>2013-10-07T11:18:15Z</time>
      </trkpt>
      <trkpt lat="43.12276" lon="-0.09204">
        <ele>517.807251</ele>
        <time>2013-10-07T11:18:28Z</time>
      </trkpt>
      <trkpt lat="43.12279" lon="-0.09208">
        <ele>517.32666</ele>
        <time>2013-10-07T11:18:29Z</time>
      </trkpt>
      <trkpt lat="43.12335" lon="-0.09268">
        <ele>515.404053</ele>
        <time>2013-10-07T11:18:43Z</time>
      </trkpt>
      <trkpt lat="43.12377" lon="-0.093">
        <ele>517.32666</ele>
        <time>2013-10-07T11:18:57Z</time>
      </trkpt>
      <trkpt lat="43.12398" lon="-0.09323">
        <ele>519.249268</ele>
        <time>2013-10-07T11:19:08Z</time>
      </trkpt>
      <trkpt lat="43.12433" lon="-0.09352">
        <ele>520.691284</ele>
        <time>2013-10-07T11:19:21Z</time>
      </trkpt>
      <trkpt lat="43.1247" lon="-0.09394">
        <ele>519.729858</ele>
        <time>2013-10-07T11:19:34Z</time>
      </trkpt>
      <trkpt lat="43.1251" lon="-0.09435">
        <ele>519.249268</ele>
        <time>2013-10-07T11:19:46Z</time>
      </trkpt>
      <trkpt lat="43.12554" lon="-0.09488">
        <ele>520.210571</ele>
        <time>2013-10-07T11:20:03Z</time>
      </trkpt>
      <trkpt lat="43.1259" lon="-0.09531">
        <ele>520.210571</ele>
        <time>2013-10-07T11:20:16Z</time>
      </trkpt>
      <trkpt lat="43.12647" lon="-0.09597">
        <ele>519.729858</ele>
        <time>2013-10-07T11:20:33Z</time>
      </trkpt>
      <trkpt lat="43.12659" lon="-0.09606">
        <ele>519.249268</ele>
        <time>2013-10-07T11:20:36Z</time>
      </trkpt>
      <trkpt lat="43.12689" lon="-0.09619">
        <ele>518.768555</ele>
        <time>2013-10-07T11:20:43Z</time>
      </trkpt>
      <trkpt lat="43.12747" lon="-0.09634">
        <ele>516.845947</ele>
        <time>2013-10-07T11:20:56Z</time>
      </trkpt>
      <trkpt lat="43.12794" lon="-0.09666">
        <ele>516.845947</ele>
        <time>2013-10-07T11:21:09Z</time>
      </trkpt>
      <trkpt lat="43.12837" lon="-0.09715">
        <ele>516.845947</ele>
        <time>2013-10-07T11:21:23Z</time>
      </trkpt>
      <trkpt lat="43.12877" lon="-0.09766">
        <ele>517.32666</ele>
        <time>2013-10-07T11:21:36Z</time>
      </trkpt>
      <trkpt lat="43.12903" lon="-0.09801">
        <ele>518.768555</ele>
        <time>2013-10-07T11:21:48Z</time>
      </trkpt>
      <trkpt lat="43.12932" lon="-0.09836">
        <ele>520.210571</ele>
        <time>2013-10-07T11:22:03Z</time>
      </trkpt>
      <trkpt lat="43.1295" lon="-0.09868">
        <ele>520.210571</ele>
        <time>2013-10-07T11:22:17Z</time>
      </trkpt>
      <trkpt lat="43.12983" lon="-0.09914">
        <ele>518.768555</ele>
        <time>2013-10-07T11:22:28Z</time>
      </trkpt>
      <trkpt lat="43.12999" lon="-0.0995">
        <ele>518.287842</ele>
        <time>2013-10-07T11:22:39Z</time>
      </trkpt>
      <trkpt lat="43.13029" lon="-0.09982">
        <ele>518.768555</ele>
        <time>2013-10-07T11:22:51Z</time>
      </trkpt>
      <trkpt lat="43.13045" lon="-0.1001">
        <ele>520.210571</ele>
        <time>2013-10-07T11:23:03Z</time>
      </trkpt>
      <trkpt lat="43.13053" lon="-0.10028">
        <ele>523.094604</ele>
        <time>2013-10-07T11:23:13Z</time>
      </trkpt>
      <trkpt lat="43.13056" lon="-0.10033">
        <ele>523.575195</ele>
        <time>2013-10-07T11:23:16Z</time>
      </trkpt>
      <trkpt lat="43.13074" lon="-0.10053">
        <ele>525.978394</ele>
        <time>2013-10-07T11:23:31Z</time>
      </trkpt>
      <trkpt lat="43.13088" lon="-0.10082">
        <ele>528.862549</ele>
        <time>2013-10-07T11:23:48Z</time>
      </trkpt>
      <trkpt lat="43.13115" lon="-0.10116">
        <ele>531.265747</ele>
        <time>2013-10-07T11:24:06Z</time>
      </trkpt>
      <trkpt lat="43.13145" lon="-0.10166">
        <ele>532.227051</ele>
        <time>2013-10-07T11:24:22Z</time>
      </trkpt>
      <trkpt lat="43.13177" lon="-0.10211">
        <ele>532.707764</ele>
        <time>2013-10-07T11:24:37Z</time>
      </trkpt>
      <trkpt lat="43.13194" lon="-0.10239">
        <ele>534.630371</ele>
        <time>2013-10-07T11:24:48Z</time>
      </trkpt>
      <trkpt lat="43.13214" lon="-0.10267">
        <ele>535.110962</ele>
        <time>2013-10-07T11:25:01Z</time>
      </trkpt>
      <trkpt lat="43.13244" lon="-0.10308">
        <ele>537.033691</ele>
        <time>2013-10-07T11:25:18Z</time>
      </trkpt>
      <trkpt lat="43.13283" lon="-0.10365">
        <ele>536.072388</ele>
        <time>2013-10-07T11:25:35Z</time>
      </trkpt>
      <trkpt lat="43.13331" lon="-0.10434">
        <ele>535.110962</ele>
        <time>2013-10-07T11:25:52Z</time>
      </trkpt>
      <trkpt lat="43.13376" lon="-0.10492">
        <ele>535.591553</ele>
        <time>2013-10-07T11:26:07Z</time>
      </trkpt>
      <trkpt lat="43.13414" lon="-0.10544">
        <ele>535.591553</ele>
        <time>2013-10-07T11:26:22Z</time>
      </trkpt>
      <trkpt lat="43.13464" lon="-0.10612">
        <ele>536.072388</ele>
        <time>2013-10-07T11:26:43Z</time>
      </trkpt>
      <trkpt lat="43.13502" lon="-0.10669">
        <ele>535.591553</ele>
        <time>2013-10-07T11:26:58Z</time>
      </trkpt>
      <trkpt lat="43.13528" lon="-0.10724">
        <ele>535.110962</ele>
        <time>2013-10-07T11:27:10Z</time>
      </trkpt>
      <trkpt lat="43.13538" lon="-0.10735">
        <ele>533.668945</ele>
        <time>2013-10-07T11:27:13Z</time>
      </trkpt>
      <trkpt lat="43.13552" lon="-0.10745">
        <ele>532.227051</ele>
        <time>2013-10-07T11:27:17Z</time>
      </trkpt>
      <trkpt lat="43.13573" lon="-0.10751">
        <ele>528.862549</ele>
        <time>2013-10-07T11:27:22Z</time>
      </trkpt>
      <trkpt lat="43.13601" lon="-0.10752">
        <ele>526.459106</ele>
        <time>2013-10-07T11:27:33Z</time>
      </trkpt>
      <trkpt lat="43.13618" lon="-0.10728">
        <ele>525.017212</ele>
        <time>2013-10-07T11:27:40Z</time>
      </trkpt>
      <trkpt lat="43.1364" lon="-0.10719">
        <ele>524.055786</ele>
        <time>2013-10-07T11:27:51Z</time>
      </trkpt>
      <trkpt lat="43.13664" lon="-0.10697">
        <ele>524.536499</ele>
        <time>2013-10-07T11:28:04Z</time>
      </trkpt>
      <trkpt lat="43.13694" lon="-0.10671">
        <ele>525.497803</ele>
        <time>2013-10-07T11:28:17Z</time>
      </trkpt>
      <trkpt lat="43.13714" lon="-0.10646">
        <ele>525.017212</ele>
        <time>2013-10-07T11:28:28Z</time>
      </trkpt>
      <trkpt lat="43.13712" lon="-0.10638">
        <ele>525.978394</ele>
        <time>2013-10-07T11:28:36Z</time>
      </trkpt>
      <trkpt lat="43.13718" lon="-0.10622">
        <ele>526.939819</ele>
        <time>2013-10-07T11:28:42Z</time>
      </trkpt>
      <trkpt lat="43.1373" lon="-0.10608">
        <ele>526.939819</ele>
        <time>2013-10-07T11:28:52Z</time>
      </trkpt>
      <trkpt lat="43.13733" lon="-0.10605">
        <ele>526.459106</ele>
        <time>2013-10-07T11:28:55Z</time>
      </trkpt>
      <trkpt lat="43.13748" lon="-0.10568">
        <ele>525.017212</ele>
        <time>2013-10-07T11:29:06Z</time>
      </trkpt>
      <trkpt lat="43.13759" lon="-0.1055">
        <ele>524.055786</ele>
        <time>2013-10-07T11:29:10Z</time>
      </trkpt>
      <trkpt lat="43.13767" lon="-0.1054">
        <ele>523.094604</ele>
        <time>2013-10-07T11:29:12Z</time>
      </trkpt>
      <trkpt lat="43.13787" lon="-0.1053">
        <ele>521.171997</ele>
        <time>2013-10-07T11:29:16Z</time>
      </trkpt>
      <trkpt lat="43.13798" lon="-0.10528">
        <ele>520.210571</ele>
        <time>2013-10-07T11:29:18Z</time>
      </trkpt>
      <trkpt lat="43.13807" lon="-0.10527">
        <ele>518.287842</ele>
        <time>2013-10-07T11:29:20Z</time>
      </trkpt>
      <trkpt lat="43.13822" lon="-0.10528">
        <ele>516.845947</ele>
        <time>2013-10-07T11:29:24Z</time>
      </trkpt>
      <trkpt lat="43.13842" lon="-0.10527">
        <ele>515.884644</ele>
        <time>2013-10-07T11:29:28Z</time>
      </trkpt>
      <trkpt lat="43.13873" lon="-0.10516">
        <ele>513.481445</ele>
        <time>2013-10-07T11:29:34Z</time>
      </trkpt>
      <trkpt lat="43.13906" lon="-0.10529">
        <ele>513.000732</ele>
        <time>2013-10-07T11:29:45Z</time>
      </trkpt>
      <trkpt lat="43.13906" lon="-0.10534">
        <ele>513.481445</ele>
        <time>2013-10-07T11:29:47Z</time>
      </trkpt>
      <trkpt lat="43.13904" lon="-0.10553">
        <ele>514.92334</ele>
        <time>2013-10-07T11:29:56Z</time>
      </trkpt>
      <trkpt lat="43.13901" lon="-0.10561">
        <ele>514.442627</ele>
        <time>2013-10-07T11:30:00Z</time>
      </trkpt>
      <trkpt lat="43.13901" lon="-0.10575">
        <ele>515.884644</ele>
        <time>2013-10-07T11:30:06Z</time>
      </trkpt>
      <trkpt lat="43.139" lon="-0.10581">
        <ele>515.884644</ele>
        <time>2013-10-07T11:30:08Z</time>
      </trkpt>
      <trkpt lat="43.13899" lon="-0.10585">
        <ele>515.884644</ele>
        <time>2013-10-07T11:30:10Z</time>
      </trkpt>
      <trkpt lat="43.13896" lon="-0.10612">
        <ele>516.845947</ele>
        <time>2013-10-07T11:30:22Z</time>
      </trkpt>
      <trkpt lat="43.13887" lon="-0.10634">
        <ele>518.768555</ele>
        <time>2013-10-07T11:30:35Z</time>
      </trkpt>
      <trkpt lat="43.13877" lon="-0.10645">
        <ele>520.210571</ele>
        <time>2013-10-07T11:30:45Z</time>
      </trkpt>
      <trkpt lat="43.13858" lon="-0.10655">
        <ele>522.613892</ele>
        <time>2013-10-07T11:30:58Z</time>
      </trkpt>
      <trkpt lat="43.13851" lon="-0.10662">
        <ele>522.613892</ele>
        <time>2013-10-07T11:31:04Z</time>
      </trkpt>
      <trkpt lat="43.13843" lon="-0.10674">
        <ele>523.094604</ele>
        <time>2013-10-07T11:31:12Z</time>
      </trkpt>
      <trkpt lat="43.13838" lon="-0.10693">
        <ele>524.055786</ele>
        <time>2013-10-07T11:31:25Z</time>
      </trkpt>
      <trkpt lat="43.13839" lon="-0.1071">
        <ele>525.017212</ele>
        <time>2013-10-07T11:31:36Z</time>
      </trkpt>
      <trkpt lat="43.13837" lon="-0.10723">
        <ele>525.978394</ele>
        <time>2013-10-07T11:31:42Z</time>
      </trkpt>
      <trkpt lat="43.13841" lon="-0.10745">
        <ele>526.459106</ele>
        <time>2013-10-07T11:31:51Z</time>
      </trkpt>
      <trkpt lat="43.13847" lon="-0.10779">
        <ele>527.42041</ele>
        <time>2013-10-07T11:32:07Z</time>
      </trkpt>
      <trkpt lat="43.13848" lon="-0.10795">
        <ele>528.381836</ele>
        <time>2013-10-07T11:32:13Z</time>
      </trkpt>
      <trkpt lat="43.13848" lon="-0.10802">
        <ele>528.381836</ele>
        <time>2013-10-07T11:32:16Z</time>
      </trkpt>
      <trkpt lat="43.13846" lon="-0.10822">
        <ele>529.34314</ele>
        <time>2013-10-07T11:32:23Z</time>
      </trkpt>
      <trkpt lat="43.13847" lon="-0.10827">
        <ele>529.82373</ele>
        <time>2013-10-07T11:32:25Z</time>
      </trkpt>
      <trkpt lat="43.13844" lon="-0.10861">
        <ele>530.304443</ele>
        <time>2013-10-07T11:32:38Z</time>
      </trkpt>
      <trkpt lat="43.13844" lon="-0.10884">
        <ele>531.265747</ele>
        <time>2013-10-07T11:32:45Z</time>
      </trkpt>
      <trkpt lat="43.13839" lon="-0.10902">
        <ele>531.265747</ele>
        <time>2013-10-07T11:32:50Z</time>
      </trkpt>
      <trkpt lat="43.13813" lon="-0.10946">
        <ele>527.901001</ele>
        <time>2013-10-07T11:33:00Z</time>
      </trkpt>
      <trkpt lat="43.13801" lon="-0.10973">
        <ele>525.497803</ele>
        <time>2013-10-07T11:33:04Z</time>
      </trkpt>
      <trkpt lat="43.13799" lon="-0.11011">
        <ele>525.497803</ele>
        <time>2013-10-07T11:33:13Z</time>
      </trkpt>
      <trkpt lat="43.138" lon="-0.11014">
        <ele>525.017212</ele>
        <time>2013-10-07T11:33:14Z</time>
      </trkpt>
      <trkpt lat="43.13806" lon="-0.11022">
        <ele>525.017212</ele>
        <time>2013-10-07T11:33:20Z</time>
      </trkpt>
      <trkpt lat="43.13818" lon="-0.11049">
        <ele>525.017212</ele>
        <time>2013-10-07T11:33:30Z</time>
      </trkpt>
      <trkpt lat="43.13834" lon="-0.11093">
        <ele>525.017212</ele>
        <time>2013-10-07T11:33:42Z</time>
      </trkpt>
      <trkpt lat="43.13844" lon="-0.11119">
        <ele>525.017212</ele>
        <time>2013-10-07T11:33:49Z</time>
      </trkpt>
      <trkpt lat="43.13867" lon="-0.11151">
        <ele>525.017212</ele>
        <time>2013-10-07T11:33:58Z</time>
      </trkpt>
      <trkpt lat="43.13886" lon="-0.11173">
        <ele>525.497803</ele>
        <time>2013-10-07T11:34:05Z</time>
      </trkpt>
      <trkpt lat="43.13907" lon="-0.11187">
        <ele>525.497803</ele>
        <time>2013-10-07T11:34:15Z</time>
      </trkpt>
      <trkpt lat="43.13945" lon="-0.11185">
        <ele>525.497803</ele>
        <time>2013-10-07T11:34:27Z</time>
      </trkpt>
      <trkpt lat="43.13964" lon="-0.11184">
        <ele>525.497803</ele>
        <time>2013-10-07T11:34:36Z</time>
      </trkpt>
      <trkpt lat="43.13999" lon="-0.11186">
        <ele>524.055786</ele>
        <time>2013-10-07T11:34:48Z</time>
      </trkpt>
      <trkpt lat="43.14036" lon="-0.11152">
        <ele>523.094604</ele>
        <time>2013-10-07T11:34:59Z</time>
      </trkpt>
      <trkpt lat="43.14063" lon="-0.11122">
        <ele>522.613892</ele>
        <time>2013-10-07T11:35:09Z</time>
      </trkpt>
      <trkpt lat="43.14066" lon="-0.11118">
        <ele>521.652588</ele>
        <time>2013-10-07T11:35:10Z</time>
      </trkpt>
      <trkpt lat="43.14082" lon="-0.111">
        <ele>519.729858</ele>
        <time>2013-10-07T11:35:14Z</time>
      </trkpt>
      <trkpt lat="43.14091" lon="-0.1109">
        <ele>518.287842</ele>
        <time>2013-10-07T11:35:16Z</time>
      </trkpt>
      <trkpt lat="43.14112" lon="-0.11082">
        <ele>517.807251</ele>
        <time>2013-10-07T11:35:21Z</time>
      </trkpt>
      <trkpt lat="43.14127" lon="-0.11085">
        <ele>517.32666</ele>
        <time>2013-10-07T11:35:25Z</time>
      </trkpt>
      <trkpt lat="43.14154" lon="-0.11104">
        <ele>517.32666</ele>
        <time>2013-10-07T11:35:32Z</time>
      </trkpt>
      <trkpt lat="43.14168" lon="-0.11116">
        <ele>517.32666</ele>
        <time>2013-10-07T11:35:36Z</time>
      </trkpt>
      <trkpt lat="43.1418" lon="-0.11133">
        <ele>517.32666</ele>
        <time>2013-10-07T11:35:40Z</time>
      </trkpt>
      <trkpt lat="43.14209" lon="-0.11164">
        <ele>517.32666</ele>
        <time>2013-10-07T11:35:49Z</time>
      </trkpt>
      <trkpt lat="43.14261" lon="-0.11206">
        <ele>517.807251</ele>
        <time>2013-10-07T11:36:04Z</time>
      </trkpt>
      <trkpt lat="43.14283" lon="-0.11229">
        <ele>518.287842</ele>
        <time>2013-10-07T11:36:11Z</time>
      </trkpt>
      <trkpt lat="43.14318" lon="-0.11266">
        <ele>518.287842</ele>
        <time>2013-10-07T11:36:23Z</time>
      </trkpt>
      <trkpt lat="43.14339" lon="-0.11289">
        <ele>519.249268</ele>
        <time>2013-10-07T11:36:33Z</time>
      </trkpt>
      <trkpt lat="43.14368" lon="-0.11324">
        <ele>520.691284</ele>
        <time>2013-10-07T11:36:47Z</time>
      </trkpt>
      <trkpt lat="43.14386" lon="-0.11343">
        <ele>519.249268</ele>
        <time>2013-10-07T11:36:53Z</time>
      </trkpt>
      <trkpt lat="43.14403" lon="-0.11366">
        <ele>519.249268</ele>
        <time>2013-10-07T11:36:58Z</time>
      </trkpt>
      <trkpt lat="43.1442" lon="-0.11389">
        <ele>518.287842</ele>
        <time>2013-10-07T11:37:03Z</time>
      </trkpt>
      <trkpt lat="43.14473" lon="-0.11461">
        <ele>517.807251</ele>
        <time>2013-10-07T11:37:18Z</time>
      </trkpt>
      <trkpt lat="43.14483" lon="-0.11476">
        <ele>516.845947</ele>
        <time>2013-10-07T11:37:21Z</time>
      </trkpt>
      <trkpt lat="43.14492" lon="-0.11486">
        <ele>516.845947</ele>
        <time>2013-10-07T11:37:23Z</time>
      </trkpt>
      <trkpt lat="43.14516" lon="-0.11514">
        <ele>515.884644</ele>
        <time>2013-10-07T11:37:29Z</time>
      </trkpt>
      <trkpt lat="43.14523" lon="-0.11536">
        <ele>516.365234</ele>
        <time>2013-10-07T11:37:33Z</time>
      </trkpt>
      <trkpt lat="43.14524" lon="-0.1157">
        <ele>516.365234</ele>
        <time>2013-10-07T11:37:39Z</time>
      </trkpt>
      <trkpt lat="43.14549" lon="-0.11687">
        <ele>514.442627</ele>
        <time>2013-10-07T11:37:57Z</time>
      </trkpt>
      <trkpt lat="43.14579" lon="-0.11831">
        <ele>512.039429</ele>
        <time>2013-10-07T11:38:18Z</time>
      </trkpt>
      <trkpt lat="43.14601" lon="-0.11939">
        <ele>510.116699</ele>
        <time>2013-10-07T11:38:34Z</time>
      </trkpt>
      <trkpt lat="43.14625" lon="-0.12038">
        <ele>509.636108</ele>
        <time>2013-10-07T11:38:49Z</time>
      </trkpt>
      <trkpt lat="43.14656" lon="-0.12135">
        <ele>508.194092</ele>
        <time>2013-10-07T11:39:04Z</time>
      </trkpt>
      <trkpt lat="43.14692" lon="-0.12228">
        <ele>509.155396</ele>
        <time>2013-10-07T11:39:20Z</time>
      </trkpt>
      <trkpt lat="43.14741" lon="-0.12317">
        <ele>507.232788</ele>
        <time>2013-10-07T11:39:36Z</time>
      </trkpt>
      <trkpt lat="43.14798" lon="-0.12389">
        <ele>506.271484</ele>
        <time>2013-10-07T11:39:51Z</time>
      </trkpt>
      <trkpt lat="43.14858" lon="-0.12454">
        <ele>505.310181</ele>
        <time>2013-10-07T11:40:07Z</time>
      </trkpt>
      <trkpt lat="43.14922" lon="-0.12517">
        <ele>507.232788</ele>
        <time>2013-10-07T11:40:28Z</time>
      </trkpt>
      <trkpt lat="43.14966" lon="-0.12568">
        <ele>508.194092</ele>
        <time>2013-10-07T11:40:45Z</time>
      </trkpt>
      <trkpt lat="43.15017" lon="-0.12659">
        <ele>508.194092</ele>
        <time>2013-10-07T11:41:06Z</time>
      </trkpt>
      <trkpt lat="43.15047" lon="-0.12768">
        <ele>507.713501</ele>
        <time>2013-10-07T11:41:26Z</time>
      </trkpt>
      <trkpt lat="43.15057" lon="-0.12864">
        <ele>507.232788</ele>
        <time>2013-10-07T11:41:45Z</time>
      </trkpt>
      <trkpt lat="43.15055" lon="-0.12961">
        <ele>507.713501</ele>
        <time>2013-10-07T11:42:03Z</time>
      </trkpt>
      <trkpt lat="43.15042" lon="-0.1307">
        <ele>507.713501</ele>
        <time>2013-10-07T11:42:22Z</time>
      </trkpt>
      <trkpt lat="43.15046" lon="-0.13138">
        <ele>503.868164</ele>
        <time>2013-10-07T11:42:32Z</time>
      </trkpt>
      <trkpt lat="43.15047" lon="-0.13146">
        <ele>503.868164</ele>
        <time>2013-10-07T11:42:33Z</time>
      </trkpt>
      <trkpt lat="43.15066" lon="-0.1326">
        <ele>503.387451</ele>
        <time>2013-10-07T11:42:49Z</time>
      </trkpt>
      <trkpt lat="43.15092" lon="-0.13377">
        <ele>505.790894</ele>
        <time>2013-10-07T11:43:10Z</time>
      </trkpt>
      <trkpt lat="43.15113" lon="-0.13419">
        <ele>507.713501</ele>
        <time>2013-10-07T11:43:22Z</time>
      </trkpt>
      <trkpt lat="43.15156" lon="-0.13459">
        <ele>507.232788</ele>
        <time>2013-10-07T11:43:36Z</time>
      </trkpt>
      <trkpt lat="43.15173" lon="-0.13468">
        <ele>506.271484</ele>
        <time>2013-10-07T11:43:40Z</time>
      </trkpt>
      <trkpt lat="43.1519" lon="-0.13469">
        <ele>505.310181</ele>
        <time>2013-10-07T11:43:44Z</time>
      </trkpt>
      <trkpt lat="43.15207" lon="-0.13474">
        <ele>505.790894</ele>
        <time>2013-10-07T11:43:48Z</time>
      </trkpt>
      <trkpt lat="43.15311" lon="-0.13548">
        <ele>506.752075</ele>
        <time>2013-10-07T11:44:14Z</time>
      </trkpt>
      <trkpt lat="43.15344" lon="-0.13576">
        <ele>505.790894</ele>
        <time>2013-10-07T11:44:22Z</time>
      </trkpt>
      <trkpt lat="43.15399" lon="-0.13614">
        <ele>501.464844</ele>
        <time>2013-10-07T11:44:32Z</time>
      </trkpt>
      <trkpt lat="43.15437" lon="-0.13642">
        <ele>499.542236</ele>
        <time>2013-10-07T11:44:38Z</time>
      </trkpt>
      <trkpt lat="43.15458" lon="-0.13657">
        <ele>497.619629</ele>
        <time>2013-10-07T11:44:41Z</time>
      </trkpt>
      <trkpt lat="43.15473" lon="-0.13667">
        <ele>496.177734</ele>
        <time>2013-10-07T11:44:43Z</time>
      </trkpt>
      <trkpt lat="43.15488" lon="-0.13673">
        <ele>495.216187</ele>
        <time>2013-10-07T11:44:45Z</time>
      </trkpt>
      <trkpt lat="43.15505" lon="-0.13672">
        <ele>494.255005</ele>
        <time>2013-10-07T11:44:47Z</time>
      </trkpt>
      <trkpt lat="43.15538" lon="-0.13668">
        <ele>490.40979</ele>
        <time>2013-10-07T11:44:51Z</time>
      </trkpt>
      <trkpt lat="43.15544" lon="-0.13668">
        <ele>490.40979</ele>
        <time>2013-10-07T11:44:52Z</time>
      </trkpt>
      <trkpt lat="43.15558" lon="-0.13666">
        <ele>487.525635</ele>
        <time>2013-10-07T11:44:55Z</time>
      </trkpt>
      <trkpt lat="43.15561" lon="-0.13666">
        <ele>487.045044</ele>
        <time>2013-10-07T11:44:56Z</time>
      </trkpt>
      <trkpt lat="43.15572" lon="-0.13669">
        <ele>486.564453</ele>
        <time>2013-10-07T11:44:59Z</time>
      </trkpt>
      <trkpt lat="43.15634" lon="-0.13735">
        <ele>487.525635</ele>
        <time>2013-10-07T11:45:15Z</time>
      </trkpt>
      <trkpt lat="43.15722" lon="-0.13815">
        <ele>488.00647</ele>
        <time>2013-10-07T11:45:37Z</time>
      </trkpt>
      <trkpt lat="43.15766" lon="-0.13866">
        <ele>489.448364</ele>
        <time>2013-10-07T11:45:52Z</time>
      </trkpt>
      <trkpt lat="43.15811" lon="-0.13933">
        <ele>488.967773</ele>
        <time>2013-10-07T11:46:10Z</time>
      </trkpt>
      <trkpt lat="43.15853" lon="-0.13994">
        <ele>490.40979</ele>
        <time>2013-10-07T11:46:28Z</time>
      </trkpt>
      <trkpt lat="43.15888" lon="-0.14058">
        <ele>490.890381</ele>
        <time>2013-10-07T11:46:48Z</time>
      </trkpt>
      <trkpt lat="43.15891" lon="-0.14064">
        <ele>492.812988</ele>
        <time>2013-10-07T11:46:50Z</time>
      </trkpt>
      <trkpt lat="43.15909" lon="-0.14119">
        <ele>493.774292</ele>
        <time>2013-10-07T11:47:08Z</time>
      </trkpt>
      <trkpt lat="43.15925" lon="-0.14178">
        <ele>496.177734</ele>
        <time>2013-10-07T11:47:26Z</time>
      </trkpt>
      <trkpt lat="43.15943" lon="-0.14248">
        <ele>497.138916</ele>
        <time>2013-10-07T11:47:45Z</time>
      </trkpt>
      <trkpt lat="43.15964" lon="-0.14349">
        <ele>498.100342</ele>
        <time>2013-10-07T11:48:07Z</time>
      </trkpt>
      <trkpt lat="43.15976" lon="-0.1444">
        <ele>500.50354</ele>
        <time>2013-10-07T11:48:27Z</time>
      </trkpt>
      <trkpt lat="43.15984" lon="-0.14515">
        <ele>501.464844</ele>
        <time>2013-10-07T11:48:44Z</time>
      </trkpt>
      <trkpt lat="43.16002" lon="-0.14589">
        <ele>501.945557</ele>
        <time>2013-10-07T11:49:01Z</time>
      </trkpt>
      <trkpt lat="43.16018" lon="-0.14657">
        <ele>502.906738</ele>
        <time>2013-10-07T11:49:17Z</time>
      </trkpt>
      <trkpt lat="43.16038" lon="-0.14729">
        <ele>503.868164</ele>
        <time>2013-10-07T11:49:34Z</time>
      </trkpt>
      <trkpt lat="43.16058" lon="-0.14803">
        <ele>504.348877</ele>
        <time>2013-10-07T11:49:52Z</time>
      </trkpt>
      <trkpt lat="43.16077" lon="-0.14871">
        <ele>504.348877</ele>
        <time>2013-10-07T11:50:10Z</time>
      </trkpt>
      <trkpt lat="43.16083" lon="-0.14905">
        <ele>503.868164</ele>
        <time>2013-10-07T11:50:20Z</time>
      </trkpt>
      <trkpt lat="43.1608" lon="-0.1491">
        <ele>504.829468</ele>
        <time>2013-10-07T11:50:34Z</time>
      </trkpt>
      <trkpt lat="43.1608" lon="-0.14908">
        <ele>503.387451</ele>
        <time>2013-10-07T11:51:04Z</time>
      </trkpt>
      <trkpt lat="43.16082" lon="-0.14908">
        <ele>503.387451</ele>
        <time>2013-10-07T11:51:24Z</time>
      </trkpt>
      <trkpt lat="43.16103" lon="-0.14884">
        <ele>504.348877</ele>
        <time>2013-10-07T11:51:37Z</time>
      </trkpt>
      <trkpt lat="43.16154" lon="-0.14882">
        <ele>505.310181</ele>
        <time>2013-10-07T11:51:53Z</time>
      </trkpt>
      <trkpt lat="43.16226" lon="-0.14872">
        <ele>503.387451</ele>
        <time>2013-10-07T11:52:10Z</time>
      </trkpt>
      <trkpt lat="43.16244" lon="-0.14876">
        <ele>502.426147</ele>
        <time>2013-10-07T11:52:14Z</time>
      </trkpt>
      <trkpt lat="43.16306" lon="-0.149">
        <ele>500.022949</ele>
        <time>2013-10-07T11:52:27Z</time>
      </trkpt>
      <trkpt lat="43.16389" lon="-0.14933">
        <ele>497.619629</ele>
        <time>2013-10-07T11:52:43Z</time>
      </trkpt>
      <trkpt lat="43.16471" lon="-0.14965">
        <ele>495.696899</ele>
        <time>2013-10-07T11:53:00Z</time>
      </trkpt>
      <trkpt lat="43.16561" lon="-0.14992">
        <ele>495.216187</ele>
        <time>2013-10-07T11:53:19Z</time>
      </trkpt>
      <trkpt lat="43.16618" lon="-0.15023">
        <ele>493.293579</ele>
        <time>2013-10-07T11:53:31Z</time>
      </trkpt>
      <trkpt lat="43.16688" lon="-0.15062">
        <ele>489.929077</ele>
        <time>2013-10-07T11:53:45Z</time>
      </trkpt>
      <trkpt lat="43.16744" lon="-0.15088">
        <ele>486.564453</ele>
        <time>2013-10-07T11:53:54Z</time>
      </trkpt>
      <trkpt lat="43.16806" lon="-0.15106">
        <ele>482.719238</ele>
        <time>2013-10-07T11:54:03Z</time>
      </trkpt>
      <trkpt lat="43.16848" lon="-0.15126">
        <ele>478.873901</ele>
        <time>2013-10-07T11:54:08Z</time>
      </trkpt>
      <trkpt lat="43.16875" lon="-0.1514">
        <ele>475.509277</ele>
        <time>2013-10-07T11:54:11Z</time>
      </trkpt>
      <trkpt lat="43.16895" lon="-0.1515">
        <ele>474.547974</ele>
        <time>2013-10-07T11:54:13Z</time>
      </trkpt>
      <trkpt lat="43.16937" lon="-0.15171">
        <ele>471.66394</ele>
        <time>2013-10-07T11:54:17Z</time>
      </trkpt>
      <trkpt lat="43.16958" lon="-0.15181">
        <ele>470.702637</ele>
        <time>2013-10-07T11:54:19Z</time>
      </trkpt>
      <trkpt lat="43.16988" lon="-0.15196">
        <ele>468.299316</ele>
        <time>2013-10-07T11:54:22Z</time>
      </trkpt>
      <trkpt lat="43.17051" lon="-0.15248">
        <ele>467.818726</ele>
        <time>2013-10-07T11:54:32Z</time>
      </trkpt>
      <trkpt lat="43.17061" lon="-0.15258">
        <ele>469.260742</ele>
        <time>2013-10-07T11:54:35Z</time>
      </trkpt>
      <trkpt lat="43.17098" lon="-0.1531">
        <ele>472.144653</ele>
        <time>2013-10-07T11:54:53Z</time>
      </trkpt>
      <trkpt lat="43.17132" lon="-0.15352">
        <ele>474.547974</ele>
        <time>2013-10-07T11:55:09Z</time>
      </trkpt>
      <trkpt lat="43.17169" lon="-0.154">
        <ele>475.509277</ele>
        <time>2013-10-07T11:55:27Z</time>
      </trkpt>
      <trkpt lat="43.172" lon="-0.15453">
        <ele>475.989868</ele>
        <time>2013-10-07T11:55:43Z</time>
      </trkpt>
      <trkpt lat="43.17232" lon="-0.15543">
        <ele>475.028687</ele>
        <time>2013-10-07T11:56:02Z</time>
      </trkpt>
      <trkpt lat="43.17275" lon="-0.15658">
        <ele>475.509277</ele>
        <time>2013-10-07T11:56:24Z</time>
      </trkpt>
      <trkpt lat="43.17289" lon="-0.15696">
        <ele>475.509277</ele>
        <time>2013-10-07T11:56:31Z</time>
      </trkpt>
      <trkpt lat="43.17338" lon="-0.15783">
        <ele>475.989868</ele>
        <time>2013-10-07T11:56:51Z</time>
      </trkpt>
      <trkpt lat="43.17374" lon="-0.15829">
        <ele>479.354492</ele>
        <time>2013-10-07T11:57:06Z</time>
      </trkpt>
      <trkpt lat="43.1743" lon="-0.15868">
        <ele>481.757813</ele>
        <time>2013-10-07T11:57:28Z</time>
      </trkpt>
      <trkpt lat="43.17498" lon="-0.15899">
        <ele>480.796631</ele>
        <time>2013-10-07T11:57:48Z</time>
      </trkpt>
      <trkpt lat="43.17574" lon="-0.15935">
        <ele>480.796631</ele>
        <time>2013-10-07T11:58:08Z</time>
      </trkpt>
      <trkpt lat="43.17633" lon="-0.15979">
        <ele>481.277222</ele>
        <time>2013-10-07T11:58:28Z</time>
      </trkpt>
      <trkpt lat="43.1767" lon="-0.16012">
        <ele>484.641846</ele>
        <time>2013-10-07T11:58:45Z</time>
      </trkpt>
      <trkpt lat="43.17724" lon="-0.16058">
        <ele>486.564453</ele>
        <time>2013-10-07T11:59:07Z</time>
      </trkpt>
      <trkpt lat="43.1778" lon="-0.16106">
        <ele>487.045044</ele>
        <time>2013-10-07T11:59:27Z</time>
      </trkpt>
      <trkpt lat="43.17843" lon="-0.16155">
        <ele>485.603027</ele>
        <time>2013-10-07T11:59:45Z</time>
      </trkpt>
      <trkpt lat="43.17929" lon="-0.16221">
        <ele>483.68042</ele>
        <time>2013-10-07T12:00:07Z</time>
      </trkpt>
      <trkpt lat="43.17932" lon="-0.16224">
        <ele>483.68042</ele>
        <time>2013-10-07T12:00:08Z</time>
      </trkpt>
      <trkpt lat="43.17985" lon="-0.16269">
        <ele>483.68042</ele>
        <time>2013-10-07T12:00:23Z</time>
      </trkpt>
      <trkpt lat="43.18012" lon="-0.16291">
        <ele>483.68042</ele>
        <time>2013-10-07T12:00:30Z</time>
      </trkpt>
      <trkpt lat="43.18054" lon="-0.16327">
        <ele>483.68042</ele>
        <time>2013-10-07T12:00:42Z</time>
      </trkpt>
      <trkpt lat="43.18091" lon="-0.16359">
        <ele>481.757813</ele>
        <time>2013-10-07T12:00:54Z</time>
      </trkpt>
      <trkpt lat="43.18149" lon="-0.16426">
        <ele>479.354492</ele>
        <time>2013-10-07T12:01:09Z</time>
      </trkpt>
      <trkpt lat="43.18163" lon="-0.16445">
        <ele>479.354492</ele>
        <time>2013-10-07T12:01:13Z</time>
      </trkpt>
      <trkpt lat="43.18182" lon="-0.16455">
        <ele>477.912476</ele>
        <time>2013-10-07T12:01:22Z</time>
      </trkpt>
      <trkpt lat="43.18187" lon="-0.16458">
        <ele>477.912476</ele>
        <time>2013-10-07T12:01:24Z</time>
      </trkpt>
      <trkpt lat="43.18244" lon="-0.16504">
        <ele>476.470581</ele>
        <time>2013-10-07T12:01:40Z</time>
      </trkpt>
      <trkpt lat="43.18298" lon="-0.16537">
        <ele>474.067261</ele>
        <time>2013-10-07T12:01:52Z</time>
      </trkpt>
      <trkpt lat="43.18345" lon="-0.16577">
        <ele>472.625366</ele>
        <time>2013-10-07T12:02:05Z</time>
      </trkpt>
      <trkpt lat="43.18353" lon="-0.16582">
        <ele>472.625366</ele>
        <time>2013-10-07T12:02:07Z</time>
      </trkpt>
      <trkpt lat="43.18364" lon="-0.16591">
        <ele>472.144653</ele>
        <time>2013-10-07T12:02:10Z</time>
      </trkpt>
      <trkpt lat="43.18396" lon="-0.16626">
        <ele>471.66394</ele>
        <time>2013-10-07T12:02:22Z</time>
      </trkpt>
      <trkpt lat="43.18438" lon="-0.16664">
        <ele>472.144653</ele>
        <time>2013-10-07T12:02:40Z</time>
      </trkpt>
      <trkpt lat="43.18466" lon="-0.16692">
        <ele>472.144653</ele>
        <time>2013-10-07T12:02:53Z</time>
      </trkpt>
      <trkpt lat="43.18508" lon="-0.16741">
        <ele>474.067261</ele>
        <time>2013-10-07T12:03:13Z</time>
      </trkpt>
      <trkpt lat="43.18529" lon="-0.16768">
        <ele>475.028687</ele>
        <time>2013-10-07T12:03:24Z</time>
      </trkpt>
      <trkpt lat="43.1857" lon="-0.16811">
        <ele>474.067261</ele>
        <time>2013-10-07T12:03:40Z</time>
      </trkpt>
      <trkpt lat="43.18609" lon="-0.16863">
        <ele>473.106079</ele>
        <time>2013-10-07T12:03:55Z</time>
      </trkpt>
      <trkpt lat="43.18659" lon="-0.16924">
        <ele>471.18335</ele>
        <time>2013-10-07T12:04:12Z</time>
      </trkpt>
      <trkpt lat="43.18702" lon="-0.16971">
        <ele>470.221924</ele>
        <time>2013-10-07T12:04:25Z</time>
      </trkpt>
      <trkpt lat="43.18713" lon="-0.16983">
        <ele>470.221924</ele>
        <time>2013-10-07T12:04:28Z</time>
      </trkpt>
      <trkpt lat="43.18733" lon="-0.1701">
        <ele>468.780029</ele>
        <time>2013-10-07T12:04:34Z</time>
      </trkpt>
      <trkpt lat="43.18747" lon="-0.17026">
        <ele>467.818726</ele>
        <time>2013-10-07T12:04:38Z</time>
      </trkpt>
      <trkpt lat="43.18756" lon="-0.17036">
        <ele>467.338135</ele>
        <time>2013-10-07T12:04:40Z</time>
      </trkpt>
      <trkpt lat="43.18781" lon="-0.17061">
        <ele>465.415527</ele>
        <time>2013-10-07T12:04:45Z</time>
      </trkpt>
      <trkpt lat="43.18803" lon="-0.17073">
        <ele>463.973389</ele>
        <time>2013-10-07T12:04:48Z</time>
      </trkpt>
      <trkpt lat="43.18823" lon="-0.17084">
        <ele>460.608765</ele>
        <time>2013-10-07T12:04:51Z</time>
      </trkpt>
      <trkpt lat="43.18829" lon="-0.17087">
        <ele>460.128174</ele>
        <time>2013-10-07T12:04:52Z</time>
      </trkpt>
      <trkpt lat="43.1884" lon="-0.17094">
        <ele>458.686157</ele>
        <time>2013-10-07T12:04:54Z</time>
      </trkpt>
      <trkpt lat="43.18871" lon="-0.17104">
        <ele>457.244263</ele>
        <time>2013-10-07T12:04:59Z</time>
      </trkpt>
      <trkpt lat="43.1895" lon="-0.17133">
        <ele>453.398926</ele>
        <time>2013-10-07T12:05:12Z</time>
      </trkpt>
      <trkpt lat="43.18961" lon="-0.17136">
        <ele>453.398926</ele>
        <time>2013-10-07T12:05:14Z</time>
      </trkpt>
      <trkpt lat="43.18989" lon="-0.17137">
        <ele>452.437622</ele>
        <time>2013-10-07T12:05:19Z</time>
      </trkpt>
      <trkpt lat="43.19008" lon="-0.17142">
        <ele>451.957031</ele>
        <time>2013-10-07T12:05:23Z</time>
      </trkpt>
      <trkpt lat="43.1904" lon="-0.1716">
        <ele>450.034424</ele>
        <time>2013-10-07T12:05:30Z</time>
      </trkpt>
      <trkpt lat="43.19065" lon="-0.17169">
        <ele>450.515015</ele>
        <time>2013-10-07T12:05:36Z</time>
      </trkpt>
      <trkpt lat="43.19128" lon="-0.17197">
        <ele>450.034424</ele>
        <time>2013-10-07T12:05:52Z</time>
      </trkpt>
      <trkpt lat="43.19163" lon="-0.17214">
        <ele>449.553711</ele>
        <time>2013-10-07T12:06:04Z</time>
      </trkpt>
      <trkpt lat="43.1921" lon="-0.17239">
        <ele>447.630981</ele>
        <time>2013-10-07T12:06:17Z</time>
      </trkpt>
      <trkpt lat="43.1924" lon="-0.17266">
        <ele>445.227661</ele>
        <time>2013-10-07T12:06:25Z</time>
      </trkpt>
      <trkpt lat="43.19269" lon="-0.17291">
        <ele>443.785767</ele>
        <time>2013-10-07T12:06:32Z</time>
      </trkpt>
      <trkpt lat="43.1929" lon="-0.1731">
        <ele>442.824463</ele>
        <time>2013-10-07T12:06:37Z</time>
      </trkpt>
      <trkpt lat="43.19306" lon="-0.17321">
        <ele>441.382446</ele>
        <time>2013-10-07T12:06:41Z</time>
      </trkpt>
      <trkpt lat="43.19329" lon="-0.17346">
        <ele>440.421265</ele>
        <time>2013-10-07T12:06:47Z</time>
      </trkpt>
      <trkpt lat="43.19342" lon="-0.17357">
        <ele>439.94043</ele>
        <time>2013-10-07T12:06:50Z</time>
      </trkpt>
      <trkpt lat="43.1937" lon="-0.17383">
        <ele>439.459717</ele>
        <time>2013-10-07T12:06:56Z</time>
      </trkpt>
      <trkpt lat="43.19405" lon="-0.17415">
        <ele>438.498535</ele>
        <time>2013-10-07T12:07:04Z</time>
      </trkpt>
      <trkpt lat="43.19419" lon="-0.17429">
        <ele>437.537109</ele>
        <time>2013-10-07T12:07:08Z</time>
      </trkpt>
      <trkpt lat="43.19459" lon="-0.17461">
        <ele>436.095215</ele>
        <time>2013-10-07T12:07:20Z</time>
      </trkpt>
      <trkpt lat="43.19489" lon="-0.17476">
        <ele>435.614502</ele>
        <time>2013-10-07T12:07:29Z</time>
      </trkpt>
      <trkpt lat="43.19497" lon="-0.17481">
        <ele>434.65332</ele>
        <time>2013-10-07T12:07:31Z</time>
      </trkpt>
      <trkpt lat="43.19519" lon="-0.17495">
        <ele>433.691895</ele>
        <time>2013-10-07T12:07:35Z</time>
      </trkpt>
      <trkpt lat="43.19534" lon="-0.17503">
        <ele>431.769165</ele>
        <time>2013-10-07T12:07:38Z</time>
      </trkpt>
      <trkpt lat="43.19546" lon="-0.17509">
        <ele>430.807983</ele>
        <time>2013-10-07T12:07:40Z</time>
      </trkpt>
      <trkpt lat="43.19556" lon="-0.17514">
        <ele>430.807983</ele>
        <time>2013-10-07T12:07:42Z</time>
      </trkpt>
      <trkpt lat="43.19566" lon="-0.17518">
        <ele>429.846558</ele>
        <time>2013-10-07T12:07:44Z</time>
      </trkpt>
      <trkpt lat="43.19619" lon="-0.1755">
        <ele>430.327271</ele>
        <time>2013-10-07T12:07:58Z</time>
      </trkpt>
      <trkpt lat="43.1963" lon="-0.17555">
        <ele>429.365967</ele>
        <time>2013-10-07T12:08:07Z</time>
      </trkpt>
      <trkpt lat="43.19643" lon="-0.17562">
        <ele>432.730713</ele>
        <time>2013-10-07T12:08:19Z</time>
      </trkpt>
      <trkpt lat="43.19666" lon="-0.17579">
        <ele>435.133911</ele>
        <time>2013-10-07T12:08:35Z</time>
      </trkpt>
      <trkpt lat="43.1969" lon="-0.17588">
        <ele>437.056519</ele>
        <time>2013-10-07T12:08:46Z</time>
      </trkpt>
      <trkpt lat="43.19698" lon="-0.17593">
        <ele>438.017822</ele>
        <time>2013-10-07T12:08:51Z</time>
      </trkpt>
      <trkpt lat="43.19708" lon="-0.17599">
        <ele>438.017822</ele>
        <time>2013-10-07T12:08:56Z</time>
      </trkpt>
      <trkpt lat="43.19729" lon="-0.17616">
        <ele>438.017822</ele>
        <time>2013-10-07T12:09:09Z</time>
      </trkpt>
      <trkpt lat="43.19752" lon="-0.17635">
        <ele>438.498535</ele>
        <time>2013-10-07T12:09:21Z</time>
      </trkpt>
      <trkpt lat="43.19772" lon="-0.17645">
        <ele>439.459717</ele>
        <time>2013-10-07T12:09:31Z</time>
      </trkpt>
      <trkpt lat="43.19787" lon="-0.17654">
        <ele>440.421265</ele>
        <time>2013-10-07T12:09:39Z</time>
      </trkpt>
      <trkpt lat="43.19814" lon="-0.1767">
        <ele>441.863159</ele>
        <time>2013-10-07T12:09:56Z</time>
      </trkpt>
      <trkpt lat="43.19833" lon="-0.17682">
        <ele>443.785767</ele>
        <time>2013-10-07T12:10:09Z</time>
      </trkpt>
      <trkpt lat="43.19857" lon="-0.17695">
        <ele>446.189087</ele>
        <time>2013-10-07T12:10:22Z</time>
      </trkpt>
      <trkpt lat="43.1988" lon="-0.17716">
        <ele>448.111816</ele>
        <time>2013-10-07T12:10:36Z</time>
      </trkpt>
      <trkpt lat="43.19902" lon="-0.1774">
        <ele>449.553711</ele>
        <time>2013-10-07T12:10:50Z</time>
      </trkpt>
      <trkpt lat="43.19926" lon="-0.17763">
        <ele>450.995605</ele>
        <time>2013-10-07T12:11:04Z</time>
      </trkpt>
      <trkpt lat="43.1995" lon="-0.17791">
        <ele>451.957031</ele>
        <time>2013-10-07T12:11:18Z</time>
      </trkpt>
      <trkpt lat="43.19953" lon="-0.17794">
        <ele>451.957031</ele>
        <time>2013-10-07T12:11:20Z</time>
      </trkpt>
      <trkpt lat="43.19973" lon="-0.17834">
        <ele>452.918213</ele>
        <time>2013-10-07T12:11:33Z</time>
      </trkpt>
      <trkpt lat="43.19988" lon="-0.17877">
        <ele>453.879639</ele>
        <time>2013-10-07T12:11:45Z</time>
      </trkpt>
      <trkpt lat="43.20012" lon="-0.17917">
        <ele>454.84082</ele>
        <time>2013-10-07T12:11:58Z</time>
      </trkpt>
      <trkpt lat="43.20018" lon="-0.17927">
        <ele>454.360229</ele>
        <time>2013-10-07T12:12:02Z</time>
      </trkpt>
      <trkpt lat="43.20031" lon="-0.17967">
        <ele>454.84082</ele>
        <time>2013-10-07T12:12:16Z</time>
      </trkpt>
      <trkpt lat="43.20051" lon="-0.17999">
        <ele>454.84082</ele>
        <time>2013-10-07T12:12:27Z</time>
      </trkpt>
      <trkpt lat="43.20093" lon="-0.18034">
        <ele>454.360229</ele>
        <time>2013-10-07T12:12:41Z</time>
      </trkpt>
      <trkpt lat="43.20145" lon="-0.18078">
        <ele>450.995605</ele>
        <time>2013-10-07T12:12:54Z</time>
      </trkpt>
      <trkpt lat="43.20155" lon="-0.18087">
        <ele>450.034424</ele>
        <time>2013-10-07T12:12:56Z</time>
      </trkpt>
      <trkpt lat="43.20188" lon="-0.18098">
        <ele>446.669678</ele>
        <time>2013-10-07T12:13:01Z</time>
      </trkpt>
      <trkpt lat="43.20218" lon="-0.18106">
        <ele>442.824463</ele>
        <time>2013-10-07T12:13:05Z</time>
      </trkpt>
      <trkpt lat="43.20225" lon="-0.18108">
        <ele>442.824463</ele>
        <time>2013-10-07T12:13:06Z</time>
      </trkpt>
      <trkpt lat="43.20232" lon="-0.18111">
        <ele>441.863159</ele>
        <time>2013-10-07T12:13:07Z</time>
      </trkpt>
      <trkpt lat="43.20269" lon="-0.1812">
        <ele>439.459717</ele>
        <time>2013-10-07T12:13:12Z</time>
      </trkpt>
      <trkpt lat="43.20301" lon="-0.18126">
        <ele>435.614502</ele>
        <time>2013-10-07T12:13:16Z</time>
      </trkpt>
      <trkpt lat="43.20323" lon="-0.18132">
        <ele>434.172607</ele>
        <time>2013-10-07T12:13:19Z</time>
      </trkpt>
      <trkpt lat="43.20371" lon="-0.18142">
        <ele>431.288574</ele>
        <time>2013-10-07T12:13:25Z</time>
      </trkpt>
      <trkpt lat="43.20398" lon="-0.18147">
        <ele>429.365967</ele>
        <time>2013-10-07T12:13:29Z</time>
      </trkpt>
      <trkpt lat="43.20408" lon="-0.18148">
        <ele>429.846558</ele>
        <time>2013-10-07T12:13:31Z</time>
      </trkpt>
      <trkpt lat="43.20447" lon="-0.18158">
        <ele>427.92395</ele>
        <time>2013-10-07T12:13:42Z</time>
      </trkpt>
      <trkpt lat="43.20493" lon="-0.18165">
        <ele>427.443359</ele>
        <time>2013-10-07T12:13:55Z</time>
      </trkpt>
      <trkpt lat="43.20533" lon="-0.18175">
        <ele>427.443359</ele>
        <time>2013-10-07T12:14:07Z</time>
      </trkpt>
      <trkpt lat="43.20569" lon="-0.18185">
        <ele>426.482056</ele>
        <time>2013-10-07T12:14:17Z</time>
      </trkpt>
      <trkpt lat="43.20601" lon="-0.18189">
        <ele>426.482056</ele>
        <time>2013-10-07T12:14:28Z</time>
      </trkpt>
      <trkpt lat="43.20646" lon="-0.18204">
        <ele>426.001343</ele>
        <time>2013-10-07T12:14:40Z</time>
      </trkpt>
      <trkpt lat="43.20689" lon="-0.18223">
        <ele>423.117432</ele>
        <time>2013-10-07T12:14:51Z</time>
      </trkpt>
      <trkpt lat="43.20693" lon="-0.18225">
        <ele>423.598022</ele>
        <time>2013-10-07T12:14:52Z</time>
      </trkpt>
      <trkpt lat="43.20753" lon="-0.18246">
        <ele>420.233398</ele>
        <time>2013-10-07T12:15:04Z</time>
      </trkpt>
      <trkpt lat="43.20774" lon="-0.18254">
        <ele>419.752808</ele>
        <time>2013-10-07T12:15:08Z</time>
      </trkpt>
      <trkpt lat="43.20818" lon="-0.18271">
        <ele>418.791504</ele>
        <time>2013-10-07T12:15:19Z</time>
      </trkpt>
      <trkpt lat="43.20857" lon="-0.18287">
        <ele>419.752808</ele>
        <time>2013-10-07T12:15:31Z</time>
      </trkpt>
      <trkpt lat="43.20889" lon="-0.18298">
        <ele>418.310791</ele>
        <time>2013-10-07T12:15:41Z</time>
      </trkpt>
      <trkpt lat="43.2092" lon="-0.18314">
        <ele>419.272217</ele>
        <time>2013-10-07T12:15:53Z</time>
      </trkpt>
      <trkpt lat="43.20953" lon="-0.18327">
        <ele>420.714111</ele>
        <time>2013-10-07T12:16:06Z</time>
      </trkpt>
      <trkpt lat="43.20989" lon="-0.18347">
        <ele>421.194824</ele>
        <time>2013-10-07T12:16:18Z</time>
      </trkpt>
      <trkpt lat="43.21019" lon="-0.18372">
        <ele>421.194824</ele>
        <time>2013-10-07T12:16:28Z</time>
      </trkpt>
      <trkpt lat="43.21039" lon="-0.18392">
        <ele>421.675415</ele>
        <time>2013-10-07T12:16:36Z</time>
      </trkpt>
      <trkpt lat="43.21062" lon="-0.18422">
        <ele>422.156006</ele>
        <time>2013-10-07T12:16:48Z</time>
      </trkpt>
      <trkpt lat="43.21086" lon="-0.18452">
        <ele>423.117432</ele>
        <time>2013-10-07T12:17:02Z</time>
      </trkpt>
      <trkpt lat="43.21099" lon="-0.18467">
        <ele>423.117432</ele>
        <time>2013-10-07T12:17:09Z</time>
      </trkpt>
      <trkpt lat="43.21107" lon="-0.18477">
        <ele>423.598022</ele>
        <time>2013-10-07T12:17:13Z</time>
      </trkpt>
      <trkpt lat="43.21137" lon="-0.18511">
        <ele>425.040161</ele>
        <time>2013-10-07T12:17:29Z</time>
      </trkpt>
      <trkpt lat="43.21161" lon="-0.18544">
        <ele>425.520752</ele>
        <time>2013-10-07T12:17:43Z</time>
      </trkpt>
      <trkpt lat="43.21192" lon="-0.18577">
        <ele>426.482056</ele>
        <time>2013-10-07T12:17:57Z</time>
      </trkpt>
      <trkpt lat="43.21198" lon="-0.18585">
        <ele>426.001343</ele>
        <time>2013-10-07T12:18:00Z</time>
      </trkpt>
      <trkpt lat="43.21225" lon="-0.18617">
        <ele>426.482056</ele>
        <time>2013-10-07T12:18:13Z</time>
      </trkpt>
      <trkpt lat="43.2125" lon="-0.18652">
        <ele>426.482056</ele>
        <time>2013-10-07T12:18:25Z</time>
      </trkpt>
      <trkpt lat="43.21282" lon="-0.18697">
        <ele>426.962769</ele>
        <time>2013-10-07T12:18:38Z</time>
      </trkpt>
      <trkpt lat="43.21309" lon="-0.18741">
        <ele>426.482056</ele>
        <time>2013-10-07T12:18:49Z</time>
      </trkpt>
      <trkpt lat="43.21341" lon="-0.18785">
        <ele>424.559448</ele>
        <time>2013-10-07T12:19:00Z</time>
      </trkpt>
      <trkpt lat="43.21359" lon="-0.18815">
        <ele>422.156006</ele>
        <time>2013-10-07T12:19:07Z</time>
      </trkpt>
      <trkpt lat="43.21371" lon="-0.1883">
        <ele>419.752808</ele>
        <time>2013-10-07T12:19:11Z</time>
      </trkpt>
      <trkpt lat="43.21381" lon="-0.18843">
        <ele>417.8302</ele>
        <time>2013-10-07T12:19:14Z</time>
      </trkpt>
      <trkpt lat="43.21389" lon="-0.18854">
        <ele>417.349609</ele>
        <time>2013-10-07T12:19:16Z</time>
      </trkpt>
      <trkpt lat="43.21407" lon="-0.18878">
        <ele>416.388184</ele>
        <time>2013-10-07T12:19:20Z</time>
      </trkpt>
      <trkpt lat="43.21423" lon="-0.18903">
        <ele>415.907471</ele>
        <time>2013-10-07T12:19:24Z</time>
      </trkpt>
      <trkpt lat="43.2144" lon="-0.18927">
        <ele>414.946167</ele>
        <time>2013-10-07T12:19:29Z</time>
      </trkpt>
      <trkpt lat="43.21468" lon="-0.18964">
        <ele>415.42688</ele>
        <time>2013-10-07T12:19:39Z</time>
      </trkpt>
      <trkpt lat="43.2149" lon="-0.19008">
        <ele>416.388184</ele>
        <time>2013-10-07T12:19:50Z</time>
      </trkpt>
      <trkpt lat="43.21501" lon="-0.19033">
        <ele>416.388184</ele>
        <time>2013-10-07T12:19:56Z</time>
      </trkpt>
      <trkpt lat="43.21507" lon="-0.19048">
        <ele>416.388184</ele>
        <time>2013-10-07T12:20:01Z</time>
      </trkpt>
      <trkpt lat="43.2153" lon="-0.19094">
        <ele>417.349609</ele>
        <time>2013-10-07T12:20:15Z</time>
      </trkpt>
      <trkpt lat="43.21533" lon="-0.1911">
        <ele>417.349609</ele>
        <time>2013-10-07T12:20:19Z</time>
      </trkpt>
      <trkpt lat="43.21548" lon="-0.19152">
        <ele>417.349609</ele>
        <time>2013-10-07T12:20:30Z</time>
      </trkpt>
      <trkpt lat="43.21562" lon="-0.19194">
        <ele>416.868896</ele>
        <time>2013-10-07T12:20:41Z</time>
      </trkpt>
      <trkpt lat="43.21573" lon="-0.19257">
        <ele>416.868896</ele>
        <time>2013-10-07T12:20:53Z</time>
      </trkpt>
      <trkpt lat="43.21581" lon="-0.19294">
        <ele>417.349609</ele>
        <time>2013-10-07T12:21:03Z</time>
      </trkpt>
      <trkpt lat="43.21586" lon="-0.19327">
        <ele>418.310791</ele>
        <time>2013-10-07T12:21:11Z</time>
      </trkpt>
      <trkpt lat="43.2159" lon="-0.19345">
        <ele>418.791504</ele>
        <time>2013-10-07T12:21:16Z</time>
      </trkpt>
      <trkpt lat="43.21597" lon="-0.19403">
        <ele>418.310791</ele>
        <time>2013-10-07T12:21:29Z</time>
      </trkpt>
      <trkpt lat="43.21619" lon="-0.19443">
        <ele>415.907471</ele>
        <time>2013-10-07T12:21:39Z</time>
      </trkpt>
      <trkpt lat="43.21644" lon="-0.19467">
        <ele>414.946167</ele>
        <time>2013-10-07T12:21:45Z</time>
      </trkpt>
      <trkpt lat="43.21661" lon="-0.19486">
        <ele>413.504272</ele>
        <time>2013-10-07T12:21:49Z</time>
      </trkpt>
      <trkpt lat="43.21682" lon="-0.1951">
        <ele>410.139648</ele>
        <time>2013-10-07T12:21:54Z</time>
      </trkpt>
      <trkpt lat="43.2171" lon="-0.19528">
        <ele>407.736328</ele>
        <time>2013-10-07T12:21:59Z</time>
      </trkpt>
      <trkpt lat="43.21721" lon="-0.19535">
        <ele>406.294312</ele>
        <time>2013-10-07T12:22:01Z</time>
      </trkpt>
      <trkpt lat="43.21751" lon="-0.19552">
        <ele>402.449097</ele>
        <time>2013-10-07T12:22:07Z</time>
      </trkpt>
      <trkpt lat="43.21755" lon="-0.19556">
        <ele>402.929688</ele>
        <time>2013-10-07T12:22:08Z</time>
      </trkpt>
      <trkpt lat="43.21769" lon="-0.19569">
        <ele>400.526489</ele>
        <time>2013-10-07T12:22:11Z</time>
      </trkpt>
      <trkpt lat="43.21775" lon="-0.19573">
        <ele>400.045898</ele>
        <time>2013-10-07T12:22:12Z</time>
      </trkpt>
      <trkpt lat="43.21782" lon="-0.19583">
        <ele>399.565063</ele>
        <time>2013-10-07T12:22:14Z</time>
      </trkpt>
      <trkpt lat="43.21794" lon="-0.19632">
        <ele>395.719849</ele>
        <time>2013-10-07T12:22:21Z</time>
      </trkpt>
      <trkpt lat="43.21795" lon="-0.19644">
        <ele>394.277954</ele>
        <time>2013-10-07T12:22:23Z</time>
      </trkpt>
      <trkpt lat="43.21797" lon="-0.19647">
        <ele>393.797241</ele>
        <time>2013-10-07T12:22:24Z</time>
      </trkpt>
      <trkpt lat="43.21807" lon="-0.1965">
        <ele>394.758545</ele>
        <time>2013-10-07T12:22:29Z</time>
      </trkpt>
      <trkpt lat="43.21838" lon="-0.19632">
        <ele>397.642456</ele>
        <time>2013-10-07T12:22:42Z</time>
      </trkpt>
      <trkpt lat="43.21871" lon="-0.19655">
        <ele>398.123169</ele>
        <time>2013-10-07T12:22:55Z</time>
      </trkpt>
      <trkpt lat="43.21907" lon="-0.19687">
        <ele>398.60376</ele>
        <time>2013-10-07T12:23:10Z</time>
      </trkpt>
      <trkpt lat="43.21949" lon="-0.19723">
        <ele>400.526489</ele>
        <time>2013-10-07T12:23:28Z</time>
      </trkpt>
      <trkpt lat="43.21994" lon="-0.19764">
        <ele>401.487793</ele>
        <time>2013-10-07T12:23:46Z</time>
      </trkpt>
      <trkpt lat="43.22037" lon="-0.19816">
        <ele>400.526489</ele>
        <time>2013-10-07T12:24:02Z</time>
      </trkpt>
      <trkpt lat="43.22082" lon="-0.19868">
        <ele>399.084351</ele>
        <time>2013-10-07T12:24:17Z</time>
      </trkpt>
      <trkpt lat="43.22132" lon="-0.19914">
        <ele>399.084351</ele>
        <time>2013-10-07T12:24:34Z</time>
      </trkpt>
      <trkpt lat="43.22156" lon="-0.19928">
        <ele>399.084351</ele>
        <time>2013-10-07T12:24:46Z</time>
      </trkpt>
      <trkpt lat="43.22161" lon="-0.19931">
        <ele>398.60376</ele>
        <time>2013-10-07T12:24:59Z</time>
      </trkpt>
      <trkpt lat="43.22162" lon="-0.19938">
        <ele>398.123169</ele>
        <time>2013-10-07T12:25:30Z</time>
      </trkpt>
      <trkpt lat="43.22163" lon="-0.19941">
        <ele>397.161743</ele>
        <time>2013-10-07T12:25:48Z</time>
      </trkpt>
      <trkpt lat="43.22163" lon="-0.19943">
        <ele>397.161743</ele>
        <time>2013-10-07T12:27:44Z</time>
      </trkpt>
      <trkpt lat="43.22162" lon="-0.19941">
        <ele>397.161743</ele>
        <time>2013-10-07T12:30:11Z</time>
      </trkpt>
      <trkpt lat="43.22165" lon="-0.19941">
        <ele>395.239136</ele>
        <time>2013-10-07T12:42:24Z</time>
      </trkpt>
      <trkpt lat="43.22165" lon="-0.19939">
        <ele>395.719849</ele>
        <time>2013-10-07T12:42:40Z</time>
      </trkpt>
      <trkpt lat="43.22161" lon="-0.19933">
        <ele>395.719849</ele>
        <time>2013-10-07T12:42:53Z</time>
      </trkpt>
      <trkpt lat="43.22161" lon="-0.19931">
        <ele>395.239136</ele>
        <time>2013-10-07T12:43:18Z</time>
      </trkpt>
      <trkpt lat="43.22159" lon="-0.19932">
        <ele>395.239136</ele>
        <time>2013-10-07T12:43:48Z</time>
      </trkpt>
      <trkpt lat="43.22158" lon="-0.19933">
        <ele>395.719849</ele>
        <time>2013-10-07T12:44:16Z</time>
      </trkpt>
      <trkpt lat="43.22156" lon="-0.19937">
        <ele>394.758545</ele>
        <time>2013-10-07T12:44:47Z</time>
      </trkpt>
      <trkpt lat="43.22154" lon="-0.19936">
        <ele>395.719849</ele>
        <time>2013-10-07T12:44:49Z</time>
      </trkpt>
      <trkpt lat="43.22152" lon="-0.19951">
        <ele>395.719849</ele>
        <time>2013-10-07T12:45:01Z</time>
      </trkpt>
      <trkpt lat="43.22153" lon="-0.19954">
        <ele>395.719849</ele>
        <time>2013-10-07T12:45:02Z</time>
      </trkpt>
      <trkpt lat="43.22181" lon="-0.20008">
        <ele>397.642456</ele>
        <time>2013-10-07T12:45:20Z</time>
      </trkpt>
      <trkpt lat="43.22199" lon="-0.20076">
        <ele>400.045898</ele>
        <time>2013-10-07T12:45:39Z</time>
      </trkpt>
      <trkpt lat="43.22227" lon="-0.20148">
        <ele>400.526489</ele>
        <time>2013-10-07T12:45:58Z</time>
      </trkpt>
      <trkpt lat="43.22275" lon="-0.20222">
        <ele>399.565063</ele>
        <time>2013-10-07T12:46:19Z</time>
      </trkpt>
      <trkpt lat="43.22319" lon="-0.20278">
        <ele>399.565063</ele>
        <time>2013-10-07T12:46:37Z</time>
      </trkpt>
      <trkpt lat="43.22353" lon="-0.20317">
        <ele>400.526489</ele>
        <time>2013-10-07T12:46:52Z</time>
      </trkpt>
      <trkpt lat="43.22373" lon="-0.2034">
        <ele>402.449097</ele>
        <time>2013-10-07T12:47:03Z</time>
      </trkpt>
      <trkpt lat="43.22389" lon="-0.20363">
        <ele>404.371704</ele>
        <time>2013-10-07T12:47:15Z</time>
      </trkpt>
      <trkpt lat="43.22416" lon="-0.20386">
        <ele>407.255615</ele>
        <time>2013-10-07T12:47:30Z</time>
      </trkpt>
      <trkpt lat="43.22434" lon="-0.20399">
        <ele>409.659058</ele>
        <time>2013-10-07T12:47:44Z</time>
      </trkpt>
      <trkpt lat="43.22457" lon="-0.20408">
        <ele>412.542847</ele>
        <time>2013-10-07T12:47:58Z</time>
      </trkpt>
      <trkpt lat="43.22477" lon="-0.20415">
        <ele>414.465454</ele>
        <time>2013-10-07T12:48:13Z</time>
      </trkpt>
      <trkpt lat="43.22495" lon="-0.20426">
        <ele>418.310791</ele>
        <time>2013-10-07T12:48:28Z</time>
      </trkpt>
      <trkpt lat="43.22513" lon="-0.20431">
        <ele>421.675415</ele>
        <time>2013-10-07T12:48:42Z</time>
      </trkpt>
      <trkpt lat="43.22536" lon="-0.20444">
        <ele>424.559448</ele>
        <time>2013-10-07T12:48:59Z</time>
      </trkpt>
      <trkpt lat="43.22557" lon="-0.20455">
        <ele>425.520752</ele>
        <time>2013-10-07T12:49:13Z</time>
      </trkpt>
      <trkpt lat="43.22562" lon="-0.20457">
        <ele>426.962769</ele>
        <time>2013-10-07T12:49:17Z</time>
      </trkpt>
      <trkpt lat="43.22575" lon="-0.20466">
        <ele>428.404663</ele>
        <time>2013-10-07T12:49:29Z</time>
      </trkpt>
      <trkpt lat="43.22581" lon="-0.2047">
        <ele>428.885376</ele>
        <time>2013-10-07T12:49:33Z</time>
      </trkpt>
      <trkpt lat="43.22602" lon="-0.20496">
        <ele>429.846558</ele>
        <time>2013-10-07T12:49:49Z</time>
      </trkpt>
      <trkpt lat="43.22618" lon="-0.20515">
        <ele>429.846558</ele>
        <time>2013-10-07T12:49:59Z</time>
      </trkpt>
      <trkpt lat="43.22628" lon="-0.20527">
        <ele>430.327271</ele>
        <time>2013-10-07T12:50:04Z</time>
      </trkpt>
      <trkpt lat="43.22637" lon="-0.20537">
        <ele>430.327271</ele>
        <time>2013-10-07T12:50:08Z</time>
      </trkpt>
      <trkpt lat="43.22667" lon="-0.20581">
        <ele>428.404663</ele>
        <time>2013-10-07T12:50:20Z</time>
      </trkpt>
      <trkpt lat="43.22669" lon="-0.20585">
        <ele>427.443359</ele>
        <time>2013-10-07T12:50:21Z</time>
      </trkpt>
      <trkpt lat="43.22694" lon="-0.20615">
        <ele>424.559448</ele>
        <time>2013-10-07T12:50:31Z</time>
      </trkpt>
      <trkpt lat="43.22697" lon="-0.2062">
        <ele>424.078735</ele>
        <time>2013-10-07T12:50:32Z</time>
      </trkpt>
      <trkpt lat="43.22716" lon="-0.20647">
        <ele>421.194824</ele>
        <time>2013-10-07T12:50:40Z</time>
      </trkpt>
      <trkpt lat="43.22717" lon="-0.2065">
        <ele>420.233398</ele>
        <time>2013-10-07T12:50:41Z</time>
      </trkpt>
      <trkpt lat="43.22726" lon="-0.20659">
        <ele>419.272217</ele>
        <time>2013-10-07T12:50:45Z</time>
      </trkpt>
      <trkpt lat="43.22731" lon="-0.20668">
        <ele>417.349609</ele>
        <time>2013-10-07T12:50:49Z</time>
      </trkpt>
      <trkpt lat="43.22744" lon="-0.20685">
        <ele>415.907471</ele>
        <time>2013-10-07T12:50:54Z</time>
      </trkpt>
      <trkpt lat="43.22774" lon="-0.20726">
        <ele>412.062256</ele>
        <time>2013-10-07T12:51:02Z</time>
      </trkpt>
      <trkpt lat="43.22799" lon="-0.20765">
        <ele>407.736328</ele>
        <time>2013-10-07T12:51:11Z</time>
      </trkpt>
      <trkpt lat="43.22802" lon="-0.20771">
        <ele>407.736328</ele>
        <time>2013-10-07T12:51:12Z</time>
      </trkpt>
      <trkpt lat="43.22806" lon="-0.20777">
        <ele>407.255615</ele>
        <time>2013-10-07T12:51:13Z</time>
      </trkpt>
      <trkpt lat="43.22817" lon="-0.20792">
        <ele>406.774902</ele>
        <time>2013-10-07T12:51:16Z</time>
      </trkpt>
      <trkpt lat="43.22859" lon="-0.20835">
        <ele>405.333008</ele>
        <time>2013-10-07T12:51:28Z</time>
      </trkpt>
      <trkpt lat="43.22876" lon="-0.20842">
        <ele>405.813721</ele>
        <time>2013-10-07T12:51:33Z</time>
      </trkpt>
      <trkpt lat="43.22906" lon="-0.20868">
        <ele>405.333008</ele>
        <time>2013-10-07T12:51:44Z</time>
      </trkpt>
      <trkpt lat="43.22948" lon="-0.20885">
        <ele>405.813721</ele>
        <time>2013-10-07T12:51:57Z</time>
      </trkpt>
      <trkpt lat="43.22987" lon="-0.20898">
        <ele>406.294312</ele>
        <time>2013-10-07T12:52:09Z</time>
      </trkpt>
      <trkpt lat="43.23025" lon="-0.20907">
        <ele>404.371704</ele>
        <time>2013-10-07T12:52:21Z</time>
      </trkpt>
      <trkpt lat="43.23037" lon="-0.20912">
        <ele>404.371704</ele>
        <time>2013-10-07T12:52:24Z</time>
      </trkpt>
      <trkpt lat="43.23074" lon="-0.20936">
        <ele>401.968506</ele>
        <time>2013-10-07T12:52:32Z</time>
      </trkpt>
      <trkpt lat="43.23109" lon="-0.20968">
        <ele>399.084351</ele>
        <time>2013-10-07T12:52:38Z</time>
      </trkpt>
      <trkpt lat="43.23138" lon="-0.20992">
        <ele>395.719849</ele>
        <time>2013-10-07T12:52:42Z</time>
      </trkpt>
      <trkpt lat="43.23145" lon="-0.20997">
        <ele>395.719849</ele>
        <time>2013-10-07T12:52:43Z</time>
      </trkpt>
      <trkpt lat="43.23162" lon="-0.2101">
        <ele>393.797241</ele>
        <time>2013-10-07T12:52:46Z</time>
      </trkpt>
      <trkpt lat="43.23184" lon="-0.21031">
        <ele>390.913208</ele>
        <time>2013-10-07T12:52:50Z</time>
      </trkpt>
      <trkpt lat="43.23198" lon="-0.21043">
        <ele>390.432617</ele>
        <time>2013-10-07T12:52:52Z</time>
      </trkpt>
      <trkpt lat="43.23219" lon="-0.21061">
        <ele>387.067993</ele>
        <time>2013-10-07T12:52:55Z</time>
      </trkpt>
      <trkpt lat="43.23269" lon="-0.21112">
        <ele>383.222656</ele>
        <time>2013-10-07T12:53:04Z</time>
      </trkpt>
      <trkpt lat="43.23276" lon="-0.21122">
        <ele>382.261353</ele>
        <time>2013-10-07T12:53:06Z</time>
      </trkpt>
      <trkpt lat="43.23282" lon="-0.21131">
        <ele>381.78064</ele>
        <time>2013-10-07T12:53:08Z</time>
      </trkpt>
      <trkpt lat="43.23316" lon="-0.21166">
        <ele>377.935425</ele>
        <time>2013-10-07T12:53:18Z</time>
      </trkpt>
      <trkpt lat="43.23336" lon="-0.21188">
        <ele>375.532104</ele>
        <time>2013-10-07T12:53:33Z</time>
      </trkpt>
      <trkpt lat="43.23356" lon="-0.21219">
        <ele>376.012817</ele>
        <time>2013-10-07T12:53:50Z</time>
      </trkpt>
      <trkpt lat="43.2338" lon="-0.21268">
        <ele>375.532104</ele>
        <time>2013-10-07T12:54:02Z</time>
      </trkpt>
      <trkpt lat="43.23407" lon="-0.21324">
        <ele>375.051514</ele>
        <time>2013-10-07T12:54:14Z</time>
      </trkpt>
      <trkpt lat="43.23428" lon="-0.21374">
        <ele>375.532104</ele>
        <time>2013-10-07T12:54:24Z</time>
      </trkpt>
      <trkpt lat="43.23443" lon="-0.21404">
        <ele>375.051514</ele>
        <time>2013-10-07T12:54:30Z</time>
      </trkpt>
      <trkpt lat="43.23452" lon="-0.21418">
        <ele>374.570801</ele>
        <time>2013-10-07T12:54:33Z</time>
      </trkpt>
      <trkpt lat="43.23464" lon="-0.21448">
        <ele>375.532104</ele>
        <time>2013-10-07T12:54:40Z</time>
      </trkpt>
      <trkpt lat="43.23484" lon="-0.21468">
        <ele>378.416138</ele>
        <time>2013-10-07T12:54:53Z</time>
      </trkpt>
      <trkpt lat="43.23507" lon="-0.21486">
        <ele>379.858032</ele>
        <time>2013-10-07T12:55:05Z</time>
      </trkpt>
      <trkpt lat="43.23524" lon="-0.215">
        <ele>381.78064</ele>
        <time>2013-10-07T12:55:15Z</time>
      </trkpt>
      <trkpt lat="43.23528" lon="-0.21505">
        <ele>381.78064</ele>
        <time>2013-10-07T12:55:18Z</time>
      </trkpt>
      <trkpt lat="43.23553" lon="-0.21534">
        <ele>383.222656</ele>
        <time>2013-10-07T12:55:35Z</time>
      </trkpt>
      <trkpt lat="43.2357" lon="-0.21565">
        <ele>386.106689</ele>
        <time>2013-10-07T12:55:52Z</time>
      </trkpt>
      <trkpt lat="43.23572" lon="-0.2157">
        <ele>386.587402</ele>
        <time>2013-10-07T12:55:55Z</time>
      </trkpt>
      <trkpt lat="43.2358" lon="-0.2158">
        <ele>387.067993</ele>
        <time>2013-10-07T12:56:04Z</time>
      </trkpt>
      <trkpt lat="43.236" lon="-0.21608">
        <ele>388.51001</ele>
        <time>2013-10-07T12:56:19Z</time>
      </trkpt>
      <trkpt lat="43.23605" lon="-0.21621">
        <ele>390.913208</ele>
        <time>2013-10-07T12:56:26Z</time>
      </trkpt>
      <trkpt lat="43.23615" lon="-0.21635">
        <ele>392.355347</ele>
        <time>2013-10-07T12:56:38Z</time>
      </trkpt>
      <trkpt lat="43.23631" lon="-0.21656">
        <ele>393.797241</ele>
        <time>2013-10-07T12:56:52Z</time>
      </trkpt>
      <trkpt lat="43.23641" lon="-0.21685">
        <ele>396.200562</ele>
        <time>2013-10-07T12:57:07Z</time>
      </trkpt>
      <trkpt lat="43.23641" lon="-0.21687">
        <ele>396.200562</ele>
        <time>2013-10-07T12:57:08Z</time>
      </trkpt>
      <trkpt lat="43.23652" lon="-0.21704">
        <ele>398.60376</ele>
        <time>2013-10-07T12:57:22Z</time>
      </trkpt>
      <trkpt lat="43.23659" lon="-0.21721">
        <ele>401.487793</ele>
        <time>2013-10-07T12:57:36Z</time>
      </trkpt>
      <trkpt lat="43.23668" lon="-0.21742">
        <ele>404.852295</ele>
        <time>2013-10-07T12:57:50Z</time>
      </trkpt>
      <trkpt lat="43.23672" lon="-0.21756">
        <ele>405.333008</ele>
        <time>2013-10-07T12:58:00Z</time>
      </trkpt>
      <trkpt lat="43.23675" lon="-0.21766">
        <ele>406.294312</ele>
        <time>2013-10-07T12:58:14Z</time>
      </trkpt>
      <trkpt lat="43.23679" lon="-0.21782">
        <ele>409.178345</ele>
        <time>2013-10-07T12:58:30Z</time>
      </trkpt>
      <trkpt lat="43.23682" lon="-0.2179">
        <ele>410.139648</ele>
        <time>2013-10-07T12:58:47Z</time>
      </trkpt>
      <trkpt lat="43.23685" lon="-0.21793">
        <ele>410.139648</ele>
        <time>2013-10-07T12:58:57Z</time>
      </trkpt>
      <trkpt lat="43.23697" lon="-0.21817">
        <ele>412.542847</ele>
        <time>2013-10-07T12:59:12Z</time>
      </trkpt>
      <trkpt lat="43.23707" lon="-0.21846">
        <ele>413.504272</ele>
        <time>2013-10-07T12:59:25Z</time>
      </trkpt>
      <trkpt lat="43.23726" lon="-0.2188">
        <ele>413.984863</ele>
        <time>2013-10-07T12:59:38Z</time>
      </trkpt>
      <trkpt lat="43.23746" lon="-0.21923">
        <ele>414.946167</ele>
        <time>2013-10-07T12:59:50Z</time>
      </trkpt>
      <trkpt lat="43.23767" lon="-0.2196">
        <ele>413.984863</ele>
        <time>2013-10-07T13:00:01Z</time>
      </trkpt>
      <trkpt lat="43.23786" lon="-0.21988">
        <ele>413.984863</ele>
        <time>2013-10-07T13:00:09Z</time>
      </trkpt>
      <trkpt lat="43.23821" lon="-0.2202">
        <ele>413.504272</ele>
        <time>2013-10-07T13:00:19Z</time>
      </trkpt>
      <trkpt lat="43.23856" lon="-0.22048">
        <ele>413.504272</ele>
        <time>2013-10-07T13:00:30Z</time>
      </trkpt>
      <trkpt lat="43.23883" lon="-0.22096">
        <ele>413.02356</ele>
        <time>2013-10-07T13:00:44Z</time>
      </trkpt>
      <trkpt lat="43.23897" lon="-0.22154">
        <ele>413.02356</ele>
        <time>2013-10-07T13:00:57Z</time>
      </trkpt>
      <trkpt lat="43.2392" lon="-0.22211">
        <ele>412.062256</ele>
        <time>2013-10-07T13:01:10Z</time>
      </trkpt>
      <trkpt lat="43.23932" lon="-0.22269">
        <ele>413.02356</ele>
        <time>2013-10-07T13:01:24Z</time>
      </trkpt>
      <trkpt lat="43.23933" lon="-0.22318">
        <ele>413.02356</ele>
        <time>2013-10-07T13:01:35Z</time>
      </trkpt>
      <trkpt lat="43.23937" lon="-0.22369">
        <ele>413.984863</ele>
        <time>2013-10-07T13:01:46Z</time>
      </trkpt>
      <trkpt lat="43.23944" lon="-0.22421">
        <ele>413.02356</ele>
        <time>2013-10-07T13:01:58Z</time>
      </trkpt>
      <trkpt lat="43.23955" lon="-0.22478">
        <ele>413.02356</ele>
        <time>2013-10-07T13:02:10Z</time>
      </trkpt>
      <trkpt lat="43.23964" lon="-0.22524">
        <ele>413.504272</ele>
        <time>2013-10-07T13:02:21Z</time>
      </trkpt>
      <trkpt lat="43.23975" lon="-0.2256">
        <ele>414.946167</ele>
        <time>2013-10-07T13:02:34Z</time>
      </trkpt>
      <trkpt lat="43.23982" lon="-0.22588">
        <ele>416.868896</ele>
        <time>2013-10-07T13:02:46Z</time>
      </trkpt>
      <trkpt lat="43.23988" lon="-0.22614">
        <ele>419.752808</ele>
        <time>2013-10-07T13:03:00Z</time>
      </trkpt>
      <trkpt lat="43.23994" lon="-0.22629">
        <ele>421.194824</ele>
        <time>2013-10-07T13:03:09Z</time>
      </trkpt>
      <trkpt lat="43.24006" lon="-0.22651">
        <ele>423.598022</ele>
        <time>2013-10-07T13:03:26Z</time>
      </trkpt>
      <trkpt lat="43.24014" lon="-0.22676">
        <ele>425.040161</ele>
        <time>2013-10-07T13:03:42Z</time>
      </trkpt>
      <trkpt lat="43.24021" lon="-0.22706">
        <ele>425.520752</ele>
        <time>2013-10-07T13:03:56Z</time>
      </trkpt>
      <trkpt lat="43.24043" lon="-0.22735">
        <ele>424.559448</ele>
        <time>2013-10-07T13:04:08Z</time>
      </trkpt>
      <trkpt lat="43.24075" lon="-0.22767">
        <ele>424.078735</ele>
        <time>2013-10-07T13:04:18Z</time>
      </trkpt>
      <trkpt lat="43.24098" lon="-0.22804">
        <ele>423.598022</ele>
        <time>2013-10-07T13:04:27Z</time>
      </trkpt>
      <trkpt lat="43.24113" lon="-0.22842">
        <ele>422.156006</ele>
        <time>2013-10-07T13:04:36Z</time>
      </trkpt>
      <trkpt lat="43.24124" lon="-0.22856">
        <ele>421.194824</ele>
        <time>2013-10-07T13:04:41Z</time>
      </trkpt>
      <trkpt lat="43.24144" lon="-0.22878">
        <ele>420.233398</ele>
        <time>2013-10-07T13:04:47Z</time>
      </trkpt>
      <trkpt lat="43.24155" lon="-0.2289">
        <ele>419.272217</ele>
        <time>2013-10-07T13:04:50Z</time>
      </trkpt>
      <trkpt lat="43.24198" lon="-0.22941">
        <ele>416.868896</ele>
        <time>2013-10-07T13:05:03Z</time>
      </trkpt>
      <trkpt lat="43.24206" lon="-0.22945">
        <ele>416.388184</ele>
        <time>2013-10-07T13:05:05Z</time>
      </trkpt>
      <trkpt lat="43.24213" lon="-0.22945">
        <ele>415.42688</ele>
        <time>2013-10-07T13:05:07Z</time>
      </trkpt>
      <trkpt lat="43.24226" lon="-0.22948">
        <ele>414.465454</ele>
        <time>2013-10-07T13:05:10Z</time>
      </trkpt>
      <trkpt lat="43.24236" lon="-0.22952">
        <ele>414.465454</ele>
        <time>2013-10-07T13:05:12Z</time>
      </trkpt>
      <trkpt lat="43.24246" lon="-0.22958">
        <ele>412.542847</ele>
        <time>2013-10-07T13:05:14Z</time>
      </trkpt>
      <trkpt lat="43.24285" lon="-0.22982">
        <ele>413.02356</ele>
        <time>2013-10-07T13:05:24Z</time>
      </trkpt>
      <trkpt lat="43.24293" lon="-0.22986">
        <ele>413.504272</ele>
        <time>2013-10-07T13:05:27Z</time>
      </trkpt>
      <trkpt lat="43.24295" lon="-0.22989">
        <ele>414.465454</ele>
        <time>2013-10-07T13:05:29Z</time>
      </trkpt>
      <trkpt lat="43.24302" lon="-0.22996">
        <ele>414.465454</ele>
        <time>2013-10-07T13:05:34Z</time>
      </trkpt>
      <trkpt lat="43.24308" lon="-0.23001">
        <ele>416.388184</ele>
        <time>2013-10-07T13:05:38Z</time>
      </trkpt>
      <trkpt lat="43.24329" lon="-0.23019">
        <ele>418.310791</ele>
        <time>2013-10-07T13:05:51Z</time>
      </trkpt>
      <trkpt lat="43.24353" lon="-0.23048">
        <ele>418.310791</ele>
        <time>2013-10-07T13:06:03Z</time>
      </trkpt>
      <trkpt lat="43.24402" lon="-0.23095">
        <ele>416.868896</ele>
        <time>2013-10-07T13:06:18Z</time>
      </trkpt>
      <trkpt lat="43.24456" lon="-0.23169">
        <ele>413.504272</ele>
        <time>2013-10-07T13:06:33Z</time>
      </trkpt>
      <trkpt lat="43.24464" lon="-0.2318">
        <ele>412.062256</ele>
        <time>2013-10-07T13:06:35Z</time>
      </trkpt>
      <trkpt lat="43.24473" lon="-0.23198">
        <ele>412.062256</ele>
        <time>2013-10-07T13:06:38Z</time>
      </trkpt>
      <trkpt lat="43.24474" lon="-0.23237">
        <ele>411.100952</ele>
        <time>2013-10-07T13:06:43Z</time>
      </trkpt>
      <trkpt lat="43.24473" lon="-0.23262">
        <ele>410.620239</ele>
        <time>2013-10-07T13:06:46Z</time>
      </trkpt>
      <trkpt lat="43.24491" lon="-0.23307">
        <ele>407.736328</ele>
        <time>2013-10-07T13:06:52Z</time>
      </trkpt>
      <trkpt lat="43.24496" lon="-0.23313">
        <ele>407.736328</ele>
        <time>2013-10-07T13:06:53Z</time>
      </trkpt>
      <trkpt lat="43.24508" lon="-0.23323">
        <ele>406.774902</ele>
        <time>2013-10-07T13:06:55Z</time>
      </trkpt>
      <trkpt lat="43.24525" lon="-0.23334">
        <ele>405.333008</ele>
        <time>2013-10-07T13:06:58Z</time>
      </trkpt>
      <trkpt lat="43.24538" lon="-0.23365">
        <ele>402.929688</ele>
        <time>2013-10-07T13:07:06Z</time>
      </trkpt>
      <trkpt lat="43.24555" lon="-0.234">
        <ele>403.891113</ele>
        <time>2013-10-07T13:07:16Z</time>
      </trkpt>
      <trkpt lat="43.24561" lon="-0.23406">
        <ele>403.4104</ele>
        <time>2013-10-07T13:07:24Z</time>
      </trkpt>
      <trkpt lat="43.24562" lon="-0.23404">
        <ele>404.371704</ele>
        <time>2013-10-07T13:07:42Z</time>
      </trkpt>
      <trkpt lat="43.24561" lon="-0.23404">
        <ele>404.371704</ele>
        <time>2013-10-07T13:08:00Z</time>
      </trkpt>
      <trkpt lat="43.24573" lon="-0.23418">
        <ele>405.333008</ele>
        <time>2013-10-07T13:08:13Z</time>
      </trkpt>
      <trkpt lat="43.24586" lon="-0.23438">
        <ele>406.294312</ele>
        <time>2013-10-07T13:08:22Z</time>
      </trkpt>
      <trkpt lat="43.24599" lon="-0.2347">
        <ele>406.774902</ele>
        <time>2013-10-07T13:08:33Z</time>
      </trkpt>
      <trkpt lat="43.24618" lon="-0.23502">
        <ele>409.178345</ele>
        <time>2013-10-07T13:08:48Z</time>
      </trkpt>
      <trkpt lat="43.24626" lon="-0.23514">
        <ele>411.100952</ele>
        <time>2013-10-07T13:08:54Z</time>
      </trkpt>
      <trkpt lat="43.24635" lon="-0.23527">
        <ele>411.581665</ele>
        <time>2013-10-07T13:09:01Z</time>
      </trkpt>
      <trkpt lat="43.24659" lon="-0.23552">
        <ele>412.542847</ele>
        <time>2013-10-07T13:09:16Z</time>
      </trkpt>
      <trkpt lat="43.24682" lon="-0.23569">
        <ele>413.504272</ele>
        <time>2013-10-07T13:09:29Z</time>
      </trkpt>
      <trkpt lat="43.24692" lon="-0.23607">
        <ele>414.946167</ele>
        <time>2013-10-07T13:09:41Z</time>
      </trkpt>
      <trkpt lat="43.24705" lon="-0.23648">
        <ele>412.542847</ele>
        <time>2013-10-07T13:09:54Z</time>
      </trkpt>
      <trkpt lat="43.24724" lon="-0.23698">
        <ele>411.581665</ele>
        <time>2013-10-07T13:10:04Z</time>
      </trkpt>
      <trkpt lat="43.24731" lon="-0.23708">
        <ele>410.620239</ele>
        <time>2013-10-07T13:10:07Z</time>
      </trkpt>
      <trkpt lat="43.24757" lon="-0.23724">
        <ele>408.697632</ele>
        <time>2013-10-07T13:10:13Z</time>
      </trkpt>
      <trkpt lat="43.24774" lon="-0.23735">
        <ele>407.255615</ele>
        <time>2013-10-07T13:10:16Z</time>
      </trkpt>
      <trkpt lat="43.24832" lon="-0.2378">
        <ele>402.929688</ele>
        <time>2013-10-07T13:10:26Z</time>
      </trkpt>
      <trkpt lat="43.24885" lon="-0.23837">
        <ele>399.084351</ele>
        <time>2013-10-07T13:10:36Z</time>
      </trkpt>
      <trkpt lat="43.24925" lon="-0.23886">
        <ele>396.200562</ele>
        <time>2013-10-07T13:10:44Z</time>
      </trkpt>
      <trkpt lat="43.24929" lon="-0.23891">
        <ele>395.719849</ele>
        <time>2013-10-07T13:10:45Z</time>
      </trkpt>
      <trkpt lat="43.24938" lon="-0.23903">
        <ele>394.758545</ele>
        <time>2013-10-07T13:10:47Z</time>
      </trkpt>
      <trkpt lat="43.24945" lon="-0.23913">
        <ele>393.797241</ele>
        <time>2013-10-07T13:10:49Z</time>
      </trkpt>
      <trkpt lat="43.24984" lon="-0.23967">
        <ele>389.951904</ele>
        <time>2013-10-07T13:10:58Z</time>
      </trkpt>
      <trkpt lat="43.25003" lon="-0.23999">
        <ele>387.067993</ele>
        <time>2013-10-07T13:11:03Z</time>
      </trkpt>
      <trkpt lat="43.25006" lon="-0.24003">
        <ele>386.106689</ele>
        <time>2013-10-07T13:11:04Z</time>
      </trkpt>
      <trkpt lat="43.25038" lon="-0.2405">
        <ele>383.222656</ele>
        <time>2013-10-07T13:11:14Z</time>
      </trkpt>
      <trkpt lat="43.25071" lon="-0.241">
        <ele>382.261353</ele>
        <time>2013-10-07T13:11:25Z</time>
      </trkpt>
      <trkpt lat="43.25082" lon="-0.24117">
        <ele>381.300049</ele>
        <time>2013-10-07T13:11:29Z</time>
      </trkpt>
      <trkpt lat="43.25092" lon="-0.24136">
        <ele>381.300049</ele>
        <time>2013-10-07T13:11:33Z</time>
      </trkpt>
      <trkpt lat="43.2513" lon="-0.24215">
        <ele>379.377441</ele>
        <time>2013-10-07T13:11:47Z</time>
      </trkpt>
      <trkpt lat="43.25145" lon="-0.24245">
        <ele>377.454834</ele>
        <time>2013-10-07T13:11:51Z</time>
      </trkpt>
      <trkpt lat="43.25154" lon="-0.24261">
        <ele>376.012817</ele>
        <time>2013-10-07T13:11:53Z</time>
      </trkpt>
      <trkpt lat="43.25185" lon="-0.2431">
        <ele>373.128906</ele>
        <time>2013-10-07T13:11:59Z</time>
      </trkpt>
      <trkpt lat="43.25204" lon="-0.24346">
        <ele>373.128906</ele>
        <time>2013-10-07T13:12:05Z</time>
      </trkpt>
      <trkpt lat="43.25223" lon="-0.24377">
        <ele>373.609497</ele>
        <time>2013-10-07T13:12:12Z</time>
      </trkpt>
      <trkpt lat="43.25267" lon="-0.24445">
        <ele>375.051514</ele>
        <time>2013-10-07T13:12:30Z</time>
      </trkpt>
      <trkpt lat="43.25308" lon="-0.24488">
        <ele>375.051514</ele>
        <time>2013-10-07T13:12:47Z</time>
      </trkpt>
      <trkpt lat="43.25338" lon="-0.24537">
        <ele>374.570801</ele>
        <time>2013-10-07T13:13:02Z</time>
      </trkpt>
      <trkpt lat="43.25356" lon="-0.24573">
        <ele>375.051514</ele>
        <time>2013-10-07T13:13:13Z</time>
      </trkpt>
      <trkpt lat="43.25375" lon="-0.24607">
        <ele>374.570801</ele>
        <time>2013-10-07T13:13:23Z</time>
      </trkpt>
      <trkpt lat="43.25384" lon="-0.24626">
        <ele>375.051514</ele>
        <time>2013-10-07T13:13:28Z</time>
      </trkpt>
      <trkpt lat="43.2542" lon="-0.247">
        <ele>376.012817</ele>
        <time>2013-10-07T13:13:48Z</time>
      </trkpt>
      <trkpt lat="43.25451" lon="-0.24751">
        <ele>376.012817</ele>
        <time>2013-10-07T13:14:04Z</time>
      </trkpt>
      <trkpt lat="43.25501" lon="-0.24818">
        <ele>372.648193</ele>
        <time>2013-10-07T13:14:20Z</time>
      </trkpt>
      <trkpt lat="43.25562" lon="-0.24871">
        <ele>369.283691</ele>
        <time>2013-10-07T13:14:33Z</time>
      </trkpt>
      <trkpt lat="43.25567" lon="-0.24875">
        <ele>369.764282</ele>
        <time>2013-10-07T13:14:34Z</time>
      </trkpt>
      <trkpt lat="43.25628" lon="-0.24923">
        <ele>365.918945</ele>
        <time>2013-10-07T13:14:47Z</time>
      </trkpt>
      <trkpt lat="43.2564" lon="-0.24928">
        <ele>364.957642</ele>
        <time>2013-10-07T13:14:49Z</time>
      </trkpt>
      <trkpt lat="43.25698" lon="-0.24951">
        <ele>361.59314</ele>
        <time>2013-10-07T13:14:59Z</time>
      </trkpt>
      <trkpt lat="43.25709" lon="-0.24957">
        <ele>360.631714</ele>
        <time>2013-10-07T13:15:01Z</time>
      </trkpt>
      <trkpt lat="43.25758" lon="-0.25002">
        <ele>360.151123</ele>
        <time>2013-10-07T13:15:14Z</time>
      </trkpt>
      <trkpt lat="43.25777" lon="-0.25031">
        <ele>359.67041</ele>
        <time>2013-10-07T13:15:24Z</time>
      </trkpt>
      <trkpt lat="43.25799" lon="-0.25076">
        <ele>361.59314</ele>
        <time>2013-10-07T13:15:38Z</time>
      </trkpt>
      <trkpt lat="43.25818" lon="-0.25129">
        <ele>362.554321</ele>
        <time>2013-10-07T13:15:53Z</time>
      </trkpt>
      <trkpt lat="43.25835" lon="-0.25191">
        <ele>359.189697</ele>
        <time>2013-10-07T13:16:04Z</time>
      </trkpt>
      <trkpt lat="43.2585" lon="-0.25209">
        <ele>358.708984</ele>
        <time>2013-10-07T13:16:08Z</time>
      </trkpt>
      <trkpt lat="43.25869" lon="-0.2522">
        <ele>354.86377</ele>
        <time>2013-10-07T13:16:11Z</time>
      </trkpt>
      <trkpt lat="43.25894" lon="-0.25233">
        <ele>352.460571</ele>
        <time>2013-10-07T13:16:15Z</time>
      </trkpt>
      <trkpt lat="43.25912" lon="-0.25242">
        <ele>349.095825</ele>
        <time>2013-10-07T13:16:18Z</time>
      </trkpt>
      <trkpt lat="43.25923" lon="-0.25248">
        <ele>348.134644</ele>
        <time>2013-10-07T13:16:20Z</time>
      </trkpt>
      <trkpt lat="43.25934" lon="-0.25253">
        <ele>347.173218</ele>
        <time>2013-10-07T13:16:22Z</time>
      </trkpt>
      <trkpt lat="43.25945" lon="-0.2526">
        <ele>344.289429</ele>
        <time>2013-10-07T13:16:24Z</time>
      </trkpt>
      <trkpt lat="43.25967" lon="-0.25274">
        <ele>342.84729</ele>
        <time>2013-10-07T13:16:28Z</time>
      </trkpt>
      <trkpt lat="43.25991" lon="-0.25289">
        <ele>340.924683</ele>
        <time>2013-10-07T13:16:33Z</time>
      </trkpt>
      <trkpt lat="43.26008" lon="-0.253">
        <ele>339.482666</ele>
        <time>2013-10-07T13:16:36Z</time>
      </trkpt>
      <trkpt lat="43.26014" lon="-0.25304">
        <ele>338.521484</ele>
        <time>2013-10-07T13:16:37Z</time>
      </trkpt>
      <trkpt lat="43.26033" lon="-0.25314">
        <ele>337.079468</ele>
        <time>2013-10-07T13:16:40Z</time>
      </trkpt>
      <trkpt lat="43.26045" lon="-0.25322">
        <ele>336.118164</ele>
        <time>2013-10-07T13:16:42Z</time>
      </trkpt>
      <trkpt lat="43.26086" lon="-0.25359">
        <ele>333.714722</ele>
        <time>2013-10-07T13:16:50Z</time>
      </trkpt>
      <trkpt lat="43.26167" lon="-0.25418">
        <ele>331.792114</ele>
        <time>2013-10-07T13:17:08Z</time>
      </trkpt>
      <trkpt lat="43.26207" lon="-0.25448">
        <ele>331.311523</ele>
        <time>2013-10-07T13:17:18Z</time>
      </trkpt>
      <trkpt lat="43.26256" lon="-0.25484">
        <ele>332.272827</ele>
        <time>2013-10-07T13:17:34Z</time>
      </trkpt>
      <trkpt lat="43.26284" lon="-0.25531">
        <ele>335.156738</ele>
        <time>2013-10-07T13:17:53Z</time>
      </trkpt>
      <trkpt lat="43.26296" lon="-0.25566">
        <ele>338.521484</ele>
        <time>2013-10-07T13:18:06Z</time>
      </trkpt>
      <trkpt lat="43.26307" lon="-0.25608">
        <ele>341.405273</ele>
        <time>2013-10-07T13:18:24Z</time>
      </trkpt>
      <trkpt lat="43.26316" lon="-0.25641">
        <ele>342.84729</ele>
        <time>2013-10-07T13:18:41Z</time>
      </trkpt>
      <trkpt lat="43.26319" lon="-0.2569">
        <ele>343.808594</ele>
        <time>2013-10-07T13:19:01Z</time>
      </trkpt>
      <trkpt lat="43.26317" lon="-0.25735">
        <ele>346.692627</ele>
        <time>2013-10-07T13:19:20Z</time>
      </trkpt>
      <trkpt lat="43.26311" lon="-0.25778">
        <ele>349.095825</ele>
        <time>2013-10-07T13:19:36Z</time>
      </trkpt>
      <trkpt lat="43.26303" lon="-0.25827">
        <ele>350.537842</ele>
        <time>2013-10-07T13:19:53Z</time>
      </trkpt>
      <trkpt lat="43.26304" lon="-0.25876">
        <ele>350.537842</ele>
        <time>2013-10-07T13:20:09Z</time>
      </trkpt>
      <trkpt lat="43.26318" lon="-0.2594">
        <ele>348.134644</ele>
        <time>2013-10-07T13:20:24Z</time>
      </trkpt>
      <trkpt lat="43.26346" lon="-0.25992">
        <ele>346.212036</ele>
        <time>2013-10-07T13:20:37Z</time>
      </trkpt>
      <trkpt lat="43.2638" lon="-0.26024">
        <ele>345.25061</ele>
        <time>2013-10-07T13:20:49Z</time>
      </trkpt>
      <trkpt lat="43.26389" lon="-0.26029">
        <ele>344.77002</ele>
        <time>2013-10-07T13:20:52Z</time>
      </trkpt>
      <trkpt lat="43.26434" lon="-0.26051">
        <ele>342.366699</ele>
        <time>2013-10-07T13:21:05Z</time>
      </trkpt>
      <trkpt lat="43.2649" lon="-0.26083">
        <ele>340.924683</ele>
        <time>2013-10-07T13:21:18Z</time>
      </trkpt>
      <trkpt lat="43.26494" lon="-0.26085">
        <ele>340.444092</ele>
        <time>2013-10-07T13:21:19Z</time>
      </trkpt>
      <trkpt lat="43.26512" lon="-0.2609">
        <ele>339.482666</ele>
        <time>2013-10-07T13:21:23Z</time>
      </trkpt>
      <trkpt lat="43.26547" lon="-0.261">
        <ele>335.637329</ele>
        <time>2013-10-07T13:21:31Z</time>
      </trkpt>
      <trkpt lat="43.26551" lon="-0.26104">
        <ele>334.195435</ele>
        <time>2013-10-07T13:21:33Z</time>
      </trkpt>
      <trkpt lat="43.26569" lon="-0.26117">
        <ele>331.792114</ele>
        <time>2013-10-07T13:21:38Z</time>
      </trkpt>
      <trkpt lat="43.26588" lon="-0.26134">
        <ele>330.830933</ele>
        <time>2013-10-07T13:21:42Z</time>
      </trkpt>
      <trkpt lat="43.26596" lon="-0.26144">
        <ele>329.388916</ele>
        <time>2013-10-07T13:21:44Z</time>
      </trkpt>
      <trkpt lat="43.2661" lon="-0.26164">
        <ele>326.02417</ele>
        <time>2013-10-07T13:21:48Z</time>
      </trkpt>
      <trkpt lat="43.26614" lon="-0.26169">
        <ele>326.02417</ele>
        <time>2013-10-07T13:21:49Z</time>
      </trkpt>
      <trkpt lat="43.26626" lon="-0.26184">
        <ele>324.101563</ele>
        <time>2013-10-07T13:21:52Z</time>
      </trkpt>
      <trkpt lat="43.26652" lon="-0.26228">
        <ele>320.256348</ele>
        <time>2013-10-07T13:21:58Z</time>
      </trkpt>
      <trkpt lat="43.26656" lon="-0.26237">
        <ele>320.737061</ele>
        <time>2013-10-07T13:21:59Z</time>
      </trkpt>
      <trkpt lat="43.26673" lon="-0.26269">
        <ele>317.372437</ele>
        <time>2013-10-07T13:22:02Z</time>
      </trkpt>
      <trkpt lat="43.26696" lon="-0.26316">
        <ele>313.046509</ele>
        <time>2013-10-07T13:22:06Z</time>
      </trkpt>
      <trkpt lat="43.26707" lon="-0.26337">
        <ele>310.643066</ele>
        <time>2013-10-07T13:22:08Z</time>
      </trkpt>
      <trkpt lat="43.26725" lon="-0.26369">
        <ele>306.797852</ele>
        <time>2013-10-07T13:22:11Z</time>
      </trkpt>
      <trkpt lat="43.26741" lon="-0.26401">
        <ele>302.952515</ele>
        <time>2013-10-07T13:22:14Z</time>
      </trkpt>
      <trkpt lat="43.26751" lon="-0.26421">
        <ele>301.51062</ele>
        <time>2013-10-07T13:22:16Z</time>
      </trkpt>
      <trkpt lat="43.26762" lon="-0.26449">
        <ele>299.588013</ele>
        <time>2013-10-07T13:22:19Z</time>
      </trkpt>
      <trkpt lat="43.26767" lon="-0.26467">
        <ele>298.626709</ele>
        <time>2013-10-07T13:22:21Z</time>
      </trkpt>
      <trkpt lat="43.26769" lon="-0.26496">
        <ele>296.704102</ele>
        <time>2013-10-07T13:22:25Z</time>
      </trkpt>
      <trkpt lat="43.2677" lon="-0.26505">
        <ele>296.223511</ele>
        <time>2013-10-07T13:22:27Z</time>
      </trkpt>
      <trkpt lat="43.26786" lon="-0.26517">
        <ele>294.781372</ele>
        <time>2013-10-07T13:22:38Z</time>
      </trkpt>
      <trkpt lat="43.26786" lon="-0.26515">
        <ele>294.300781</ele>
        <time>2013-10-07T13:22:50Z</time>
      </trkpt>
      <trkpt lat="43.2678" lon="-0.26531">
        <ele>295.261963</ele>
        <time>2013-10-07T13:22:56Z</time>
      </trkpt>
      <trkpt lat="43.2678" lon="-0.26556">
        <ele>295.261963</ele>
        <time>2013-10-07T13:23:05Z</time>
      </trkpt>
      <trkpt lat="43.26794" lon="-0.26591">
        <ele>298.626709</ele>
        <time>2013-10-07T13:23:20Z</time>
      </trkpt>
      <trkpt lat="43.2681" lon="-0.26626">
        <ele>300.549316</ele>
        <time>2013-10-07T13:23:36Z</time>
      </trkpt>
      <trkpt lat="43.26821" lon="-0.26659">
        <ele>303.91394</ele>
        <time>2013-10-07T13:23:50Z</time>
      </trkpt>
      <trkpt lat="43.26836" lon="-0.26698">
        <ele>306.317261</ele>
        <time>2013-10-07T13:24:08Z</time>
      </trkpt>
      <trkpt lat="43.26853" lon="-0.26742">
        <ele>309.681885</ele>
        <time>2013-10-07T13:24:29Z</time>
      </trkpt>
      <trkpt lat="43.2687" lon="-0.26785">
        <ele>311.604492</ele>
        <time>2013-10-07T13:24:49Z</time>
      </trkpt>
      <trkpt lat="43.26885" lon="-0.26825">
        <ele>314.007813</ele>
        <time>2013-10-07T13:25:06Z</time>
      </trkpt>
      <trkpt lat="43.26907" lon="-0.26867">
        <ele>314.007813</ele>
        <time>2013-10-07T13:25:22Z</time>
      </trkpt>
      <trkpt lat="43.26944" lon="-0.26945">
        <ele>312.565796</ele>
        <time>2013-10-07T13:25:37Z</time>
      </trkpt>
      <trkpt lat="43.26965" lon="-0.26989">
        <ele>310.162476</ele>
        <time>2013-10-07T13:25:44Z</time>
      </trkpt>
      <trkpt lat="43.27021" lon="-0.27097">
        <ele>307.278564</ele>
        <time>2013-10-07T13:26:00Z</time>
      </trkpt>
      <trkpt lat="43.27044" lon="-0.27125">
        <ele>304.875244</ele>
        <time>2013-10-07T13:26:04Z</time>
      </trkpt>
      <trkpt lat="43.27075" lon="-0.27154">
        <ele>301.029907</ele>
        <time>2013-10-07T13:26:08Z</time>
      </trkpt>
      <trkpt lat="43.2709" lon="-0.27169">
        <ele>297.665405</ele>
        <time>2013-10-07T13:26:10Z</time>
      </trkpt>
      <trkpt lat="43.27097" lon="-0.27177">
        <ele>297.665405</ele>
        <time>2013-10-07T13:26:11Z</time>
      </trkpt>
      <trkpt lat="43.2711" lon="-0.2719">
        <ele>294.300781</ele>
        <time>2013-10-07T13:26:13Z</time>
      </trkpt>
      <trkpt lat="43.27116" lon="-0.27197">
        <ele>294.300781</ele>
        <time>2013-10-07T13:26:14Z</time>
      </trkpt>
      <trkpt lat="43.27127" lon="-0.27209">
        <ele>290.936157</ele>
        <time>2013-10-07T13:26:16Z</time>
      </trkpt>
      <trkpt lat="43.27145" lon="-0.27262">
        <ele>289.494141</ele>
        <time>2013-10-07T13:26:23Z</time>
      </trkpt>
      <trkpt lat="43.27156" lon="-0.27282">
        <ele>288.532959</ele>
        <time>2013-10-07T13:26:26Z</time>
      </trkpt>
      <trkpt lat="43.27162" lon="-0.27295">
        <ele>287.571411</ele>
        <time>2013-10-07T13:26:28Z</time>
      </trkpt>
      <trkpt lat="43.27206" lon="-0.27406">
        <ele>285.648804</ele>
        <time>2013-10-07T13:26:45Z</time>
      </trkpt>
      <trkpt lat="43.27217" lon="-0.2744">
        <ele>283.726196</ele>
        <time>2013-10-07T13:26:50Z</time>
      </trkpt>
      <trkpt lat="43.27222" lon="-0.27477">
        <ele>284.206909</ele>
        <time>2013-10-07T13:26:55Z</time>
      </trkpt>
      <trkpt lat="43.27224" lon="-0.27535">
        <ele>283.726196</ele>
        <time>2013-10-07T13:27:03Z</time>
      </trkpt>
      <trkpt lat="43.27233" lon="-0.27571">
        <ele>283.245605</ele>
        <time>2013-10-07T13:27:09Z</time>
      </trkpt>
      <trkpt lat="43.27271" lon="-0.27665">
        <ele>281.803589</ele>
        <time>2013-10-07T13:27:25Z</time>
      </trkpt>
      <trkpt lat="43.27281" lon="-0.27694">
        <ele>279.880859</ele>
        <time>2013-10-07T13:27:30Z</time>
      </trkpt>
      <trkpt lat="43.27304" lon="-0.27723">
        <ele>279.400269</ele>
        <time>2013-10-07T13:27:36Z</time>
      </trkpt>
      <trkpt lat="43.27353" lon="-0.27733">
        <ele>276.035645</ele>
        <time>2013-10-07T13:27:46Z</time>
      </trkpt>
      <trkpt lat="43.27376" lon="-0.27731">
        <ele>275.074463</ele>
        <time>2013-10-07T13:27:54Z</time>
      </trkpt>
      <trkpt lat="43.27417" lon="-0.27802">
        <ele>275.074463</ele>
        <time>2013-10-07T13:28:08Z</time>
      </trkpt>
      <trkpt lat="43.27423" lon="-0.27825">
        <ele>274.113037</ele>
        <time>2013-10-07T13:28:12Z</time>
      </trkpt>
      <trkpt lat="43.27442" lon="-0.27908">
        <ele>273.632446</ele>
        <time>2013-10-07T13:28:25Z</time>
      </trkpt>
      <trkpt lat="43.27448" lon="-0.27939">
        <ele>273.632446</ele>
        <time>2013-10-07T13:28:30Z</time>
      </trkpt>
      <trkpt lat="43.27473" lon="-0.27978">
        <ele>273.151855</ele>
        <time>2013-10-07T13:28:39Z</time>
      </trkpt>
      <trkpt lat="43.27498" lon="-0.28009">
        <ele>273.151855</ele>
        <time>2013-10-07T13:28:47Z</time>
      </trkpt>
      <trkpt lat="43.27528" lon="-0.2813">
        <ele>273.151855</ele>
        <time>2013-10-07T13:29:06Z</time>
      </trkpt>
      <trkpt lat="43.27542" lon="-0.28187">
        <ele>272.671143</ele>
        <time>2013-10-07T13:29:15Z</time>
      </trkpt>
      <trkpt lat="43.27555" lon="-0.28231">
        <ele>272.671143</ele>
        <time>2013-10-07T13:29:22Z</time>
      </trkpt>
      <trkpt lat="43.27586" lon="-0.28351">
        <ele>272.19043</ele>
        <time>2013-10-07T13:29:41Z</time>
      </trkpt>
      <trkpt lat="43.27611" lon="-0.28444">
        <ele>271.709717</ele>
        <time>2013-10-07T13:29:56Z</time>
      </trkpt>
      <trkpt lat="43.27638" lon="-0.28584">
        <ele>270.748413</ele>
        <time>2013-10-07T13:30:17Z</time>
      </trkpt>
      <trkpt lat="43.27677" lon="-0.28715">
        <ele>270.2677</ele>
        <time>2013-10-07T13:30:37Z</time>
      </trkpt>
      <trkpt lat="43.27679" lon="-0.28722">
        <ele>270.748413</ele>
        <time>2013-10-07T13:30:38Z</time>
      </trkpt>
      <trkpt lat="43.27683" lon="-0.28735">
        <ele>270.2677</ele>
        <time>2013-10-07T13:30:40Z</time>
      </trkpt>
      <trkpt lat="43.27694" lon="-0.28766">
        <ele>270.2677</ele>
        <time>2013-10-07T13:30:45Z</time>
      </trkpt>
      <trkpt lat="43.27732" lon="-0.28895">
        <ele>268.345093</ele>
        <time>2013-10-07T13:31:05Z</time>
      </trkpt>
      <trkpt lat="43.2775" lon="-0.28952">
        <ele>267.864502</ele>
        <time>2013-10-07T13:31:14Z</time>
      </trkpt>
      <trkpt lat="43.2776" lon="-0.28975">
        <ele>268.345093</ele>
        <time>2013-10-07T13:31:18Z</time>
      </trkpt>
      <trkpt lat="43.278" lon="-0.29116">
        <ele>267.383911</ele>
        <time>2013-10-07T13:31:39Z</time>
      </trkpt>
      <trkpt lat="43.27837" lon="-0.29243">
        <ele>266.422485</ele>
        <time>2013-10-07T13:31:57Z</time>
      </trkpt>
      <trkpt lat="43.27878" lon="-0.29392">
        <ele>265.941895</ele>
        <time>2013-10-07T13:32:18Z</time>
      </trkpt>
      <trkpt lat="43.27906" lon="-0.29503">
        <ele>265.461304</ele>
        <time>2013-10-07T13:32:34Z</time>
      </trkpt>
      <trkpt lat="43.27926" lon="-0.29572">
        <ele>264.499878</ele>
        <time>2013-10-07T13:32:44Z</time>
      </trkpt>
      <trkpt lat="43.27936" lon="-0.29605">
        <ele>264.499878</ele>
        <time>2013-10-07T13:32:49Z</time>
      </trkpt>
      <trkpt lat="43.27961" lon="-0.29687">
        <ele>264.019287</ele>
        <time>2013-10-07T13:33:01Z</time>
      </trkpt>
      <trkpt lat="43.27996" lon="-0.29812">
        <ele>263.538574</ele>
        <time>2013-10-07T13:33:19Z</time>
      </trkpt>
      <trkpt lat="43.28031" lon="-0.29932">
        <ele>262.096558</ele>
        <time>2013-10-07T13:33:36Z</time>
      </trkpt>
      <trkpt lat="43.2805" lon="-0.29996">
        <ele>261.135254</ele>
        <time>2013-10-07T13:33:45Z</time>
      </trkpt>
      <trkpt lat="43.28052" lon="-0.30036">
        <ele>260.654541</ele>
        <time>2013-10-07T13:33:51Z</time>
      </trkpt>
      <trkpt lat="43.2805" lon="-0.30068">
        <ele>260.17395</ele>
        <time>2013-10-07T13:33:56Z</time>
      </trkpt>
      <trkpt lat="43.28064" lon="-0.30104">
        <ele>260.17395</ele>
        <time>2013-10-07T13:34:02Z</time>
      </trkpt>
      <trkpt lat="43.28078" lon="-0.30123">
        <ele>257.770752</ele>
        <time>2013-10-07T13:34:12Z</time>
      </trkpt>
      <trkpt lat="43.28095" lon="-0.30157">
        <ele>258.251343</ele>
        <time>2013-10-07T13:34:21Z</time>
      </trkpt>
      <trkpt lat="43.28116" lon="-0.30197">
        <ele>257.290039</ele>
        <time>2013-10-07T13:34:28Z</time>
      </trkpt>
      <trkpt lat="43.28128" lon="-0.30232">
        <ele>256.328735</ele>
        <time>2013-10-07T13:34:33Z</time>
      </trkpt>
      <trkpt lat="43.28133" lon="-0.30252">
        <ele>256.328735</ele>
        <time>2013-10-07T13:34:36Z</time>
      </trkpt>
      <trkpt lat="43.28136" lon="-0.30265">
        <ele>256.328735</ele>
        <time>2013-10-07T13:34:38Z</time>
      </trkpt>
      <trkpt lat="43.28147" lon="-0.30298">
        <ele>256.328735</ele>
        <time>2013-10-07T13:34:43Z</time>
      </trkpt>
      <trkpt lat="43.28154" lon="-0.30335">
        <ele>256.328735</ele>
        <time>2013-10-07T13:34:49Z</time>
      </trkpt>
      <trkpt lat="43.28185" lon="-0.3041">
        <ele>256.809326</ele>
        <time>2013-10-07T13:35:03Z</time>
      </trkpt>
      <trkpt lat="43.2821" lon="-0.3048">
        <ele>256.809326</ele>
        <time>2013-10-07T13:35:16Z</time>
      </trkpt>
      <trkpt lat="43.28222" lon="-0.30508">
        <ele>257.770752</ele>
        <time>2013-10-07T13:35:21Z</time>
      </trkpt>
      <trkpt lat="43.28248" lon="-0.30597">
        <ele>256.809326</ele>
        <time>2013-10-07T13:35:36Z</time>
      </trkpt>
      <trkpt lat="43.2827" lon="-0.30698">
        <ele>256.809326</ele>
        <time>2013-10-07T13:35:53Z</time>
      </trkpt>
      <trkpt lat="43.28271" lon="-0.30703">
        <ele>257.770752</ele>
        <time>2013-10-07T13:35:54Z</time>
      </trkpt>
      <trkpt lat="43.2829" lon="-0.3074">
        <ele>256.809326</ele>
        <time>2013-10-07T13:36:02Z</time>
      </trkpt>
      <trkpt lat="43.28301" lon="-0.30771">
        <ele>256.328735</ele>
        <time>2013-10-07T13:36:09Z</time>
      </trkpt>
      <trkpt lat="43.28297" lon="-0.30788">
        <ele>256.809326</ele>
        <time>2013-10-07T13:36:12Z</time>
      </trkpt>
      <trkpt lat="43.28295" lon="-0.30838">
        <ele>256.328735</ele>
        <time>2013-10-07T13:36:20Z</time>
      </trkpt>
      <trkpt lat="43.28294" lon="-0.30864">
        <ele>256.328735</ele>
        <time>2013-10-07T13:36:24Z</time>
      </trkpt>
      <trkpt lat="43.28295" lon="-0.30948">
        <ele>255.848022</ele>
        <time>2013-10-07T13:36:36Z</time>
      </trkpt>
      <trkpt lat="43.28297" lon="-0.30984">
        <ele>256.328735</ele>
        <time>2013-10-07T13:36:42Z</time>
      </trkpt>
      <trkpt lat="43.28308" lon="-0.31055">
        <ele>255.848022</ele>
        <time>2013-10-07T13:36:53Z</time>
      </trkpt>
      <trkpt lat="43.28316" lon="-0.31086">
        <ele>256.328735</ele>
        <time>2013-10-07T13:36:58Z</time>
      </trkpt>
      <trkpt lat="43.2833" lon="-0.31148">
        <ele>255.36731</ele>
        <time>2013-10-07T13:37:09Z</time>
      </trkpt>
      <trkpt lat="43.28331" lon="-0.3116">
        <ele>255.36731</ele>
        <time>2013-10-07T13:37:11Z</time>
      </trkpt>
      <trkpt lat="43.28331" lon="-0.31173">
        <ele>255.36731</ele>
        <time>2013-10-07T13:37:13Z</time>
      </trkpt>
      <trkpt lat="43.28332" lon="-0.31184">
        <ele>254.886597</ele>
        <time>2013-10-07T13:37:15Z</time>
      </trkpt>
      <trkpt lat="43.28343" lon="-0.31286">
        <ele>253.444702</ele>
        <time>2013-10-07T13:37:30Z</time>
      </trkpt>
      <trkpt lat="43.28354" lon="-0.3139">
        <ele>252.002808</ele>
        <time>2013-10-07T13:37:44Z</time>
      </trkpt>
      <trkpt lat="43.2836" lon="-0.31432">
        <ele>252.483398</ele>
        <time>2013-10-07T13:37:50Z</time>
      </trkpt>
      <trkpt lat="43.28364" lon="-0.31546">
        <ele>251.522095</ele>
        <time>2013-10-07T13:38:06Z</time>
      </trkpt>
      <trkpt lat="43.28379" lon="-0.31576">
        <ele>251.522095</ele>
        <time>2013-10-07T13:38:11Z</time>
      </trkpt>
      <trkpt lat="43.28392" lon="-0.3162">
        <ele>250.560791</ele>
        <time>2013-10-07T13:38:18Z</time>
      </trkpt>
      <trkpt lat="43.28395" lon="-0.31639">
        <ele>251.041382</ele>
        <time>2013-10-07T13:38:21Z</time>
      </trkpt>
      <trkpt lat="43.28402" lon="-0.31658">
        <ele>250.560791</ele>
        <time>2013-10-07T13:38:24Z</time>
      </trkpt>
      <trkpt lat="43.28412" lon="-0.31688">
        <ele>250.0802</ele>
        <time>2013-10-07T13:38:29Z</time>
      </trkpt>
      <trkpt lat="43.28426" lon="-0.31719">
        <ele>250.0802</ele>
        <time>2013-10-07T13:38:34Z</time>
      </trkpt>
      <trkpt lat="43.28442" lon="-0.31757">
        <ele>249.118774</ele>
        <time>2013-10-07T13:38:40Z</time>
      </trkpt>
      <trkpt lat="43.28456" lon="-0.31798">
        <ele>249.118774</ele>
        <time>2013-10-07T13:38:46Z</time>
      </trkpt>
      <trkpt lat="43.2847" lon="-0.31843">
        <ele>249.118774</ele>
        <time>2013-10-07T13:38:53Z</time>
      </trkpt>
      <trkpt lat="43.2848" lon="-0.31867">
        <ele>248.638184</ele>
        <time>2013-10-07T13:38:57Z</time>
      </trkpt>
      <trkpt lat="43.28488" lon="-0.31912">
        <ele>249.118774</ele>
        <time>2013-10-07T13:39:04Z</time>
      </trkpt>
      <trkpt lat="43.28493" lon="-0.31978">
        <ele>248.638184</ele>
        <time>2013-10-07T13:39:15Z</time>
      </trkpt>
      <trkpt lat="43.28481" lon="-0.32013">
        <ele>248.638184</ele>
        <time>2013-10-07T13:39:23Z</time>
      </trkpt>
      <trkpt lat="43.28479" lon="-0.32037">
        <ele>249.599487</ele>
        <time>2013-10-07T13:39:29Z</time>
      </trkpt>
      <trkpt lat="43.28486" lon="-0.32064">
        <ele>250.0802</ele>
        <time>2013-10-07T13:39:37Z</time>
      </trkpt>
      <trkpt lat="43.28457" lon="-0.32078">
        <ele>249.599487</ele>
        <time>2013-10-07T13:39:51Z</time>
      </trkpt>
      <trkpt lat="43.2845" lon="-0.32049">
        <ele>249.118774</ele>
        <time>2013-10-07T13:39:58Z</time>
      </trkpt>
      <trkpt lat="43.28431" lon="-0.32033">
        <ele>248.638184</ele>
        <time>2013-10-07T13:40:04Z</time>
      </trkpt>
      <trkpt lat="43.28369" lon="-0.3206">
        <ele>249.599487</ele>
        <time>2013-10-07T13:40:22Z</time>
      </trkpt>
      <trkpt lat="43.28369" lon="-0.32097">
        <ele>249.599487</ele>
        <time>2013-10-07T13:40:34Z</time>
      </trkpt>
      <trkpt lat="43.28388" lon="-0.32153">
        <ele>248.638184</ele>
        <time>2013-10-07T13:40:46Z</time>
      </trkpt>
      <trkpt lat="43.28425" lon="-0.32242">
        <ele>248.157593</ele>
        <time>2013-10-07T13:41:03Z</time>
      </trkpt>
      <trkpt lat="43.28454" lon="-0.32341">
        <ele>247.196045</ele>
        <time>2013-10-07T13:41:20Z</time>
      </trkpt>
      <trkpt lat="43.28456" lon="-0.32353">
        <ele>247.196045</ele>
        <time>2013-10-07T13:41:22Z</time>
      </trkpt>
      <trkpt lat="43.28483" lon="-0.32433">
        <ele>246.715454</ele>
        <time>2013-10-07T13:41:36Z</time>
      </trkpt>
      <trkpt lat="43.285" lon="-0.32453">
        <ele>246.234863</ele>
        <time>2013-10-07T13:41:41Z</time>
      </trkpt>
      <trkpt lat="43.28523" lon="-0.32488">
        <ele>244.792847</ele>
        <time>2013-10-07T13:41:48Z</time>
      </trkpt>
      <trkpt lat="43.28524" lon="-0.32495">
        <ele>244.792847</ele>
        <time>2013-10-07T13:41:49Z</time>
      </trkpt>
      <trkpt lat="43.28529" lon="-0.32599">
        <ele>243.35083</ele>
        <time>2013-10-07T13:42:05Z</time>
      </trkpt>
      <trkpt lat="43.28537" lon="-0.32702">
        <ele>242.389648</ele>
        <time>2013-10-07T13:42:20Z</time>
      </trkpt>
      <trkpt lat="43.28539" lon="-0.32714">
        <ele>242.389648</ele>
        <time>2013-10-07T13:42:22Z</time>
      </trkpt>
      <trkpt lat="43.28548" lon="-0.32768">
        <ele>242.389648</ele>
        <time>2013-10-07T13:42:31Z</time>
      </trkpt>
      <trkpt lat="43.28558" lon="-0.32823">
        <ele>242.389648</ele>
        <time>2013-10-07T13:42:40Z</time>
      </trkpt>
      <trkpt lat="43.28561" lon="-0.32836">
        <ele>241.908936</ele>
        <time>2013-10-07T13:42:42Z</time>
      </trkpt>
      <trkpt lat="43.28568" lon="-0.3287">
        <ele>241.908936</ele>
        <time>2013-10-07T13:42:47Z</time>
      </trkpt>
      <trkpt lat="43.28583" lon="-0.32955">
        <ele>240.947632</ele>
        <time>2013-10-07T13:43:01Z</time>
      </trkpt>
      <trkpt lat="43.28596" lon="-0.33029">
        <ele>240.947632</ele>
        <time>2013-10-07T13:43:13Z</time>
      </trkpt>
      <trkpt lat="43.28602" lon="-0.33058">
        <ele>241.428223</ele>
        <time>2013-10-07T13:43:18Z</time>
      </trkpt>
      <trkpt lat="43.28613" lon="-0.33148">
        <ele>241.428223</ele>
        <time>2013-10-07T13:43:35Z</time>
      </trkpt>
      <trkpt lat="43.28616" lon="-0.33231">
        <ele>241.428223</ele>
        <time>2013-10-07T13:43:51Z</time>
      </trkpt>
      <trkpt lat="43.28623" lon="-0.33306">
        <ele>241.908936</ele>
        <time>2013-10-07T13:44:05Z</time>
      </trkpt>
      <trkpt lat="43.28634" lon="-0.33365">
        <ele>241.428223</ele>
        <time>2013-10-07T13:44:16Z</time>
      </trkpt>
      <trkpt lat="43.28642" lon="-0.33446">
        <ele>241.908936</ele>
        <time>2013-10-07T13:44:30Z</time>
      </trkpt>
      <trkpt lat="43.28648" lon="-0.33506">
        <ele>241.428223</ele>
        <time>2013-10-07T13:44:41Z</time>
      </trkpt>
      <trkpt lat="43.28655" lon="-0.33547">
        <ele>240.467041</ele>
        <time>2013-10-07T13:44:48Z</time>
      </trkpt>
      <trkpt lat="43.28665" lon="-0.33591">
        <ele>239.505493</ele>
        <time>2013-10-07T13:44:55Z</time>
      </trkpt>
      <trkpt lat="43.28668" lon="-0.33604">
        <ele>239.505493</ele>
        <time>2013-10-07T13:44:57Z</time>
      </trkpt>
      <trkpt lat="43.28676" lon="-0.33637">
        <ele>239.505493</ele>
        <time>2013-10-07T13:45:02Z</time>
      </trkpt>
      <trkpt lat="43.28685" lon="-0.33671">
        <ele>239.024902</ele>
        <time>2013-10-07T13:45:08Z</time>
      </trkpt>
      <trkpt lat="43.28689" lon="-0.33689">
        <ele>238.544312</ele>
        <time>2013-10-07T13:45:11Z</time>
      </trkpt>
      <trkpt lat="43.28693" lon="-0.33712">
        <ele>238.544312</ele>
        <time>2013-10-07T13:45:15Z</time>
      </trkpt>
      <trkpt lat="43.28694" lon="-0.3374">
        <ele>238.544312</ele>
        <time>2013-10-07T13:45:20Z</time>
      </trkpt>
      <trkpt lat="43.28693" lon="-0.33821">
        <ele>238.544312</ele>
        <time>2013-10-07T13:45:34Z</time>
      </trkpt>
      <trkpt lat="43.28693" lon="-0.33857">
        <ele>238.063599</ele>
        <time>2013-10-07T13:45:40Z</time>
      </trkpt>
      <trkpt lat="43.28689" lon="-0.33948">
        <ele>237.102295</ele>
        <time>2013-10-07T13:45:54Z</time>
      </trkpt>
      <trkpt lat="43.28686" lon="-0.33986">
        <ele>237.582886</ele>
        <time>2013-10-07T13:46:00Z</time>
      </trkpt>
      <trkpt lat="43.28683" lon="-0.34004">
        <ele>237.102295</ele>
        <time>2013-10-07T13:46:03Z</time>
      </trkpt>
      <trkpt lat="43.28678" lon="-0.34051">
        <ele>236.621704</ele>
        <time>2013-10-07T13:46:10Z</time>
      </trkpt>
      <trkpt lat="43.28666" lon="-0.3416">
        <ele>235.660278</ele>
        <time>2013-10-07T13:46:27Z</time>
      </trkpt>
      <trkpt lat="43.28662" lon="-0.34236">
        <ele>234.699097</ele>
        <time>2013-10-07T13:46:39Z</time>
      </trkpt>
      <trkpt lat="43.2866" lon="-0.34257">
        <ele>234.699097</ele>
        <time>2013-10-07T13:46:42Z</time>
      </trkpt>
      <trkpt lat="43.28666" lon="-0.34291">
        <ele>234.699097</ele>
        <time>2013-10-07T13:46:47Z</time>
      </trkpt>
      <trkpt lat="43.28668" lon="-0.34305">
        <ele>235.179688</ele>
        <time>2013-10-07T13:46:49Z</time>
      </trkpt>
      <trkpt lat="43.28676" lon="-0.34376">
        <ele>234.218384</ele>
        <time>2013-10-07T13:47:01Z</time>
      </trkpt>
      <trkpt lat="43.28676" lon="-0.34417">
        <ele>235.179688</ele>
        <time>2013-10-07T13:47:11Z</time>
      </trkpt>
      <trkpt lat="43.28681" lon="-0.34419">
        <ele>234.699097</ele>
        <time>2013-10-07T13:47:28Z</time>
      </trkpt>
      <trkpt lat="43.28677" lon="-0.34422">
        <ele>234.699097</ele>
        <time>2013-10-07T13:47:42Z</time>
      </trkpt>
      <trkpt lat="43.28677" lon="-0.34421">
        <ele>233.737671</ele>
        <time>2013-10-07T13:47:46Z</time>
      </trkpt>
      <trkpt lat="43.28674" lon="-0.34424">
        <ele>234.218384</ele>
        <time>2013-10-07T13:48:05Z</time>
      </trkpt>
      <trkpt lat="43.28673" lon="-0.34424">
        <ele>228.931152</ele>
        <time>2013-10-07T13:48:11Z</time>
      </trkpt>
      <trkpt lat="43.28672" lon="-0.34424">
        <ele>236.621704</ele>
        <time>2013-10-07T13:48:12Z</time>
      </trkpt>
      <trkpt lat="43.28672" lon="-0.34424">
        <ele>235.179688</ele>
        <time>2013-10-07T13:48:13Z</time>
      </trkpt>
      <trkpt lat="43.28673" lon="-0.34424">
        <ele>232.776489</ele>
        <time>2013-10-07T13:48:17Z</time>
      </trkpt>
    </trkseg>
  </trk>
</gpx>